[[{"header":{"parameterUnit":"m.s-1","parameterCategory":1,"la1":30.6,"la2":29.2853,"lo1":-89.7004,"lo2":-87.6739,"dy":0.0162,"dx":0.0183,"nx":112,"ny":82,"refTime":"2024-09-18T06:00:00:Z","depth":0,"parameterNumber":2,"parameterNumberName":"U-component_of_WINDS"},"data":[0.0,0.0,0.0,0.0,0.0,0.0,0.0,0.0,0.0,0.0,0.0,0.0,0.0,0.0,0.0,0.0,0.0,0.0,0.0,0.0,0.0,0.0,0.0,0.0,0.0,0.0,0.0,0.0,0.0,0.0,0.0,0.0,0.0,0.0,0.0,0.0,0.0,0.0,0.0,0.0,0.0,0.0,0.0,0.0,0.0,0.0,0.0,0.0,0.0,0.0,0.0,0.0,0.0,0.0,0.0,0.0,0.0,0.0,0.0,0.0,0.0,0.0,0.0,0.0,0.0,0.0,0.0,0.0,0.0,0.0,0.0,0.0,0.0,0.0,0.0,0.0,0.0,0.0,0.0,0.0,0.0,0.0,0.0,0.0,0.0,0.0,0.0,0.0,0.0,0.0,-1.5185,-1.8053,-1.9838,-2.0685,-2.0378,-1.9789,-1.8035,-1.4766,0.0,0.0,0.0,0.0,0.0,0.0,0.0,0.0,0.0,0.0,0.0,0.0,0.0,0.0,0.0,0.0,0.0,0.0,0.0,0.0,0.0,0.0,0.0,0.0,0.0,0.0,0.0,0.0,0.0,0.0,0.0,0.0,0.0,0.0,0.0,0.0,0.0,0.0,0.0,0.0,0.0,0.0,0.0,0.0,0.0,0.0,0.0,0.0,0.0,0.0,0.0,0.0,0.0,0.0,0.0,0.0,0.0,0.0,0.0,0.0,0.0,0.0,0.0,0.0,0.0,0.0,0.0,0.0,0.0,0.0,0.0,0.0,0.0,0.0,0.0,0.0,0.0,0.0,0.0,0.0,0.0,0.0,0.0,0.0,0.0,0.0,0.0,0.0,0.0,0.0,0.0,0.0,0.0,0.0,0.0,0.0,0.0,0.0,0.0,0.0,0.0,0.0,0.0,0.0,-1.5503,-1.9591,-2.0544,-2.0662,-2.0119,-1.9757,-1.8072,-1.4566,0.0,0.0,0.0,0.0,0.0,0.0,0.0,0.0,0.0,0.0,0.0,0.0,0.0,0.0,0.0,0.0,0.0,0.0,0.0,0.0,0.0,0.0,0.0,0.0,0.0,0.0,0.0,0.0,0.0,0.0,0.0,0.0,0.0,0.0,0.0,0.0,0.0,0.0,0.0,0.0,0.0,0.0,0.0,0.0,0.0,0.0,0.0,0.0,0.0,0.0,0.0,0.0,0.0,0.0,0.0,0.0,0.0,0.0,0.0,0.0,0.0,0.0,0.0,0.0,0.0,0.0,0.0,0.0,0.0,0.0,0.0,0.0,0.0,0.0,0.0,0.0,0.0,0.0,0.0,0.0,0.0,0.0,0.0,0.0,0.0,0.0,0.0,0.0,0.0,0.0,0.0,0.0,0.0,0.0,0.0,0.0,0.0,0.0,0.0,0.0,0.0,0.0,0.0,-1.5312,-1.7246,-2.0098,-2.099,-2.102,-2.0081,-1.991,-1.8201,-1.4419,-1.3071,0.0,0.0,0.0,0.0,0.0,0.0,0.0,0.0,0.0,0.0,0.0,0.0,0.0,0.0,0.0,0.0,0.0,0.0,0.0,0.0,0.0,0.0,0.0,0.0,0.0,0.0,0.0,0.0,0.0,0.0,0.0,0.0,0.0,0.0,0.0,0.0,0.0,0.0,0.0,0.0,0.0,0.0,0.0,0.0,0.0,0.0,0.0,0.0,0.0,0.0,0.0,0.0,0.0,0.0,0.0,0.0,0.0,0.0,0.0,0.0,0.0,0.0,0.0,0.0,0.0,0.0,0.0,0.0,0.0,0.0,0.0,0.0,0.0,0.0,0.0,0.0,0.0,0.0,0.0,0.0,0.0,0.0,0.0,0.0,0.0,0.0,0.0,0.0,0.0,0.0,0.0,0.0,0.0,0.0,0.0,0.0,0.0,0.0,0.0,0.0,0.0,0.0,-1.7374,-1.8741,-2.0088,-2.0804,-2.0831,-1.9905,-1.9418,-1.7665,-1.4176,-1.2505,0.0,0.0,0.0,0.0,0.0,0.0,0.0,0.0,0.0,0.0,0.0,0.0,0.0,0.0,0.0,0.0,0.0,0.0,0.0,0.0,0.0,0.0,0.0,0.0,0.0,0.0,0.0,0.0,0.0,0.0,0.0,0.0,0.0,0.0,0.0,0.0,0.0,0.0,0.0,0.0,0.0,0.0,0.0,0.0,0.0,0.0,0.0,0.0,0.0,0.0,0.0,0.0,0.0,0.0,0.0,0.0,0.0,0.0,0.0,0.0,0.0,0.0,0.0,0.0,0.0,0.0,0.0,0.0,0.0,0.0,0.0,0.0,0.0,0.0,0.0,0.0,0.0,0.0,0.0,0.0,0.0,0.0,0.0,0.0,0.0,0.0,0.0,0.0,0.0,0.0,0.0,0.0,0.0,0.0,0.0,0.0,0.0,0.0,0.0,0.0,0.0,0.0,-1.697,-1.8983,-1.9581,-1.9544,-1.944,-1.936,-1.7697,-1.5761,-1.3676,-1.1343,0.0,0.0,0.0,0.0,0.0,0.0,0.0,0.0,0.0,0.0,0.0,0.0,0.0,0.0,0.0,0.0,0.0,0.0,0.0,0.0,0.0,0.0,0.0,0.0,0.0,0.0,0.0,0.0,0.0,0.0,0.0,0.0,0.0,0.0,0.0,0.0,0.0,0.0,0.0,0.0,0.0,0.0,0.0,0.0,0.0,0.0,0.0,0.0,0.0,0.0,0.0,0.0,0.0,0.0,0.0,0.0,0.0,0.0,0.0,0.0,0.0,0.0,0.0,0.0,0.0,0.0,0.0,0.0,0.0,0.0,0.0,0.0,0.0,0.0,0.0,0.0,0.0,0.0,0.0,0.0,0.0,0.0,0.0,0.0,0.0,0.0,0.0,0.0,0.0,0.0,0.0,0.0,0.0,0.0,0.0,0.0,0.0,0.0,0.0,0.0,0.0,0.0,-1.6088,-1.7813,-1.8967,-1.923,-1.9155,-1.8825,-1.8148,-1.6507,-1.3685,0.0,0.0,0.0,0.0,0.0,0.0,0.0,0.0,0.0,0.0,0.0,0.0,0.0,0.0,0.0,0.0,0.0,0.0,0.0,0.0,0.0,0.0,0.0,0.0,0.0,0.0,0.0,0.0,0.0,0.0,0.0,0.0,0.0,0.0,0.0,0.0,0.0,0.0,0.0,0.0,0.0,0.0,0.0,0.0,0.0,0.0,0.0,0.0,0.0,0.0,0.0,0.0,0.0,0.0,0.0,0.0,0.0,0.0,0.0,0.0,0.0,0.0,0.0,0.0,0.0,0.0,0.0,0.0,0.0,0.0,0.0,0.0,0.0,0.0,0.0,0.0,0.0,0.0,0.0,0.0,0.0,0.0,0.0,0.0,0.0,0.0,0.0,0.0,0.0,0.0,0.0,0.0,0.0,0.0,0.0,0.0,0.0,0.0,0.0,0.0,0.0,0.0,-1.387,-1.5644,-1.7194,-1.8457,-1.8622,-1.8561,-1.8397,-1.7755,-1.6179,-1.3327,0.0,0.0,0.0,0.0,0.0,0.0,0.0,0.0,0.0,0.0,0.0,0.0,0.0,0.0,0.0,0.0,0.0,0.0,0.0,0.0,0.0,0.0,0.0,0.0,0.0,0.0,0.0,0.0,0.0,0.0,0.0,0.0,0.0,0.0,0.0,0.0,0.0,0.0,0.0,0.0,0.0,0.0,0.0,0.0,0.0,0.0,0.0,0.0,0.0,0.0,0.0,0.0,0.0,0.0,0.0,0.0,0.0,0.0,0.0,0.0,0.0,0.0,0.0,0.0,0.0,0.0,0.0,0.0,0.0,0.0,0.0,0.0,0.0,0.0,0.0,0.0,0.0,0.0,0.0,0.0,0.0,0.0,0.0,0.0,0.0,0.0,0.0,0.0,0.0,0.0,0.0,0.0,0.0,0.0,0.0,0.0,0.0,0.0,0.0,0.0,0.0,0.0,-1.3644,-1.5787,-1.7434,-1.8035,-1.7565,-1.746,-1.8035,-1.6191,-1.4278,0.0,0.0,0.0,0.0,0.0,0.0,0.0,0.0,0.0,0.0,0.0,0.0,0.0,0.0,0.0,0.0,0.0,0.0,0.0,0.0,0.0,0.0,0.0,0.0,0.0,0.0,0.0,0.0,0.0,0.0,0.0,0.0,0.0,0.0,0.0,0.0,0.0,0.0,0.0,0.0,0.0,0.0,0.0,0.0,0.0,0.0,0.0,0.0,0.0,0.0,0.0,0.0,0.0,0.0,0.0,0.0,0.0,0.0,0.0,0.0,0.0,0.0,0.0,0.0,0.0,0.0,0.0,0.0,0.0,0.0,0.0,0.0,0.0,0.0,0.0,0.0,0.0,0.0,0.0,0.0,0.0,0.0,0.0,0.0,0.0,0.0,0.0,0.0,0.0,0.0,0.0,0.0,0.0,0.0,0.0,0.0,0.0,0.0,0.0,0.0,0.0,0.0,0.0,-1.3644,-1.6153,-1.7904,-1.8087,-1.7931,-1.777,-1.7683,-1.6757,-1.5141,-1.2686,0.0,0.0,0.0,0.0,0.0,0.0,0.0,0.0,0.0,0.0,0.0,0.0,0.0,0.0,0.0,0.0,0.0,0.0,0.0,0.0,0.0,0.0,0.0,0.0,0.0,0.0,0.0,0.0,0.0,0.0,0.0,0.0,0.0,0.0,0.0,0.0,0.0,0.0,0.0,0.0,0.0,0.0,0.0,0.0,0.0,0.0,0.0,0.0,0.0,0.0,0.0,0.0,0.0,0.0,0.0,0.0,0.0,0.0,0.0,0.0,0.0,0.0,0.0,0.0,0.0,0.0,0.0,0.0,0.0,0.0,0.0,0.0,0.0,0.0,0.0,0.0,0.0,0.0,0.0,0.0,0.0,0.0,0.0,0.0,0.0,0.0,0.0,0.0,0.0,0.0,0.0,0.0,0.0,0.0,0.0,0.0,0.0,0.0,0.0,0.0,0.0,0.0,-1.3931,-1.6441,-1.8192,-1.8401,-1.8218,-1.7956,-1.7527,-1.6888,-1.5385,-1.277,0.0,0.0,0.0,0.0,0.0,0.0,0.0,0.0,0.0,0.0,0.0,0.0,0.0,0.0,0.0,0.0,0.0,0.0,0.0,0.0,0.0,0.0,0.0,0.0,0.0,0.0,0.0,0.0,0.0,0.0,0.0,0.0,0.0,0.0,0.0,0.0,0.0,0.0,0.0,0.0,0.0,0.0,0.0,0.0,0.0,0.0,0.0,0.0,0.0,0.0,0.0,0.0,0.0,0.0,0.0,0.0,0.0,0.0,0.0,0.0,0.0,0.0,0.0,0.0,0.0,0.0,0.0,0.0,0.0,0.0,0.0,0.0,0.0,0.0,0.0,0.0,0.0,0.0,0.0,0.0,0.0,0.0,0.0,0.0,0.0,0.0,0.0,0.0,0.0,0.0,0.0,0.0,0.0,0.0,0.0,0.0,0.0,0.0,0.0,0.0,0.0,0.0,-1.4402,-1.6708,-1.8375,-1.8924,-1.8558,-1.8063,-1.7558,-1.6769,-1.5236,-1.2842,0.0,0.0,0.0,0.0,0.0,0.0,0.0,0.0,0.0,0.0,0.0,0.0,0.0,0.0,0.0,0.0,0.0,0.0,0.0,0.0,0.0,0.0,0.0,0.0,0.0,0.0,0.0,0.0,0.0,0.0,0.0,0.0,0.0,0.0,0.0,0.0,0.0,0.0,0.0,0.0,0.0,0.0,0.0,0.0,0.0,0.0,0.0,0.0,0.0,0.0,0.0,0.0,0.0,0.0,0.0,0.0,0.0,0.0,0.0,0.0,-1.4526,-1.2903,0.0,0.0,0.0,0.0,0.0,0.0,0.0,0.0,0.0,0.0,0.0,0.0,0.0,0.0,0.0,0.0,0.0,0.0,0.0,0.0,0.0,0.0,0.0,0.0,0.0,0.0,0.0,0.0,0.0,0.0,0.0,0.0,0.0,0.0,0.0,0.0,0.0,0.0,0.0,0.0,-1.4728,-1.7177,-1.895,-1.9551,-1.9499,-1.898,-1.7911,-1.7202,-1.5857,-1.3523,-1.2214,0.0,0.0,0.0,0.0,0.0,0.0,0.0,0.0,0.0,0.0,0.0,0.0,0.0,0.0,0.0,0.0,0.0,0.0,0.0,0.0,0.0,0.0,0.0,0.0,0.0,0.0,0.0,0.0,0.0,0.0,0.0,0.0,0.0,0.0,0.0,0.0,0.0,0.0,0.0,0.0,0.0,0.0,0.0,0.0,0.0,0.0,0.0,0.0,0.0,0.0,0.0,0.0,0.0,0.0,0.0,0.0,0.0,0.0,0.0,-1.8223,-1.6368,0.0,0.0,0.0,0.0,0.0,0.0,0.0,0.0,0.0,0.0,0.0,0.0,0.0,0.0,0.0,0.0,0.0,0.0,0.0,0.0,0.0,0.0,0.0,0.0,0.0,0.0,0.0,0.0,0.0,0.0,0.0,0.0,0.0,0.0,0.0,0.0,0.0,0.0,0.0,0.0,-1.5307,-1.7418,-1.8926,-1.9534,-1.9357,-1.8857,-1.8019,-1.7075,-1.5843,-1.4222,-1.2736,0.0,0.0,0.0,0.0,0.0,0.0,0.0,0.0,0.0,0.0,0.0,0.0,0.0,0.0,0.0,0.0,0.0,0.0,0.0,0.0,0.0,0.0,0.0,0.0,0.0,0.0,0.0,0.0,0.0,0.0,0.0,0.0,0.0,0.0,0.0,0.0,0.0,0.0,0.0,0.0,0.0,0.0,0.0,0.0,0.0,0.0,0.0,0.0,0.0,0.0,0.0,0.0,0.0,-2.2802,-2.34,-2.4298,-2.4866,-2.5202,-2.5143,-2.2443,-2.0791,-1.994,-1.8689,0.0,0.0,0.0,0.0,0.0,0.0,0.0,0.0,0.0,0.0,0.0,0.0,0.0,0.0,0.0,0.0,0.0,0.0,0.0,0.0,0.0,0.0,-1.6754,-1.7723,-1.8818,-1.867,-1.5149,0.0,0.0,0.0,0.0,0.0,0.0,0.0,0.0,0.0,0.0,0.0,-1.5898,-1.7531,-1.873,-1.9345,-1.8951,-1.8456,-1.7977,-1.6923,-1.5888,-1.494,-1.3346,-1.2268,0.0,0.0,0.0,0.0,0.0,0.0,0.0,0.0,0.0,0.0,0.0,0.0,0.0,0.0,0.0,0.0,0.0,0.0,0.0,0.0,0.0,0.0,0.0,0.0,0.0,0.0,0.0,0.0,0.0,0.0,0.0,0.0,-1.191,-1.3256,0.0,0.0,0.0,0.0,0.0,0.0,0.0,0.0,0.0,0.0,0.0,0.0,0.0,-2.1515,-2.2802,-2.4627,-2.5674,-2.5974,-2.7141,-2.747,-2.7076,-2.7165,-2.75,-2.8038,-2.7619,0.0,-2.2858,-2.0813,0.0,0.0,0.0,0.0,0.0,0.0,0.0,0.0,0.0,0.0,0.0,0.0,0.0,0.0,0.0,0.0,0.0,0.0,0.0,0.0,0.0,0.0,-2.0244,-2.081,-2.0729,-2.0518,-2.0388,-1.7812,-1.4917,-1.2877,-1.2324,-1.1836,0.0,0.0,0.0,0.0,0.0,0.0,-1.6164,-1.763,-1.873,-1.9345,-1.9321,-1.8842,-1.7744,-1.7478,-1.6868,-1.564,-1.4419,-1.3722,-1.3658,-1.1796,0.0,0.0,0.0,0.0,0.0,0.0,0.0,0.0,0.0,0.0,0.0,0.0,0.0,0.0,0.0,0.0,0.0,0.0,0.0,0.0,0.0,0.0,0.0,0.0,0.0,0.0,0.0,0.0,0.0,-1.2549,-1.4393,-1.5323,-1.5516,-1.5171,0.0,0.0,0.0,0.0,0.0,0.0,0.0,0.0,0.0,-2.2951,-2.3939,-2.5255,-2.6961,-2.7854,-2.8816,-2.9924,-3.0522,-3.0821,-3.0939,-3.0939,-3.1089,-3.133,-3.0971,-2.9953,-2.8371,-2.5342,-2.3157,-2.1598,0.0,0.0,0.0,0.0,-1.8636,-1.8979,-1.977,-1.985,-1.9439,-1.8535,0.0,0.0,0.0,0.0,0.0,0.0,0.0,-1.6809,-1.8525,-2.0012,-2.134,-2.2276,-2.2351,-2.2178,-2.2103,-2.0559,-1.8536,-1.6167,-1.5404,-1.4546,-1.27,-1.2168,0.0,0.0,0.0,-1.573,-1.7198,-1.8063,-1.86,-1.8861,-1.8464,-1.7943,-1.7418,-1.6989,-1.6532,-1.5966,-1.5067,-1.4558,-1.4558,-1.319,-1.2046,0.0,0.0,0.0,0.0,0.0,0.0,0.0,0.0,0.0,0.0,0.0,0.0,0.0,0.0,0.0,0.0,0.0,0.0,0.0,0.0,0.0,0.0,0.0,0.0,0.0,0.0,0.0,0.0,-1.4766,-1.6757,-1.74,-1.8356,-1.8403,0.0,0.0,0.0,0.0,0.0,0.0,-2.2113,-2.346,-2.4949,-2.6572,-2.759,-2.8816,-3.0313,-3.0492,-3.13,-3.2766,-3.2766,-3.3036,-3.3484,-3.3484,-3.3484,-3.3455,-3.2976,-3.2766,-3.2497,-2.9265,-2.6933,-2.5301,-2.3931,-2.3025,-2.2467,-2.2086,-2.2034,-2.2322,-2.3315,-2.3391,-2.281,-2.1812,-2.0881,-1.9811,-1.7747,0.0,0.0,0.0,0.0,-1.8767,-2.0504,-2.1408,-2.2066,-2.3007,-2.3264,-2.3175,-2.2708,-2.2252,-2.1193,-1.8775,-1.8063,-1.7189,-1.5016,-1.4516,0.0,-1.5038,-1.6031,-1.7047,-1.7933,-1.8328,-1.8525,-1.8525,-1.7829,-1.7346,-1.729,-1.6663,-1.6248,-1.6187,-1.5556,-1.5173,-1.5173,-1.4407,-1.3467,-1.2428,0.0,0.0,0.0,0.0,0.0,0.0,0.0,0.0,0.0,0.0,0.0,0.0,0.0,0.0,0.0,0.0,0.0,0.0,0.0,0.0,0.0,0.0,0.0,0.0,0.0,0.0,0.0,0.0,0.0,-1.945,-2.1265,0.0,0.0,0.0,0.0,-2.2313,-2.2921,-2.4178,-2.6207,-2.756,-2.8637,-2.9382,-3.121,-3.2258,-3.2347,-3.2976,-3.3335,-3.3455,-3.3455,-3.3455,-3.3484,-3.3484,-3.3484,-3.3484,-3.3455,-3.3455,-3.3275,-3.1182,-2.929,-2.7618,-2.6315,-2.4822,-2.333,-2.3173,-2.3469,-2.4073,-2.4704,-2.4767,-2.4662,-2.5102,-2.4142,-2.2805,-2.2645,-2.1604,0.0,0.0,-2.1632,-2.2101,-2.24,-2.2882,-2.3242,-2.3075,-2.3042,-2.3018,-2.2961,-2.2569,-2.1613,-1.9785,-1.94,-1.8963,-1.7625,0.0,-1.6802,-1.6961,-1.7036,-1.7281,-1.7839,-1.8311,-1.8594,-1.8594,-1.818,-1.7759,-1.7517,-1.7041,-1.6673,-1.641,-1.5946,-1.5649,-1.5649,-1.5194,-1.449,-1.3535,-1.2094,0.0,0.0,0.0,0.0,0.0,0.0,0.0,0.0,0.0,0.0,0.0,0.0,0.0,0.0,0.0,0.0,0.0,0.0,0.0,0.0,0.0,0.0,0.0,0.0,0.0,0.0,0.0,0.0,-2.2682,-2.4238,0.0,-2.361,-2.3939,-2.4657,-2.5758,-2.6452,-2.7679,-2.9627,-3.0642,-3.142,-3.2078,-3.2766,-3.3335,-3.3784,-3.3993,-3.4352,-3.4801,-3.4801,-3.4801,-3.4801,-3.4801,-3.4801,-3.4801,-3.4801,-3.4801,-3.4741,-3.4023,-3.2825,-3.1368,-3.0027,-2.9108,-2.8407,-2.7482,-2.7196,-2.7271,-2.7512,-2.6963,-2.607,-2.5377,-2.4411,-2.3513,-2.3513,-2.2863,-2.2095,-2.2046,-2.2128,-2.2331,-2.2417,-2.2612,-2.2803,-2.2961,-2.2715,-2.2492,-2.2492,-2.2107,-2.155,-2.0916,-2.0308,-1.9633,-1.8819,-1.8298,-1.7919,-1.7651,-1.8151,-1.8659,-1.8842,-1.8831,-1.8783,-1.8783,-1.8171,-1.7609,-1.7226,-1.7009,-1.6647,-1.6008,-1.5773,-1.5546,-1.5256,-1.48,-1.4386,-1.4076,-1.2937,-1.1343,0.0,0.0,0.0,0.0,0.0,0.0,0.0,0.0,0.0,0.0,0.0,0.0,0.0,0.0,0.0,0.0,0.0,0.0,0.0,0.0,0.0,0.0,0.0,0.0,0.0,-2.1216,-2.349,-2.4784,-2.6722,-2.756,-2.6692,-2.7205,-2.8068,-2.9146,-2.9654,-3.0582,-3.2079,-3.2826,-3.3365,-3.3814,-3.4053,-3.4382,-3.4831,-3.4863,-3.504,-3.5519,-3.5519,-3.5519,-3.5519,-3.5519,-3.5519,-3.5519,-3.5519,-3.5519,-3.5519,-3.5519,-3.4981,-3.4017,-3.2377,-3.1617,-3.1221,-2.9741,-2.9123,-2.898,-2.8836,-2.8216,-2.73,-2.6367,-2.571,-2.5242,-2.5242,-2.4616,-2.3886,-2.3631,-2.3284,-2.2855,-2.2654,-2.259,-2.259,-2.259,-2.2317,-2.2045,-2.2045,-2.1846,-2.161,-2.161,-2.1034,-2.0411,-1.9954,-1.949,-1.9049,-1.8602,-1.8976,-1.9308,-1.9308,-1.9094,-1.8965,-1.8965,-1.8343,-1.773,-1.7275,-1.6965,-1.656,-1.596,-1.5628,-1.538,-1.5235,-1.478,-1.4469,-1.4304,-1.304,-1.1477,-0.9588,0.0,0.0,0.0,0.0,0.0,0.0,0.0,0.0,0.0,0.0,0.0,0.0,0.0,0.0,0.0,0.0,0.0,0.0,0.0,0.0,0.0,0.0,0.0,-2.0927,-2.3648,-2.5764,-2.5794,-2.8637,-3.0103,-2.8876,-3.0464,-3.1839,-3.2497,-3.2587,-3.2856,-3.3514,-3.4173,-3.4533,-3.4533,-3.516,-3.5519,-3.5519,-3.5519,-3.5519,-3.5519,-3.5519,-3.5519,-3.5519,-3.5519,-3.5519,-3.5519,-3.5519,-3.5519,-3.5519,-3.5519,-3.5519,-3.5299,-3.324,-3.2044,-3.1244,-2.9654,-2.9067,-2.8995,-2.8573,-2.8428,-2.8366,-2.8195,-2.8097,-2.8097,-2.8097,-2.7212,-2.6154,-2.6117,-2.519,-2.4032,-2.3246,-2.3045,-2.2836,-2.2008,-2.1818,-2.1797,-2.1797,-2.1797,-2.1797,-2.1797,-2.1621,-2.1393,-2.1041,-2.0623,-2.0202,-1.9858,-1.943,0.0,-1.9119,-1.9119,-1.9119,-1.9098,-1.8704,-1.8216,-1.775,-1.6933,-1.6423,-1.6381,-1.5504,-1.5194,-1.5628,-1.5214,-1.478,-1.4345,-1.2421,-1.1005,-1.0103,0.0,0.0,0.0,0.0,0.0,0.0,0.0,0.0,0.0,0.0,0.0,0.0,0.0,0.0,0.0,0.0,0.0,0.0,0.0,0.0,0.0,-2.1818,-2.4048,-2.4081,-2.6643,-2.8846,-2.9777,-3.1539,-3.2527,-3.2198,-3.2647,-3.3215,-3.3873,-3.3933,-3.4233,-3.4921,-3.513,-3.522,-3.522,-3.54,-3.5519,-3.5519,-3.5519,-3.5519,-3.5519,-3.5519,-3.5519,-3.5519,-3.5519,-3.5424,-3.5294,-3.5424,-3.5424,-3.5294,-3.5424,-3.5392,-3.5133,-3.3562,-3.2779,-3.2298,-3.0771,-3.0045,-2.9706,-2.9,-2.8737,-2.8686,-2.8247,-2.8097,-2.8097,-2.8097,-2.7851,-2.7409,-2.6832,-2.6415,-2.5812,-2.4431,-2.3821,-2.3368,-2.2488,-2.2045,-2.1797,-2.1797,-2.1797,-2.1797,-2.1797,-2.1761,-2.1581,-2.1136,-2.0698,-2.035,-2.0245,-2.0141,-1.9934,-1.9658,-1.9616,-1.9471,-1.9139,-1.8994,-1.8725,-1.8237,-1.7678,-1.6933,-1.5939,-1.5318,-1.4904,-1.4697,-1.4573,-1.4593,-1.48,-1.3229,-1.2439,0.0,0.0,0.0,0.0,0.0,0.0,0.0,0.0,0.0,0.0,0.0,0.0,0.0,0.0,0.0,0.0,0.0,0.0,0.0,0.0,0.0,0.0,-2.4731,-2.6969,-2.793,-2.9669,-3.118,-3.2228,-3.3275,-3.3903,-3.3903,-3.4173,-3.4502,-3.4891,-3.4921,-3.507,-3.5489,-3.5519,-3.5519,-3.5519,-3.5519,-3.5519,-3.5519,-3.5519,-3.5519,-3.5519,-3.5519,-3.5457,-3.5359,-3.5359,-3.5261,-3.5067,-3.5294,-3.5067,-3.4639,-3.4806,-3.4543,-3.4041,0.0,0.0,0.0,0.0,-3.0241,-2.9922,-2.9441,-2.9302,-2.9227,-2.8925,-2.8825,-2.8825,-2.8825,-2.84,-2.7865,-2.7427,-2.6591,-2.5701,-2.4753,-2.4046,-2.342,-2.2889,-2.2584,-2.2335,-2.2149,-2.2087,-2.2045,-2.1838,-2.1797,0.0,-2.1445,-2.0974,-2.0684,-2.0684,-2.0519,-2.0327,-2.0079,-1.9907,-1.9699,-1.943,-1.9222,-1.8911,-1.8455,-1.7988,0.0,0.0,0.0,-1.507,-1.4614,-1.4702,0.0,0.0,0.0,0.0,0.0,-1.245,0.0,0.0,-1.2689,-1.2849,0.0,0.0,0.0,0.0,0.0,0.0,0.0,0.0,0.0,0.0,0.0,0.0,0.0,0.0,0.0,0.0,-2.7474,-2.9825,-3.1616,-3.2433,-3.3005,-3.3514,-3.4173,-3.4623,-3.4623,-3.516,-3.5519,-3.5519,-3.5519,-3.5519,-3.5519,-3.5519,0.0,0.0,0.0,-3.5457,-3.5457,-3.5424,-3.5424,-3.5424,-3.5424,-3.5326,-3.5195,-3.5195,-3.5067,-3.4868,-3.5001,-3.4572,-3.3796,-3.3837,-3.329,-3.2451,-3.2629,-3.2577,-3.2237,-3.0634,-2.9934,-2.9804,-2.9804,0.0,0.0,-2.9804,-2.9804,-2.9804,-2.9804,-2.8941,-2.8023,-2.8023,-2.6621,-2.5026,-2.4829,-2.4193,-2.3529,-2.3348,-2.3225,-2.308,-2.2666,-2.2542,-2.2377,-2.1963,-2.1838,-2.1797,-2.1797,-2.1466,-2.1197,-2.1197,-2.0808,-2.0519,-2.0514,-2.0162,-1.9927,-1.9865,-1.945,0.0,-1.86,-1.8092,-1.7585,-1.711,-1.6283,-1.5622,-1.5209,-1.5498,-1.5399,-1.4802,-1.4707,-1.4789,-1.5077,-1.461,-1.4922,-1.5874,-1.3779,-1.4136,0.0,0.0,0.0,0.0,0.0,0.0,0.0,0.0,0.0,0.0,0.0,0.0,0.0,0.0,0.0,-2.5349,-2.8307,-3.0848,-3.2264,-3.3729,-3.4518,-3.4133,-3.4795,-3.531,-3.531,-3.5429,-3.5519,-3.5519,-3.5519,-3.5519,-3.5519,-3.5519,-3.5519,-3.5519,-3.5326,-3.5261,-3.5261,-3.51,-3.5001,-3.5001,-3.5001,0.0,-3.4968,-3.4968,-3.4868,-3.4731,-3.4269,-3.3899,-3.3526,-3.308,-3.2307,-3.1462,-3.1499,-3.1156,-3.0558,-3.0049,-2.9818,-2.9804,-2.9804,-2.9804,-2.9804,-2.9804,-2.9804,-2.9804,-2.9804,-2.9626,0.0,-2.941,-2.9104,-2.8436,-2.6984,-2.6245,-2.5512,-2.4094,-2.3494,-2.3163,-2.308,-2.277,-2.248,-2.2377,-2.2066,-2.1797,-2.1797,-2.1735,-2.1673,-2.1673,-2.159,-2.1404,-2.1031,-2.0907,-2.0721,-2.0327,-1.9893,-1.9616,-1.9533,-1.8733,-1.8071,-1.7585,-1.6958,-1.655,-1.6468,-1.7032,-1.7268,-1.7141,-1.7344,-1.7644,-1.8074,-1.722,-1.7587,-1.8974,-1.6509,-1.5325,0.0,0.0,0.0,0.0,0.0,0.0,0.0,0.0,0.0,0.0,0.0,-2.069,-2.2071,0.0,-2.5923,-2.7673,-2.9651,-3.1454,-3.2714,-3.3733,-3.4422,-3.4528,-3.5118,-3.5424,-3.5228,-3.5359,-3.5424,-3.5228,-3.5294,-3.5326,-3.5228,-3.5195,-3.5195,-3.5195,-3.51,-3.5034,-3.5034,-3.4935,-3.4706,-3.437,-3.437,-3.4104,-3.3596,-3.3596,-3.3526,-3.3381,-3.3143,-3.2727,-3.2155,-3.1489,-3.0921,-3.0495,-3.0495,-3.0292,-2.9934,-2.9818,-2.9804,-2.9804,-2.9804,-2.9804,-2.9804,-2.9804,-2.9804,-2.9804,-2.9804,-2.9804,-2.9804,-2.9804,-2.9131,-2.8211,-2.7342,-2.6326,-2.5306,-2.4409,-2.4033,-2.3805,-2.3577,-2.335,-2.3122,-2.2894,-2.2459,-2.2149,-2.2149,-2.1963,-2.1797,-2.1797,-2.1797,-2.1735,-2.1487,-2.1259,-2.1031,-2.0803,-2.0369,-2.01,-2.01,-1.9492,-1.9015,-1.8754,-1.8159,-1.7798,-1.7798,-1.8154,-1.8347,-1.8347,-1.8244,-1.8383,-1.8728,-1.8133,-1.8341,-1.9216,-1.8166,-1.7817,0.0,0.0,0.0,0.0,0.0,0.0,0.0,0.0,-1.9284,-2.1395,-2.2602,-2.3828,-2.5586,-2.6985,-2.83,-2.9632,-3.0635,-3.1638,-3.2841,-3.3283,-3.3831,-3.4702,-3.5162,-3.5261,-3.4935,-3.5195,-3.5261,-3.4935,-3.5034,-3.5067,-3.4902,-3.4902,-3.4902,-3.4902,-3.4823,-3.4781,-3.4781,-3.4695,-3.4376,-3.379,-3.379,-3.3338,-3.2554,-3.2554,-3.2509,-3.2426,-3.2264,-3.1659,-3.0776,-3.0075,-2.9804,-2.9804,-2.9804,-2.9804,-2.9804,-2.9804,-2.9804,-2.9804,-2.9804,-2.9804,-2.9804,-2.9804,-2.9804,-2.9804,-2.9804,-2.9804,-2.9804,-2.9804,-2.8633,-2.7325,-2.7139,-2.5924,-2.47,-2.4529,-2.4507,-2.4404,-2.4095,-2.395,-2.3805,-2.3391,-2.2956,-2.2625,-2.2625,-2.2315,-2.2004,-2.1838,-2.1797,-2.1797,-2.1797,-2.1487,-2.1238,-2.1238,-2.0772,-2.0406,-2.0288,-1.9994,-1.9788,-1.9788,-1.9267,-1.8947,-1.8947,-1.9023,-1.9085,-1.9085,-1.8879,-1.8881,-1.9081,-1.8971,-1.9029,-1.9265,-1.9696,-2.0267,-1.5447,-1.5823,-1.6724,-1.882,-1.8984,-1.9813,0.0,0.0,-2.3753,-2.5493,-2.6323,-2.6816,-2.7042,-2.8019,-2.8811,-2.9013,-3.0106,-3.1262,-3.211,-3.2967,-3.3728,-3.4366,-3.4769,-3.4935,-3.4902,-3.4935,-3.4935,-3.4902,-3.4935,-3.4935,-3.4902,-3.4902,-3.4902,-3.4902,-3.4548,-3.4349,-3.4349,-3.4011,-3.3799,-3.3723,-3.3723,-3.3647,-3.3533,-3.3533,-3.3533,-3.3468,-3.2284,-3.1332,-3.0576,-3.0019,-2.9804,-2.9804,-2.9804,-2.9804,-2.9804,-2.9804,-2.9804,-2.9804,-2.9804,-2.9804,-2.9804,-2.9804,-2.9804,-2.9804,-2.9804,-2.9804,-2.9804,-2.9804,-2.9091,-2.8131,-2.7325,-2.6359,-2.5463,-2.47,-2.4507,-2.4487,-2.4425,-2.4157,-2.3867,-2.3805,-2.3432,-2.3101,-2.3101,-2.306,-2.2749,-2.1942,-2.1797,-2.1797,-2.1797,-2.1756,-2.1735,-2.1735,-2.1135,-2.052,-1.9933,-1.9817,-1.9797,-1.9797,-1.9613,-1.9505,-1.9505,-1.9698,-1.9766,-1.9766,-2.0508,-2.0876,-2.0934,-2.132,-2.1511,-2.1527,-2.1932,-2.1198,-1.9306,-1.9321,-1.9421,-2.1354,-2.2118,-2.2934,-2.509,-2.5514,-2.5845,-2.7143,-2.7871,-2.8348,-2.8674,-2.9452,-2.9909,-2.9504,-3.0239,-3.1007,-3.1341,-3.1719,-3.2154,-3.2528,-3.3016,-3.3624,-3.4534,-3.4802,-3.4835,-3.4635,-3.4702,-3.4534,-3.3934,-3.4237,-3.4199,-3.3747,-3.3863,-3.3973,-3.3973,-3.3805,-3.348,-3.3052,-3.3052,-3.2817,-3.2342,-3.2342,-3.2342,-3.2342,-3.1752,-3.1356,-3.106,-3.0809,-3.0557,-3.0281,-3.0281,-3.008,-2.9804,-2.9804,-2.9804,-2.9804,-2.9804,-2.9804,-2.9804,-2.9804,-2.9804,-2.9804,-2.9804,-2.9468,-2.9028,-2.9028,-2.8011,-2.6853,-2.6442,-2.5715,-2.4935,-2.4572,-2.4507,-2.4507,-2.4507,-2.4363,-2.426,-2.426,-2.3888,-2.3598,-2.3598,-2.337,-2.3019,-2.2468,-2.2298,-2.2211,-2.2211,-2.1983,-2.178,-2.1665,-2.1253,-2.0919,-2.0624,-2.0604,-2.0604,-2.0604,-2.0436,-2.0361,-2.0361,-2.0546,-2.0409,-1.9839,-2.1007,-2.1315,-2.0761,-2.1739,-2.2246,-2.2266,-2.2633,-2.2385,-2.1146,-2.1459,-2.1778,-2.3491,-2.4699,-2.5619,-2.6122,-2.6703,-2.7419,-2.8373,-2.89,-2.9302,-2.9704,-3.0228,-3.0419,-2.9895,-3.0228,-3.0696,-3.0857,-3.0895,-3.1035,-3.1477,-3.1838,-3.2541,-3.3652,-3.3997,-3.4002,-3.3791,-3.3894,-3.3709,-3.3147,-3.352,-3.3569,-3.3138,-3.3438,-3.3604,-3.3604,-3.3568,-3.3277,-3.2739,-3.2739,-3.2414,-3.1863,-3.1863,-3.1863,-3.1838,-3.1687,-3.1612,-3.1612,-3.1461,-3.116,-3.0834,-3.0834,-3.0507,-3.003,-3.003,-2.993,-2.9804,-2.9804,-2.9804,-2.9804,-2.9804,-2.9804,-2.9804,-2.9804,-2.9365,-2.8791,-2.8593,-2.7383,-2.611,-2.5861,-2.5147,-2.4507,-2.4507,-2.4507,-2.4507,-2.4507,-2.4507,-2.4507,-2.4507,-2.4281,-2.4074,-2.3969,-2.3701,-2.3392,-2.3124,-2.2879,-2.2672,-2.2568,-2.228,-2.1996,-2.1724,-2.1467,-2.127,-2.1192,-2.1192,-2.1192,-2.1192,-2.1194,-2.1194,-2.1194,-2.133,-2.1082,-2.041,-2.1505,-2.1572,-2.0583,-2.1992,-2.2504,-2.2289,-2.2858,-2.3101,-1.923,-2.1039,-2.3462,-2.5275,-2.6499,-2.7683,-2.9466,-2.9346,-2.8988,-2.9628,-2.9754,-2.9779,-2.9804,-2.9818,-2.9818,-2.9804,-2.9818,-3.0062,-3.0782,-3.0895,-3.1193,-3.1974,-3.211,-3.211,-3.2146,-3.2182,-3.2182,-3.2182,-3.2182,-3.2391,-3.2878,-3.2932,-3.3138,-3.3657,-3.3503,-3.3401,-3.3401,-3.325,-3.3104,-3.3061,-3.3061,-3.3061,-3.3061,-3.3061,-3.3061,-3.3036,-3.2441,-3.219,-3.2139,-3.1612,-3.1386,-3.1361,-3.1361,-3.106,-3.0583,-3.0583,-3.0256,-2.9804,-2.9804,-2.9804,-2.9804,-2.9804,-2.9804,-2.9804,-2.9804,-2.9779,-2.9585,-2.8752,-2.781,-2.6853,-2.6027,-2.5147,-2.4507,-2.4507,-2.4507,-2.4507,-2.4507,-2.4507,-2.4507,-2.4507,-2.4487,-2.4444,-2.4229,-2.4166,-2.4079,-2.38,-2.3438,-2.3079,-2.2839,-2.2778,-2.2595,-2.2206,-2.1788,-2.1411,-2.1211,-2.1211,-2.1211,-2.1211,-2.1621,-2.1897,-2.1897,-2.1855,-2.1875,-2.1834,-2.2285,-2.2012,-2.1089,-2.2432,-2.2624,-2.1765,-2.2687,-2.3101,-2.2829,-2.3872,-2.4835,-2.7289,-2.817,-2.8648,-2.9631,-2.9694,-2.9453,-2.9252,-2.8925,-2.8574,-2.8197,-2.8122,-2.8247,-2.8624,-2.8976,-2.9428,-3.0088,-3.0177,-3.0139,-2.9991,-3.0338,-3.0416,-3.0028,-3.1276,-3.211,-3.211,-3.2453,-3.2492,-3.2114,-3.2842,-3.3066,-3.271,-3.3011,-3.3191,-3.3191,-3.3139,-3.3111,-3.3111,-3.3111,-3.3111,-3.3111,-3.3111,-3.3111,-3.3111,-3.2867,-3.2792,-3.2767,-3.2591,-3.229,-3.1938,-3.1938,-3.1612,-3.1135,-3.1135,-3.0783,-3.0281,-2.9905,-2.9804,-2.9804,-2.9804,-2.9804,-2.9804,-2.9804,-2.9429,-2.8752,-2.7851,-2.6935,-2.6027,-2.5147,-2.4743,-2.4464,-2.4335,-2.4292,-2.4249,-2.4057,-2.4013,-2.4013,-2.4013,-2.4013,-2.4013,-2.3927,-2.3927,-2.3841,-2.3624,-2.3393,-2.3036,-2.2655,-2.2472,-2.2369,-2.2205,-2.1963,-2.1742,-2.166,-2.166,-2.166,-2.166,-2.1797,-2.1894,-2.1894,-2.2148,-2.2009,-2.1395,-2.2351,-2.2432,-2.1493,-2.2585,-2.2599,-2.1695,-2.2006,-2.2183,-2.4557,-2.5447,-2.5988,-2.8375,-2.9098,-2.9327,-2.9704,-2.9628,-2.9327,-2.8712,-2.8047,-2.7394,-2.7077,-2.6851,-2.6992,-2.7946,-2.8398,-2.89,-2.9679,-2.9804,-2.9654,-2.9277,-2.9729,-2.993,-2.954,-3.0762,-3.1468,-3.1283,-3.1785,-3.1939,-3.1602,-3.2463,-3.2832,-3.2516,-3.2893,-3.3111,-3.3111,-3.3111,-3.3111,-3.3111,-3.3111,-3.3111,-3.3111,-3.3111,-3.3111,-3.3111,-3.3111,-3.3111,-3.3111,-3.3111,-3.2867,-3.2516,-3.2516,-3.219,-3.1687,-3.1687,-3.1361,-3.0809,-3.0281,-2.9955,-2.9804,-2.9804,-2.9804,-2.9804,-2.9804,-2.9404,-2.8712,-2.7424,-2.6689,-2.5986,-2.4743,-2.4378,-2.4335,-2.412,-2.4077,-2.4034,-2.3841,-2.3797,-2.3797,-2.3797,-2.3797,-2.3797,-2.3711,-2.3624,-2.3493,-2.3363,-2.3256,-2.3063,-2.2742,-2.2703,-2.2619,-2.2535,-2.2291,-2.2109,-2.2109,-2.2109,-2.2109,-2.2109,-2.2246,-2.2344,-2.2344,-2.2598,-2.2433,-2.1851,-2.2334,-2.229,-2.1695,-2.1961,-2.1961,-2.1695,-2.132,-2.1382,-2.4449,-2.5762,-2.7002,-2.8574,-2.9377,-2.9779,-2.9754,-2.9302,-2.8662,-2.8072,-2.7102,-2.6298,-2.6223,-2.582,-2.6013,-2.767,-2.8021,-2.8499,-2.9628,-2.9804,-2.9829,-2.9829,-3.0306,-3.0658,-3.0658,-3.0658,-3.0432,-2.9905,-3.0357,-3.0884,-3.1411,-3.1964,-3.2516,-3.3068,-3.3111,-3.3111,-3.3111,-3.3111,-3.3111,-3.3111,-3.3111,-3.3111,-3.3111,-3.3111,-3.3111,-3.3111,-3.3111,-3.3111,-3.3111,-3.3111,-3.3111,-3.3111,-3.3111,-3.2742,-3.2265,-3.2265,-3.1913,-3.1361,-3.0859,-3.0306,-2.9829,-2.9829,-2.9765,-2.9702,-2.9702,-2.9702,-2.9287,-2.7528,-2.7017,-2.6565,-2.47,-2.4206,-2.412,-2.3841,-2.3797,-2.3797,-2.3754,-2.3754,-2.3754,-2.3754,-2.3754,-2.3711,-2.3493,-2.3276,-2.3101,-2.3101,-2.3101,-2.3101,-2.3101,-2.3319,-2.3363,-2.3144,-2.2773,-2.2539,-2.2539,-2.2539,-2.2539,-2.2539,-2.2867,-2.3101,-2.3038,-2.3057,-2.3057,-2.3057,-2.2094,-2.165,-2.1695,-2.0692,-2.0692,-2.1516,-2.0557,-2.0647,-2.6214,-2.7469,-2.8499,-2.9352,-2.9679,-2.9679,-2.9252,-2.8725,-2.7821,-2.6038,-2.4725,-2.3602,-2.2401,-2.3025,-2.4148,-2.5427,-2.7042,-2.8499,-2.9628,-3.0156,-3.0407,-3.0407,0.0,-3.1185,-3.1185,-3.1185,-3.1135,-3.0984,-3.111,-3.1436,-3.1964,-3.2541,-3.2918,-3.3111,-3.3111,-3.3111,-3.3111,-3.3111,-3.3111,-3.3111,-3.3111,-3.3111,-3.3111,-3.3111,-3.3111,-3.3111,-3.3111,-3.3111,-3.3111,-3.3111,-3.3111,-3.3111,-3.3111,-3.2993,-3.2867,-3.2867,-3.2491,-3.1989,-3.1863,-3.1185,-3.0407,-3.0407,-2.9712,-2.8831,-2.8831,-2.8331,-2.7568,-2.6442,-2.6027,-2.561,-2.4487,-2.4057,-2.3841,-2.3624,-2.358,-2.3493,-2.3319,-2.3276,-2.3276,-2.3276,-2.3276,-2.3276,-2.3232,-2.3144,-2.3101,-2.3101,-2.3101,-2.3101,-2.3101,-2.3144,-2.3188,-2.3101,-2.3003,-2.2945,-2.2945,-2.2945,-2.2945,-2.2945,-2.3042,-2.2775,-2.2094,-2.205,-2.205,-2.205,-2.1096,-2.0962,-2.1695,-2.0692,-1.9968,-1.9513,-1.9285,-1.9285,-2.762,-2.8649,-2.9377,-2.9704,-2.9603,-2.9126,-2.8072,-2.7243,-2.6038,-2.3828,-2.2472,-2.1393,-2.0464,-2.1443,-2.2949,0.0,0.0,0.0,-2.9603,-3.0256,-3.0608,0.0,-3.1286,0.0,-3.1763,-3.1763,-3.1863,-3.2114,-3.1888,-3.1888,-3.219,-3.2767,-3.3111,-3.3111,-3.3111,-3.3111,-3.3111,-3.3111,-3.3111,-3.3111,-3.3111,-3.3111,-3.3111,-3.3111,-3.3111,-3.3111,-3.3111,-3.3111,-3.3111,-3.3111,-3.3025,-3.2939,-3.2939,-3.2853,-3.281,-3.2896,-3.237,-3.1644,-3.173,-3.087,-2.9851,-3.0588,-2.9877,-2.8666,-2.8545,-2.7731,-2.6648,-2.5777,-2.54,-2.5105,-2.4143,-2.3754,-2.3624,-2.3363,-2.3319,-2.3276,-2.3144,-2.3101,-2.3101,-2.3101,-2.3101,-2.3101,-2.3101,-2.3101,-2.3101,-2.3101,-2.3101,-2.3101,-2.3101,-2.3101,-2.3101,-2.3101,-2.3101,-2.3101,-2.3101,-2.3101,-2.3101,-2.3101,-2.3101,-2.2862,-2.2334,-2.2315,-2.2315,-2.2315,-2.1364,-2.1141,-2.1695,-2.0286,-1.9513,-1.9376,-1.8565,-1.838,-2.8712,-2.9402,-2.9804,-2.9804,-2.9302,-2.8373,-2.6751,-2.5435,-2.3954,-2.1644,-2.0338,-1.9535,-1.9384,-2.0413,-2.1995,-2.4199,0.0,-2.7795,-2.9553,-3.0331,-3.0708,-3.0708,-3.1662,-3.2315,-3.2315,-3.2315,-3.2541,-3.3043,-3.2616,-3.2315,-3.2315,-3.2792,-3.3111,-3.3111,-3.3111,-3.3111,-3.3111,-3.3111,-3.3111,-3.3111,-3.3111,-3.3111,-3.3111,-3.3111,-3.3111,-3.3111,-3.3068,-3.3025,-3.3025,-3.3025,-3.281,-3.2438,-3.2438,-3.2264,-3.2001,-3.222,-3.1625,-3.0711,-3.0911,-2.9983,-2.8902,-3.0302,-2.9773,-2.855,-2.8365,-2.7353,-2.6074,-2.5274,-2.4978,-2.4681,-2.3754,-2.345,-2.3363,-2.3144,-2.3101,-2.3101,-2.3101,-2.3101,-2.3101,-2.3101,-2.3101,-2.3101,-2.3101,-2.3101,-2.3101,-2.3101,-2.3101,-2.3101,-2.3101,-2.3101,-2.3101,-2.3101,-2.3101,-2.3101,-2.3101,-2.3101,-2.3101,-2.3101,-2.3101,-2.3057,-2.2906,-2.2906,-2.2906,-2.2906,-2.1872,-2.1382,-2.1516,-1.9559,-1.901,-1.9786,-1.8102,-1.7792,-2.9453,-2.9704,-2.9804,-2.9804,-2.9026,-2.7821,-2.6138,-2.4531,0.0,0.0,-1.8907,-1.8204,-1.725,-1.8731,-2.0815,-2.3045,-2.5209,-2.7379,-2.9503,-3.0633,-3.126,0.0,-3.224,-3.2918,-3.2918,-3.2918,-3.3011,-3.3111,-3.2993,-3.2918,-3.2918,-3.3018,-3.3111,-3.3111,-3.3111,-3.3111,-3.3111,-3.3111,-3.3111,-3.3111,-3.3111,-3.3111,-3.3111,-3.3111,-3.3111,-3.3068,-3.2853,-3.2766,-3.2766,-3.2593,-3.2001,-3.1202,-3.1202,-3.0711,-2.992,-2.9966,-2.9829,-2.9692,-2.967,-2.9534,-2.924,-2.9058,-2.8032,-2.6822,-2.6778,-2.5906,-2.4825,-2.4649,-2.421,-2.3734,-2.3537,-2.3319,-2.3144,-2.3101,-2.3101,-2.3101,-2.3101,-2.3101,-2.3101,-2.3101,-2.3101,-2.3101,-2.3101,-2.3101,-2.3101,-2.3101,-2.3101,-2.3101,-2.3101,-2.3101,-2.3101,-2.3101,-2.3101,-2.3101,-2.3101,-2.3101,-2.3101,-2.3101,-2.3101,-2.2731,-2.1961,-2.1917,-2.1917,-2.1917,-2.0195,-1.9695,-2.0466,-1.8503,-1.7652,-1.7777,-1.7466,-1.7372,-2.9628,-2.9804,-2.9804,-2.9804,-2.8725,-2.7092,-2.4833,0.0,0.0,0.0,-1.7478,-1.7149,-1.66,-1.808,0.0,-2.1568,-2.3477,-2.5611,-2.8122,-2.9428,-3.0432,-3.1286,-3.2432,-3.3111,-3.3111,-3.3111,-3.3111,-3.3111,-3.3111,-3.3111,-3.3111,-3.3111,-3.3111,-3.3111,-3.3111,-3.3111,-3.3111,-3.3111,-3.3111,-3.3111,-3.3111,-3.3111,-3.3111,-3.2939,-3.2896,-3.2896,-3.2636,-3.255,-3.255,-3.2444,-3.1737,-3.0666,-3.0666,-3.0011,-2.905,-2.9143,-2.8797,-2.8308,-2.8402,-2.8028,-2.7442,-2.7186,-2.6903,-2.6641,-2.6526,-2.5533,-2.438,-2.4162,-2.39,-2.3614,-2.3378,-2.3188,-2.3101,-2.3101,-2.3101,-2.3101,-2.3101,-2.3101,-2.3101,-2.3101,-2.3101,-2.3101,-2.3101,-2.3101,-2.3101,-2.3101,-2.3101,-2.3101,-2.3101,-2.3101,-2.3101,-2.3101,-2.3101,-2.3101,-2.3101,-2.3101,-2.3101,-2.3101,-2.2643,-2.2157,-2.1739,-2.1186,-2.0917,-2.0917,-2.0014,-1.9513,-1.9467,-1.8565,-1.7824,-1.7279,-1.7501,-1.7574,-2.9478,-2.9563,-2.9546,-2.9546,-2.8052,-2.5941,-2.3418,-2.1432,0.0,-1.7007,-1.6349,-1.6241,-1.6324,-1.7515,-1.8909,0.0,-2.1888,-2.3948,-2.6866,-2.8348,-2.9679,-3.121,-3.2432,0.0,-3.3111,-3.3111,-3.3162,-3.3244,-3.337,-3.337,-3.3269,-3.337,-3.337,-3.3269,-3.3244,-3.3194,-3.3111,-3.3111,-3.3111,-3.3111,-3.3025,-3.2896,-3.2655,-3.2438,-3.222,-3.1977,-3.1781,-3.1693,-3.1693,-3.1649,-3.0913,-2.9784,-2.9784,-2.9096,-2.8075,-2.8215,-2.7699,-2.6914,-2.7125,-2.6524,-2.5693,-2.5693,-2.6139,-2.6636,-2.6449,-2.5538,-2.4492,-2.416,-2.4004,-2.3848,-2.3452,-2.3374,-2.3354,-2.3257,-2.3237,-2.3198,-2.312,-2.3101,-2.3101,-2.3101,-2.3101,-2.3101,-2.3101,-2.3101,-2.3101,-2.3101,-2.3101,-2.3101,-2.3101,-2.3101,-2.3101,-2.3101,-2.3101,-2.3101,-2.3101,-2.3101,-2.3101,-2.3101,-2.2227,-2.1695,-2.1695,-2.0737,-2.0195,-2.0195,-2.0014,-1.9546,-1.8907,-1.8675,-1.8209,-1.7545,-1.7794,-1.7925,-2.8963,-2.8815,-2.8633,-2.8633,-2.651,-2.3968,-2.2297,0.0,-1.8007,-1.6752,-1.58,-1.5379,-1.58,-1.6396,-1.7509,-1.9621,-2.1308,-2.3527,-2.6851,-2.8699,-3.0131,-3.126,0.0,0.0,-3.3111,-3.3111,-3.3294,-3.3796,-3.4299,-3.4349,-3.3847,-3.4299,-3.4349,-3.3847,-3.3822,-3.3596,-3.3093,-3.3111,-3.3111,-3.3111,-3.2853,-3.2239,-3.1356,-3.1158,-3.0576,-2.9692,-2.9418,-2.9326,-2.928,-2.9143,-2.8448,-2.751,-2.751,-2.6887,-2.5965,-2.6014,-2.5917,-2.582,-2.5868,-2.5771,-2.5693,-2.5693,-2.5752,-2.5809,-2.5761,-2.5447,-2.5047,-2.5008,-2.4668,-2.4355,-2.4316,-2.4297,-2.4199,-2.3828,-2.373,-2.3633,-2.3179,-2.3101,-2.3101,-2.3101,-2.3101,-2.3101,-2.3101,-2.3101,-2.3101,-2.3101,-2.3101,-2.3101,-2.3101,-2.3101,-2.3101,-2.3101,-2.3101,-2.3101,-2.3101,-2.3101,-2.3101,-2.3101,-2.2227,-2.1695,-2.1695,-2.0737,-2.0195,-2.0195,-1.9376,-1.9047,-1.9272,-1.8339,-1.8022,-1.8218,-1.8247,-1.8262,-2.7224,-2.753,-2.7619,-2.7355,-2.5527,-2.3248,-2.129,0.0,-1.7154,-1.5729,-1.5175,-1.504,-1.522,-1.5745,-1.6524,-1.7729,-1.8972,0.0,-2.3416,-2.5535,-2.757,-2.9654,-3.1185,-3.2382,-3.3061,-3.337,-3.3796,-3.4349,-3.4856,-3.5082,-3.4856,-3.4776,-3.4625,-3.4399,-3.4399,-3.4299,-3.4073,-3.387,-3.3514,-3.2835,-3.2608,-3.1899,-3.0879,-3.0621,-3.0182,-2.9586,-2.9305,-2.9058,-2.8819,-2.8727,-2.8121,-2.7179,-2.7179,-2.66,-2.5693,-2.5693,-2.5693,-2.5693,-2.5693,-2.5693,-2.5693,-2.5693,-2.5693,-2.5693,-2.5693,-2.5557,-2.541,-2.5184,-2.4988,-2.4746,-2.4492,-2.4414,-2.4375,-2.4199,-2.416,-2.4121,-2.39,-2.3861,-2.3828,-2.3574,-2.3535,-2.3437,-2.314,-2.3101,-2.3101,-2.3101,-2.3101,-2.3101,-2.3101,-2.3101,-2.3101,-2.3101,-2.3101,-2.3101,-2.3101,-2.3101,-2.3101,-2.3101,-2.1825,-2.1088,-2.1088,-1.9776,-1.905,-1.905,-1.8667,-1.855,-1.8686,-1.8296,-1.8174,-1.8306,-1.8511,-1.8498,-2.5263,-2.5949,-2.625,-2.591,-2.4176,-2.2011,-2.0128,-1.8105,-1.6284,-1.4965,-1.456,-1.449,-1.4605,-1.5062,-1.5544,-1.6039,-1.7118,-1.8721,-2.1122,-2.3159,-2.5433,-2.8225,-2.9915,-3.134,-3.2717,-3.3771,-3.455,-3.4881,-3.5433,-3.578,-3.578,-3.5336,-3.5036,-3.4931,-3.4886,-3.4765,-3.459,-3.3995,-3.3327,-3.2559,-3.1971,-3.1162,-3.0149,-2.9856,-2.9461,-2.8897,-2.8724,-2.8437,-2.8195,-2.8068,-2.7598,-2.6975,-2.6832,-2.6332,-2.5693,-2.5693,-2.5693,-2.5693,-2.5693,-2.5693,-2.5693,-2.5693,-2.5693,-2.5693,-2.5693,-2.5693,-2.5615,-2.5352,-2.5273,-2.5195,-2.4883,-2.4758,-2.4766,-2.4648,-2.4609,-2.457,-2.4453,-2.4414,-2.4336,-2.4043,-2.3984,-2.3867,-2.353,-2.3471,-2.3471,-2.3471,-2.3471,-2.3471,-2.3471,-2.3471,-2.3471,-2.3471,-2.3204,-2.3102,-2.3296,-2.3413,-2.3471,-2.3471,-2.1841,-2.093,-2.093,-1.9233,-1.8306,-1.8306,-1.8306,-1.835,-1.8438,-1.8438,-1.8496,-1.8599,-1.8833,-1.8782,-2.3317,-2.3966,-2.4478,-2.4281,-2.2193,-1.9959,-1.8866,-1.6924,-1.5203,-1.48,-1.4003,-1.3529,-1.3954,-1.4212,-1.4549,-1.4958,-1.6238,-1.8176,-2.0904,-2.25,-2.4492,-2.7454,-2.8754,-3.0171,-3.2031,-3.4179,-3.5483,-3.5483,-3.6031,-3.6405,-3.6405,-3.6121,-3.5824,-3.5508,-3.5322,-3.491,-3.4293,-3.3002,-3.2324,-3.2277,-3.0971,-2.9808,-2.8823,-2.8616,-2.7985,-2.7012,-2.7012,-2.7012,-2.6973,-2.6613,-2.6436,-2.6328,-2.5898,-2.5693,-2.5693,-2.5693,-2.5693,-2.5693,-2.5693,-2.5693,-2.5693,-2.5693,-2.5693,-2.5693,-2.5693,-2.5693,-2.5693,-2.5674,-2.5674,-2.5674,-2.5674,-2.5674,-2.5557,-2.5176,-2.5106,-2.4988,-2.4512,-2.4414,-2.4414,-2.4414,-2.4414,-2.4414,-2.4414,-2.4414,-2.4414,-2.4414,-2.4414,-2.4414,-2.4414,-2.4414,-2.4414,-2.4414,-2.3448,-2.3047,-2.3738,-2.416,-2.4414,-2.4414,-2.251,-2.1418,-2.1418,-1.9406,-1.8306,-1.8306,-1.8306,-1.8467,-1.8789,-1.8789,-1.895,-1.9272,-1.9272,-1.9168,-1.9571,-2.033,-2.0767,-2.0107,-1.887,-1.7531,-1.6453,-1.5149,-1.4072,-1.3573,-1.331,-1.3234,-1.3354,-1.3787,-1.4528,-1.5821,-1.7026,-1.8489,-2.0358,-2.2765,-2.5074,-2.6973,-3.0335,-3.2574,-3.2775,-3.3798,-3.434,-3.3978,-3.4095,-3.4434,-3.4969,-3.4264,-3.4095,-3.4727,-3.4486,-3.3907,-3.2966,-3.24,-3.1684,-3.0932,-3.0346,-2.9497,-2.8481,-2.8396,-2.8028,-2.7461,-2.7461,-2.7285,-2.7012,-2.6875,-2.6816,-2.6777,-2.6348,-2.6191,-2.6152,-2.581,-2.5693,-2.5693,-2.5693,-2.5693,-2.5693,-2.5693,-2.5693,-2.5693,-2.5693,-2.5693,-2.5693,-2.5693,-2.5693,-2.5693,-2.5693,-2.5693,-2.5654,-2.5566,-2.5527,-2.5488,-2.5304,-2.5265,-2.5234,-2.4922,-2.4863,-2.4766,-2.4473,-2.4414,-2.4414,-2.4414,-2.4414,-2.4414,-2.4414,-2.3746,-2.3327,-2.3327,-2.2619,-2.2428,-2.3066,-2.3252,-2.2981,-2.2274,-2.19,-2.1406,-2.0638,-1.9542,-1.8964,-1.8964,-1.8964,-1.8972,-1.8867,-1.8867,-1.8925,-1.9026,-1.8593,-1.8436,-1.6618,-1.7708,-1.8395,-1.7785,-1.696,-1.6086,-1.5195,-1.4281,-1.35,-1.2993,-1.3012,-1.3085,-1.3036,-1.3382,-1.4027,-1.5062,-1.6174,-1.7535,-1.9258,-2.1542,-2.3958,-2.6322,-3.0368,-3.2772,-3.2297,-3.3102,-3.3543,-3.3055,-3.3028,-3.3227,-3.3624,-3.2905,-3.2605,-3.2855,-3.3128,-3.2928,-3.2202,-3.1564,-3.0845,-3.012,-2.9565,-2.8953,-2.8301,-2.8301,-2.8144,-2.791,-2.791,-2.7754,0.0,-2.7324,-2.7266,-2.7226,-2.6797,-2.6621,-2.6602,-2.6328,-2.6161,-2.6161,-2.6161,-2.6161,-2.6191,-2.5986,-2.583,-2.5693,-2.5693,-2.5693,-2.5693,-2.5693,-2.5693,-2.5693,-2.5693,-2.5693,-2.5693,-2.5693,-2.5693,-2.5693,-2.5693,-2.5693,-2.5615,-2.5371,-2.5312,-2.5234,-2.4961,-2.4875,-2.4875,-2.4875,-2.4875,-2.4875,-2.4875,-2.3937,-2.3297,-2.3297,-2.225,-2.166,-2.2059,-2.2479,-2.2413,-2.175,-2.1577,-2.1212,-2.0509,-1.9722,-1.9272,-1.9272,-1.9272,-1.9182,-1.8921,-1.8764,-1.8698,-1.8712,-1.8351,-1.8287,0.0,-1.5865,-1.688,-1.6675,-1.6029,-1.5305,-1.4743,-1.4004,0.0,-1.2993,-1.3012,-1.308,-1.3057,-1.3144,-1.3266,-1.3402,-1.4466,-1.5988,-1.8112,-1.9656,-2.2022,-2.5873,-2.9366,-3.1264,-3.0764,-3.2134,-3.2878,-3.2555,-3.2555,-3.2454,-3.218,-3.1898,-3.1308,-3.0307,-3.1206,-3.1717,-3.1717,-3.0432,-2.9775,-2.9775,-2.8794,-2.8301,-2.8301,-2.8301,-2.8301,-2.8301,-2.8301,-2.8301,-2.8262,-2.7924,-2.7767,-2.7728,-2.7226,-2.707,-2.7051,-2.7031,-2.7012,-2.7012,-2.7012,-2.7012,-2.6953,-2.6562,-2.6133,-2.5732,-2.5732,-2.5713,-2.5693,-2.5693,-2.5693,-2.5693,-2.5693,-2.5693,-2.5693,-2.5693,-2.5693,-2.5693,-2.5693,-2.5693,-2.5693,-2.5693,-2.5693,-2.5693,-2.5693,-2.5693,-2.5693,-2.5693,-2.5577,-2.5528,-2.5528,-2.451,-2.3782,-2.3782,-2.1979,-2.0723,-2.0723,-2.1726,-2.2333,-2.2232,-2.1387,-2.0826,-2.0739,-1.9776,-1.922,-1.922,-1.922,-1.9078,-1.886,-1.8517,-1.8412,-1.844,-1.8479,-1.8509,-1.1743,0.0,-1.3303,-1.2949,-1.2944,-1.2998,0.0,-1.293,-1.3008,-1.2935,0.0,-1.3233,-1.4187,-1.3841,-1.4181,-1.6488,-1.7357,-1.8326,-2.0055,-2.2752,-2.553,-2.8163,-3.0006,-3.0788,-3.0175,-3.0824,-3.0927,-3.0037,-2.9984,-3.0245,-3.0794,-2.9984,-2.9638,-2.9964,-2.946,-2.9164,-2.9164,-2.8847,-2.8708,-2.8654,-2.8388,-2.8301,-2.8301,-2.8301,-2.8301,-2.8301,-2.8301,-2.8301,-2.8281,-2.8184,-2.8144,-2.8105,-2.7676,-2.7571,-2.748,-2.7129,-2.7012,-2.7012,-2.7012,-2.7012,-2.6992,-2.6894,-2.6582,-2.623,-2.623,-2.5996,-2.5693,-2.5693,-2.5693,-2.5693,-2.5693,-2.5693,-2.5693,-2.5693,-2.5693,-2.5693,-2.5693,-2.5693,-2.5693,-2.5693,-2.5693,-2.5693,-2.5693,-2.5693,-2.5645,-2.543,-2.4707,-2.4097,-2.3899,-2.2165,-2.0947,-2.0947,-1.9797,-1.8982,-1.8982,-2.0364,-2.0842,-1.9828,-2.0277,-2.0122,-1.9034,-1.8736,-1.8632,-1.8632,-1.8436,-1.8404,-1.8586,-1.8265,-1.832,-1.8755,-1.8563,-1.8604,-1.0625,-1.1699,-1.273,-1.2543,-1.2773,-1.3081,-1.3081,0.0,0.0,0.0,0.0,-1.3169,-1.4043,-1.4141,-1.4766,-1.6797,-1.7969,-1.9412,-2.1646,-2.4426,-2.6657,-2.7941,-2.9327,-2.9925,-2.933,-2.9663,-2.967,-2.8973,-2.894,-2.9079,-2.9428,-2.8867,-2.8708,-2.9164,-2.8601,-2.8301,-2.8301,-2.8301,-2.8301,-2.8301,-2.8301,-2.8301,-2.8301,-2.8301,-2.8301,-2.8301,-2.8301,-2.8301,-2.8301,-2.8301,-2.8301,-2.8262,-2.8047,-2.8002,-2.793,-2.7695,-2.7598,-2.7598,-2.7598,-2.748,-2.7305,-2.7305,-2.7031,-2.6641,-2.6445,-2.623,-2.5996,-2.5752,-2.5693,-2.5693,-2.5693,-2.5693,-2.5693,-2.5693,-2.5693,-2.5693,-2.5693,-2.5693,-2.5693,-2.5693,-2.5693,-2.5693,-2.5693,-2.5596,-2.5479,-2.5333,-2.4726,-2.3998,-2.3384,-2.1828,-2.0605,-2.0076,-1.902,-1.8478,-1.8618,-1.9462,-1.9613,-1.8712,-1.9205,-1.919,-1.8422,-1.8422,-1.8492,-1.8632,-1.8519,-1.8509,-1.8673,-1.8359,-1.8385,-1.8712,-1.868,-1.8747,-1.0468,-1.2005,-1.349,-1.3178,-1.3549,-1.3977,-1.3841,0.0,0.0,0.0,0.0,0.0,-1.3789,-1.4551,-1.541,-1.6418,-1.8008,-2.0137,-2.309,-2.5149,-2.6501,-2.6784,-2.809,-2.8823,-2.8476,-2.8753,-2.8867,-2.8674,-2.8621,-2.8514,-2.8281,-2.8301,-2.8301,-2.8301,-2.8301,-2.8301,-2.8301,-2.8301,-2.8301,-2.8301,-2.8301,-2.8301,-2.8301,-2.8301,-2.8301,-2.8301,-2.8301,-2.8301,-2.8301,-2.8301,-2.8301,-2.8301,-2.8301,-2.8301,-2.8301,-2.8301,-2.8301,-2.8301,-2.8301,-2.8066,-2.7806,-2.7806,-2.7461,-2.7051,-2.6699,-2.6543,-2.6406,-2.5986,-2.5791,-2.5693,-2.5693,-2.5693,-2.5693,-2.5693,-2.5577,-2.5479,-2.5479,-2.5333,-2.5235,-2.5235,-2.5186,-2.5137,-2.5137,-2.4979,-2.482,-2.477,-2.4461,-2.3881,-2.2958,-2.1892,-2.0814,-1.9881,-1.8969,-1.8515,-1.8833,-1.8846,-1.8735,-1.8432,-1.8457,-1.8457,-1.8404,-1.8404,-1.8529,-1.8846,-1.8837,-1.8891,-1.8877,-1.8668,-1.8584,-1.8624,-1.8878,-1.8985,-1.1201,-1.2679,-1.3568,-1.1736,-1.2437,-1.3393,-1.2671,0.0,0.0,0.0,0.0,0.0,0.0,-1.6094,-1.6953,-1.8535,-2.0254,-2.2187,-2.4499,-2.5117,-2.5737,-2.6859,-2.7227,-2.7614,-2.8284,-2.8422,-2.8408,-2.8354,-2.8354,-2.8354,-2.8301,-2.8301,-2.8301,-2.8301,-2.8301,-2.8301,-2.8301,-2.8301,-2.8301,-2.8301,-2.8301,-2.8301,-2.8301,-2.8301,-2.8301,-2.8301,-2.8301,-2.8301,-2.8301,-2.8301,-2.8301,-2.8301,-2.8301,-2.8301,-2.8301,-2.8301,-2.8301,-2.8301,-2.8301,-2.8262,-2.8203,-2.8203,-2.791,-2.7559,-2.7552,-2.7207,-2.6914,-2.6836,-2.6239,-2.5693,-2.5693,-2.5693,-2.5693,-2.5693,-2.502,-2.4344,-2.4344,-2.3651,-2.3003,-2.3003,-2.2802,-2.2652,-2.2652,-2.2605,-2.25,-2.2293,-2.165,-2.1041,-2.0626,-1.9628,-1.8947,-1.8728,-1.8563,-1.8535,-1.8576,-1.8589,-1.8562,-1.8467,-1.8728,-1.8728,-1.8522,-1.8467,-1.848,-1.8589,-1.8574,-1.8666,-1.8908,-1.8851,-1.8985,-1.9239,-1.9279,-1.9305,-1.0711,-1.2154,-1.3281,-1.25,-1.3763,-1.5186,-1.5039,-1.4805,0.0,0.0,0.0,0.0,0.0,-1.75,-1.8828,-2.1016,-2.2246,-2.3418,-2.491,-2.5106,-2.5469,-2.6543,-2.6875,-2.7266,-2.7891,-2.8164,-2.8301,-2.8301,-2.8301,-2.8301,-2.8301,-2.8301,-2.8301,-2.8301,-2.8301,-2.8301,-2.8301,-2.8301,-2.8301,-2.8301,-2.8301,-2.8301,-2.8301,-2.8301,-2.8301,-2.8301,-2.8301,-2.8301,-2.8301,-2.8301,-2.8301,-2.8301,-2.8301,-2.8301,-2.8301,-2.8301,-2.8301,-2.8301,-2.8301,-2.8301,-2.8301,-2.8301,-2.8164,-2.7949,-2.7558,-2.6803,-2.6054,-2.5641,-2.5512,-2.5415,-2.5415,-2.496,-2.4503,-2.4503,-2.4146,-2.3769,-2.3769,-2.341,-2.2997,-2.279,-2.2686,-2.253,-2.2358,-2.2192,-2.2042,-2.1937,-2.1493,-2.0939,-2.0194,-1.9661,-1.9126,-1.8546,-1.849,-1.8557,-1.8704,-1.8731,-1.8651,-1.8504,-1.8601,-1.8657,-1.849,-1.8637,-1.8731,-1.8731,-1.8878,-1.9025,-1.9158,-1.9158,-1.9239,-1.943,-1.943,-1.943,-1.0088,-1.1463,-1.2879,-1.3478,-1.4876,-1.6278,-1.7051,-1.6543,-1.6163,0.0,0.0,0.0,0.0,-1.8965,-2.0684,-2.3003,-2.3711,-2.4238,-2.5098,-2.5215,-2.5508,-2.6289,-2.668,-2.7031,-2.748,-2.7793,-2.7988,-2.7988,-2.7988,-2.7988,-2.7988,-2.8086,-2.8144,-2.8144,-2.8242,-2.8301,-2.8301,-2.8301,-2.8301,-2.8301,-2.8301,-2.8301,-2.8301,-2.8301,-2.8301,-2.8301,-2.8301,-2.8301,-2.8301,-2.8301,-2.8301,-2.8301,-2.8301,-2.8301,-2.8301,-2.8301,-2.8301,-2.8301,-2.8301,-2.8301,-2.8301,-2.8247,-2.8194,-2.8062,-2.7468,-2.6414,-2.5308,-2.4757,-2.4562,-2.4509,-2.4543,-2.393,-2.3243,-2.3243,-2.3084,-2.2872,-2.2872,-2.2659,-2.2445,-2.2178,-2.2071,-2.1963,-2.1679,-2.1488,-2.1333,-2.1333,-2.1301,-2.0923,-2.0041,-1.993,-1.9612,-1.8803,-1.8691,-1.8784,-1.9011,-1.9025,-1.8931,-1.8704,-1.8691,-1.8691,-1.8691,-1.8905,-1.9025,-1.9025,-1.9252,-1.943,-1.943,-1.943,-1.943,-1.943,-1.943,-1.943,-0.9892,-1.1169,-1.2525,-1.3755,-1.419,-1.4718,-1.6375,-1.6063,0.0,-1.7578,0.0,0.0,-1.9082,-2.0547,-2.2285,-2.4043,-2.4355,-2.4687,-2.5518,-2.5635,-2.5859,-2.6328,-2.6426,-2.6602,-2.7031,-2.709,-2.7109,-2.7109,-2.7109,-2.7109,-2.7109,-2.75,-2.7767,-2.7767,-2.8086,-2.8301,-2.8301,-2.8301,-2.8301,-2.8301,-2.8301,-2.8301,-2.8301,-2.8301,-2.8301,-2.8301,-2.8301,-2.8301,-2.8301,-2.8301,-2.8301,-2.8301,-2.8301,-2.8301,-2.8301,-2.8301,-2.8301,-2.8301,-2.8301,-2.8301,-2.8247,-2.8014,-2.7906,-2.7853,-2.7492,-2.6535,-2.5572,-2.5555,-2.3994,-2.2401,-2.2608,-2.2642,-2.2589,-2.2589,-2.1802,-2.1063,-2.1063,-2.0317,-1.9607,-1.9552,-1.9346,-1.9181,-1.9181,-1.9152,-1.9104,-1.9104,-1.9405,-1.9523,-1.9479,-1.9479,-1.9421,-1.9363,-1.9363,-1.9319,-1.9332,-1.9332,-1.939,-1.9363,-1.9363,-1.9363,-1.9363,-1.9319,-1.9332,-1.9332,-1.9417,-1.943,-1.943,-1.943,-1.943,-1.943,-1.943,-1.943,-0.9059,-1.0843,-1.2776,-1.3775,-1.4878,0.0,0.0,-1.8032,-1.8633,-2.0117,-2.0547,-2.0781,-2.1211,-2.1836,-2.2754,-2.418,-2.4414,-2.468,-2.5557,-2.5693,-2.5752,-2.5957,-2.623,-2.6445,-2.6602,-2.6855,-2.7012,-2.7012,-2.7012,-2.7012,-2.7012,-2.7168,-2.7266,-2.7266,-2.7676,-2.791,-2.791,-2.8164,-2.8301,-2.8301,-2.8301,-2.8301,-2.8301,-2.8301,-2.8301,-2.8301,-2.8301,-2.8301,-2.8301,-2.8301,-2.8301,-2.8301,-2.8301,-2.8301,-2.8301,-2.8121,-2.8067,-2.8014,-2.7799,-2.7745,-2.7691,-2.7638,-2.7584,-2.7368,-2.6354,-2.5186,-2.4061,-2.3127,-2.1672,-2.073,-2.1917,-2.1689,-2.113,-2.113,-2.0808,-2.0527,-2.0527,-2.0203,-1.9864,-1.9637,-1.9523,-1.9423,-1.9253,-1.9233,-1.9199,-1.9199,-1.9292,-1.943,-1.943,-1.943,-1.943,-1.943,-1.943,-1.943,-1.943,-1.943,-1.943,-1.943,-1.943,-1.943,-1.943,-1.943,-1.943,-1.943,-1.943,-1.943,-1.943,-1.943,-1.943,-1.943,-1.943,-1.943,-0.8785,-1.0706,-1.2829,-1.3802,0.0,0.0,-1.8676,-1.9455,-2.0371,-2.1953,-2.2285,-2.2363,-2.2656,-2.2832,-2.3242,-2.4258,-2.4531,-2.4883,-2.5577,-2.5693,-2.5693,-2.5693,-2.5996,-2.6191,-2.6191,-2.6445,-2.6621,-2.6621,-2.6621,-2.6621,-2.6621,-2.6738,-2.6816,-2.6816,-2.7246,-2.7519,-2.7728,-2.7949,-2.8164,-2.8301,-2.8301,-2.8301,-2.8301,-2.8301,-2.8301,-2.8301,-2.8301,-2.8301,-2.8301,-2.8301,-2.8228,-2.8174,-2.8067,-2.8033,-2.796,-2.7799,-2.7745,-2.7691,-2.7476,-2.7368,-2.7314,-2.6862,-2.6699,-2.6409,-2.4965,-2.3671,-2.2492,-2.1445,-2.0328,-1.9707,-2.0945,-2.0615,-1.9996,-1.9996,-1.9996,-1.9996,-1.9996,-1.9996,-1.9938,-1.9707,-1.9649,-1.9649,-1.9417,-1.943,-1.943,-1.943,-1.943,-1.943,-1.943,-1.943,-1.943,-1.943,-1.943,-1.943,-1.943,-1.943,-1.943,-1.943,-1.943,-1.943,-1.943,-1.943,-1.943,-1.943,-1.943,-1.943,-1.943,-1.943,-1.943,-1.943,-1.943,-1.947,-0.9236,-1.0812,-1.268,-1.383,0.0,0.0,-1.9514,-1.9941,-2.0508,-2.2652,-2.3101,-2.3101,-2.3101,-2.3496,-2.3926,-2.4355,-2.4785,-2.5215,-2.5635,-2.5693,-2.5693,-2.5693,-2.5693,-2.5693,-2.5693,-2.5693,-2.5693,-2.5693,-2.5693,-2.5693,-2.5693,-2.6152,-2.6387,-2.6387,-2.6777,-2.7226,-2.7708,-2.7708,-2.7871,-2.8281,-2.8301,-2.8301,-2.8301,-2.8301,-2.8301,-2.8301,-2.8301,-2.8301,-2.8301,-2.8281,-2.8121,-2.7853,-2.753,-2.7368,-2.7368,-2.7368,-2.7368,-2.7368,-2.7368,-2.7368,-2.7152,-2.568,-2.5186,-2.491,-2.3424,-2.2127,-2.1174,-2.1174,-2.0328,-1.943,-1.943,-1.943,-1.943,-1.943,-1.943,-1.943,-1.943,-1.943,-1.943,-1.943,-1.943,-1.943,-1.943,-1.943,-1.943,-1.943,-1.943,-1.943,-1.943,-1.943,-1.943,-1.943,-1.943,-1.943,-1.943,-1.943,-1.943,-1.943,-1.943,-1.943,-1.943,-1.943,-1.943,-1.943,-1.943,-1.943,-1.943,-1.943,-1.943,-1.943,-1.943,-1.9533,-0.8146,-1.0476,-1.3217,-1.3973,0.0,0.0,0.0,-2.1309,0.0,0.0,-2.3379,-2.3594,-2.3594,-2.3945,-2.4375,-2.4805,-2.5028,-2.5215,-2.5635,-2.5693,-2.5693,-2.5693,-2.5693,-2.5693,-2.5693,-2.5693,-2.5693,-2.5693,-2.5693,-2.5693,-2.5693,-2.581,-2.5937,-2.5937,-2.6348,-2.6641,-2.6758,-2.7415,-2.761,-2.7516,-2.8038,-2.8301,-2.8301,-2.8301,-2.8301,-2.8301,-2.8121,-2.8014,-2.8014,-2.7745,-2.7638,-2.753,-2.7422,-2.7368,-2.7368,-2.7206,-2.7098,-2.7098,-2.6899,-2.6282,-2.5496,-2.5055,-2.4317,-2.3407,-2.2127,-2.146,-2.1002,-2.0155,-1.9649,-1.943,-1.943,-1.943,-1.943,-1.943,-1.943,-1.943,-1.943,-1.943,-1.943,-1.943,-1.943,-1.943,-1.943,-1.943,-1.943,-1.943,-1.943,-1.943,-1.943,-1.943,-1.943,-1.943,-1.943,-1.943,-1.943,-1.943,-1.943,-1.943,-1.943,-1.943,-1.943,-1.943,-1.943,-1.943,-1.943,-1.943,-1.943,-1.943,-1.943,-1.943,-1.9573,-1.972,-0.9751,-1.2019,-1.4523,-1.5716,-1.8043,-2.0463,-2.1942,-2.2298,-2.2519,-2.2984,-2.334,-2.3574,-2.3769,-2.4141,-2.4551,-2.5047,-2.5215,-2.543,-2.5654,-2.5693,-2.5693,-2.5693,-2.5693,-2.5693,-2.5693,-2.5693,-2.5693,-2.5693,-2.5693,-2.5693,-2.5693,-2.5693,-2.5693,-2.5693,-2.5898,-2.6062,-2.6237,-2.664,-2.6866,-2.6812,-2.741,-2.7728,-2.7728,-2.799,-2.8121,-2.8121,-2.7853,-2.7691,-2.7691,-2.7368,-2.726,-2.7206,-2.7116,-2.7062,-2.7062,-2.6899,-2.6554,-2.61,-2.5953,-2.5055,-2.3999,-2.3536,-2.2862,-2.2085,-2.0845,-2.05,-2.0328,-1.9591,-1.943,-1.943,-1.943,-1.943,-1.943,-1.943,-1.943,-1.943,-1.943,-1.943,-1.943,-1.943,-1.943,-1.943,-1.943,-1.943,-1.943,-1.943,-1.943,-1.943,-1.943,-1.943,-1.943,-1.943,-1.943,-1.943,-1.943,-1.943,-1.943,-1.943,-1.943,-1.943,-1.943,-1.943,-1.943,-1.943,-1.943,-1.943,-1.943,-1.9479,-1.9546,-1.9546,-1.984,-2.004,-1.2724,-1.4459,-1.6171,-1.817,-1.9315,-2.0445,-2.2318,-2.2882,-2.3057,-2.3101,-2.312,-2.3276,-2.3711,-2.416,-2.4609,-2.5047,-2.5449,-2.5693,-2.5693,-2.5693,-2.5693,-2.5693,-2.5693,-2.5693,-2.5693,-2.5693,-2.5693,-2.5693,-2.5693,-2.5645,-2.5645,-2.5645,-2.5645,-2.5645,-2.5382,-2.5476,-2.591,-2.5698,-2.5755,-2.6115,-2.6551,-2.6706,-2.6725,-2.7481,-2.7853,-2.7799,-2.7476,-2.7368,-2.7314,-2.7043,-2.6935,-2.6935,-2.6573,-2.6427,-2.6427,-2.63,-2.5569,-2.4667,-2.4667,-2.3815,-2.2636,-2.1574,-2.1117,-2.0831,-1.9707,-1.943,-1.943,-1.943,-1.943,-1.943,-1.943,-1.943,-1.943,-1.943,-1.943,-1.943,-1.943,-1.943,-1.943,-1.943,-1.943,-1.943,-1.943,-1.943,-1.943,-1.943,-1.943,-1.943,-1.943,-1.943,-1.943,-1.943,-1.943,-1.943,-1.943,-1.943,-1.943,-1.943,-1.943,-1.943,-1.943,-1.943,-1.943,-1.947,-1.947,-1.9426,-1.9452,-1.9706,-1.984,-1.984,-2.0134,-2.0414,-1.1249,-1.3504,-1.5996,-1.7912,-2.0101,-2.1944,-2.241,-2.253,-2.2662,-2.3013,-2.3418,-2.3672,-2.3769,-2.4414,-2.4961,-2.5106,-2.5449,-2.5693,-2.5693,-2.5693,-2.5693,-2.5693,-2.5693,-2.5693,-2.5693,-2.5693,-2.5693,-2.5693,-2.5479,-2.5382,-2.5382,-2.5186,-2.5088,-2.5088,-2.5039,-2.5028,-2.5123,-2.5446,-2.5503,-2.5325,-2.6012,-2.622,-2.605,-2.7047,-2.7368,-2.7206,-2.7098,-2.6954,-2.6736,-2.6682,-2.67,-2.6573,-2.5569,-2.5183,-2.5055,-2.4111,-2.3592,-2.3368,-2.3368,-2.258,-2.1517,-2.1288,-2.0558,-1.9764,-1.9488,-1.943,-1.943,-1.943,-1.943,-1.943,-1.943,-1.943,-1.943,-1.943,-1.943,-1.943,-1.943,-1.943,-1.943,-1.943,-1.943,-1.943,-1.943,-1.943,-1.943,-1.943,-1.943,-1.943,-1.943,-1.943,-1.943,-1.943,-1.943,-1.943,-1.943,-1.943,-1.943,-1.943,-1.943,-1.943,-1.943,-1.943,-1.9479,-1.9706,-1.9706,-1.9813,-2.004,-2.0107,-2.0134,-2.0147,-2.0441,-2.0615,-1.1748,-1.3899,-1.6105,-1.8704,-2.071,-2.2087,-2.222,-2.2264,-2.2353,-2.2706,-2.3055,-2.3376,-2.3435,-2.4023,-2.4465,-2.4446,-2.4819,-2.5128,-2.5198,-2.5314,-2.5488,-2.5654,-2.5596,-2.5499,-2.5499,-2.5382,-2.5333,-2.5333,-2.5186,-2.5088,-2.5088,-2.499,-2.4892,-2.4892,-2.4775,-2.4677,-2.4677,-2.4852,-2.4864,-2.4664,-2.5224,-2.554,-2.5659,-2.6536,-2.6651,-2.6271,-2.6456,-2.6441,-2.6279,-2.5666,-2.5556,-2.5624,-2.439,-2.3927,-2.3888,-2.3199,-2.2636,-2.2127,-2.2127,-2.1345,-2.0328,-2.0328,-1.9938,-1.943,-1.943,-1.943,-1.943,-1.943,-1.943,-1.943,-1.943,-1.943,-1.943,-1.943,-1.943,-1.943,-1.943,-1.943,-1.943,-1.943,-1.943,-1.943,-1.943,-1.943,-1.943,-1.943,-1.943,-1.943,-1.943,-1.943,-1.943,-1.943,-1.943,-1.9426,-1.9559,-1.9573,-1.9639,-1.9773,-1.9786,-1.9786,-1.9786,-1.9786,-1.9786,-1.98,-1.9933,-2.008,-2.0167,-2.0374,-2.0441,-2.0454,-2.0748,-2.0882,-1.2253,-1.4348,-1.644,-1.9702,-2.1028,-2.1684,-2.1954,-2.2043,-2.2087,-2.2264,-2.253,-2.2777,-2.2941,-2.3371,-2.368,-2.3613,-2.4006,-2.4346,-2.4525,-2.4725,-2.5003,-2.5324,-2.5227,-2.512,-2.512,-2.5001,-2.4892,-2.4892,-2.4892,-2.4824,-2.4824,-2.4794,-2.4794,-2.4794,-2.4529,-2.443,-2.443,-2.4301,-2.4202,-2.4202,-2.4551,-2.4798,-2.4902,-2.5564,-2.5548,-2.512,-2.5447,-2.5521,-2.5254,-2.4272,-2.406,-2.4288,-2.3047,-2.2645,-2.2636,-2.2467,-2.1744,-2.0888,-2.0888,-2.0213,-1.943,-1.943,-1.943,-1.943,-1.943,-1.943,-1.943,-1.943,-1.943,-1.943,-1.943,-1.943,-1.943,-1.943,-1.943,-1.943,-1.943,-1.943,-1.943,-1.943,-1.943,-1.943,-1.943,-1.943,-1.943,-1.943,-1.943,-1.943,-1.943,-1.943,-1.943,-1.943,-1.947,-1.9546,-1.9773,-1.984,-1.9973,-2.0214,-2.0167,-2.0167,-2.0167,-2.0281,-2.0201,-1.996,-2.0187,-2.0334,-2.0388,-2.0628,-2.0748,-2.0762,-2.1002,-2.1109,-0.9857,0.0,-1.6973,-1.9775,-2.0851,-2.1291,-2.1658,-2.1731,-2.1776,-2.1776,-2.2132,-2.246,-2.2473,-2.2865,-2.3176,-2.3188,-2.3537,-2.3784,-2.3841,-2.3841,-2.3926,-2.3983,-2.4231,-2.4411,-2.4411,-2.4733,-2.4892,-2.4892,-2.4677,-2.4529,-2.4529,-2.4399,-2.4301,-2.4301,-2.4251,-2.4251,-2.4251,-2.4202,-2.4202,-2.4202,-2.4257,-2.3813,-2.2892,-2.3323,-2.3687,-2.3947,-2.4,-2.3504,-2.2596,-2.2436,-2.2538,-2.2695,-2.1476,-2.1207,-2.1288,-2.027,-1.9764,-1.9649,-1.9649,-1.9533,-1.943,-1.943,-1.943,-1.943,-1.943,-1.943,-1.943,-1.943,-1.943,-1.943,-1.943,-1.943,-1.943,-1.943,-1.943,-1.943,-1.943,-1.943,-1.943,-1.943,-1.943,-1.943,-1.943,-1.943,-1.943,-1.943,-1.943,-1.943,-1.943,-1.943,-1.943,-1.943,-1.9586,-1.976,-1.98,-2.0027,-2.0127,-2.0227,-2.0167,-2.0167,-2.0167,-2.0481,-2.0601,-2.0561,-2.0601,-2.0735,-2.0989,-2.1029,-2.1056,-2.1056,-2.1096,-2.1109,-1.0538,-1.3587,-1.6563,-1.9155,-2.0301,-2.0888,-2.1291,-2.1522,-2.1687,-2.1687,-2.1865,-2.1998,-2.1998,-2.237,-2.2617,-2.2367,-2.2678,-2.3021,-2.311,-2.3285,-2.3472,-2.3653,-2.3702,-2.372,-2.372,-2.3951,-2.4096,-2.4096,-2.427,-2.435,-2.435,-2.4251,-2.4202,-2.4202,-2.4202,-2.4202,-2.4202,-2.4202,-2.3904,-2.3238,-2.2619,-2.2114,-2.1607,-2.1771,-2.1971,-2.2119,-2.2386,-2.2205,-2.1677,-2.1055,-2.0986,-2.1143,-2.013,-1.9779,-1.9861,-1.9537,-1.943,-1.943,-1.943,-1.943,-1.943,-1.943,-1.943,-1.943,-1.943,-1.943,-1.943,-1.943,-1.943,-1.943,-1.943,-1.943,-1.943,-1.943,-1.943,-1.943,-1.943,-1.943,-1.943,-1.943,-1.943,-1.943,-1.943,-1.943,-1.943,-1.943,-1.943,-1.943,-1.943,-1.943,-1.9484,-1.9586,-1.972,-1.9933,-2.0267,-2.0414,-2.0548,-2.0708,-2.0722,-2.0722,-2.0722,-2.0842,-2.0922,-2.0922,-2.0922,-2.0989,-2.1109,-2.1109,-2.1109,-2.1109,-2.1109,-2.1109,-1.0653,0.0,-1.4783,-1.7658,-1.9022,-1.9833,-2.0454,-2.1098,-2.1514,-2.1382,-2.1553,-2.1687,-2.1687,-2.1998,-2.2087,-2.1776,-2.1998,-2.2288,-2.2407,-2.2644,-2.2847,-2.3148,-2.3121,-2.3057,-2.3057,-2.3238,-2.3352,-2.3352,-2.3767,-2.4005,-2.4005,-2.4146,-2.4202,-2.4202,-2.4202,-2.4053,-2.3786,-2.3488,-2.292,-2.2064,-2.1285,-2.0723,-2.0467,-2.0467,-2.0313,-2.0071,-2.068,-2.0736,-2.0422,-1.9541,-1.937,-1.9631,-1.8945,-1.8741,-1.8945,-1.9172,-1.9305,-1.943,-1.943,-1.943,-1.943,-1.943,-1.943,-1.943,-1.943,-1.943,-1.943,-1.943,-1.943,-1.943,-1.943,-1.943,-1.943,-1.943,-1.943,-1.943,-1.943,-1.943,-1.943,-1.943,-1.943,-1.943,-1.943,-1.943,-1.943,-1.943,-1.9484,-1.9479,-1.9479,-1.9546,-1.9666,-1.988,-1.9973,-2.0201,-2.0641,-2.0748,-2.0882,-2.1096,-2.1109,-2.1109,-2.1109,-2.1109,-2.1109,-2.1109,-2.1109,-2.1109,-2.1109,-2.1109,-2.1109,-2.1109,-2.1109,-2.1109,-0.8571,-0.9626,-1.0936,-1.4802,-1.6651,-1.7768,-1.8938,-2.0207,-2.0974,-2.0504,-2.1087,-2.1687,-2.1687,-2.1731,-2.1731,-2.1687,-2.1731,-2.175,-2.1768,-2.1768,-2.1768,-2.1805,-2.2135,-2.2355,-2.2355,-2.2693,-2.2931,-2.2931,-2.3297,-2.3535,-2.3535,-2.395,-2.4202,-2.4202,-2.4202,-2.3687,-2.2568,-2.1607,-2.1046,-2.0979,-2.0944,-2.0313,-1.928,-1.928,-1.8722,-1.7845,-1.8893,-1.8736,-1.782,-1.7753,-1.7889,-1.8117,-1.809,-1.8382,-1.8931,-1.8945,-1.9132,-1.943,-1.943,-1.943,-1.943,-1.943,-1.943,-1.943,-1.943,-1.943,-1.943,-1.943,-1.943,-1.943,-1.943,-1.943,-1.943,-1.943,-1.943,-1.943,-1.943,-1.943,-1.943,-1.943,-1.943,-1.943,-1.943,-1.943,-1.943,-1.943,-1.9599,-1.9773,-1.9773,-2.0013,-2.0127,-2.0214,-2.0468,-2.0641,-2.0668,-2.0922,-2.1096,-2.1109,-2.1109,-2.1109,-2.1109,-2.1109,-2.1109,-2.1109,-2.1109,-2.1109,-2.1109,-2.1109,-2.1109,-2.1109,-2.1109,-2.1109,-0.8038,0.0,-1.0238,-1.2999,-1.4596,-1.5738,-1.6591,-1.7945,-1.8976,-1.8803,-1.9334,-1.9849,-1.9849,-2.0348,-2.0997,-2.1597,-2.1177,-2.0997,-2.1597,-2.1687,-2.1687,-2.1687,-2.1815,-2.1906,-2.1906,-2.1703,-2.1842,-2.2464,-2.2339,-2.2583,-2.3432,-2.3024,-2.2825,-2.307,-2.2417,-2.1912,-2.1505,-2.0364,-1.9797,-1.9797,-1.9124,-1.8565,-1.8146,-1.8146,-1.7937,-1.7635,-1.7989,-1.7937,-1.7582,-1.7582,-1.7649,-1.7769,-1.7916,-1.8235,-1.8664,-1.8851,-1.9118,-1.943,-1.943,-1.943,-1.943,-1.943,-1.943,-1.943,-1.943,-1.943,-1.943,-1.943,-1.943,-1.943,-1.943,-1.943,-1.943,-1.943,-1.943,-1.943,-1.943,-1.943,-1.943,-1.943,-1.943,-1.943,-1.943,-1.943,-1.9439,-1.9613,-1.9733,-1.9867,-2.0054,-2.0174,-2.0307,-2.0494,-2.0615,-2.0748,-2.0935,-2.1042,-2.1109,-2.1109,-2.1109,-2.1109,-2.1109,-2.1109,-2.1109,-2.1109,-2.0919,-2.0856,-2.1109,-2.1109,-2.1109,-2.1109,-2.1109,-2.0982,-0.7268,-0.8091,0.0,-1.1452,-1.2658,-1.3651,-1.4836,-1.6206,-1.7269,-1.7278,-1.7995,-1.8621,-1.8621,-1.8975,-1.9621,-2.0591,-2.0212,-2.0121,-2.1087,-2.1221,-2.1374,-2.1642,-2.1687,-2.1597,-2.1266,-2.0909,-2.0819,-2.1094,-2.093,-2.1159,-2.2088,-2.1652,-2.1561,-2.1946,-2.0877,-2.0313,-2.0313,-1.9228,-1.8655,-1.8655,-1.7937,-1.7582,-1.7582,-1.7582,-1.7582,-1.7582,-1.7582,-1.7582,-1.7582,-1.7582,-1.7582,-1.7609,-1.7929,-1.8169,-1.8531,-1.8811,-1.9118,-1.943,-1.943,-1.943,-1.943,-1.943,-1.943,-1.943,-1.943,-1.943,-1.943,-1.943,-1.943,-1.943,-1.943,-1.943,-1.943,-1.943,-1.943,-1.943,-1.943,-1.943,-1.943,-1.943,-1.943,-1.943,-1.943,-1.9394,-1.941,-1.9595,-1.9734,-1.9797,-1.9994,-2.0099,-2.023,-2.049,-2.0516,-2.0595,-2.0906,-2.0856,-2.0856,-2.1109,-2.0919,-2.0792,-2.0919,-2.0792,-2.0729,-2.0729,-2.0552,-2.0539,-2.0729,-2.0729,-2.0729,-2.0729,-2.0729,-2.0602,0.0,0.0,0.0,-1.0078,-1.0805,-1.1496,-1.3674,-1.5042,-1.5872,-1.5893,-1.7106,-1.8163,-1.8195,-1.7674,-1.7544,-1.8549,-1.8734,-1.9117,-2.0121,-2.0257,-2.0574,-2.1508,-2.1597,-2.1266,-2.0348,-2.0257,-1.9832,-1.8888,-1.9144,-1.9383,-1.9399,-2.002,-2.0512,-2.0759,-1.9746,-1.9176,-1.9176,-1.8094,-1.7582,-1.7582,-1.7582,-1.7582,-1.7582,-1.7582,-1.7582,-1.7582,-1.7582,-1.7582,-1.7582,-1.7582,-1.7582,-1.7609,-1.7929,-1.8169,-1.8531,-1.8811,-1.9118,-1.943,-1.943,-1.943,-1.943,-1.943,-1.943,-1.943,-1.943,-1.943,-1.943,-1.943,-1.943,-1.943,-1.943,-1.943,-1.943,-1.943,-1.943,-1.943,-1.943,-1.9372,-1.9372,-1.943,-1.9372,-1.9372,-1.9386,-1.9318,-1.9278,-1.9291,-1.9527,-1.9699,-1.9712,-1.9941,-2.0106,-2.0106,-2.0106,-2.0234,-2.0552,-2.0297,-2.0361,-2.1046,-2.0488,-2.0234,-2.0539,-2.0297,-2.0106,-2.0106,-2.0106,-2.0106,-2.0106,-2.0106,-2.0106,-2.0106,-2.0106,-1.9915,-0.629,0.0,0.0,0.0,0.0,0.0,-1.0375,-1.154,-1.2636,-1.3505,-1.4349,-1.512,-1.5798,-1.5906,-1.6021,-1.6285,-1.7118,-1.8056,-1.9055,-1.9209,-1.9301,-1.9575,-1.9621,-1.9484,-1.9255,-1.8565,-1.8334,-1.8796,-1.8241,-1.8347,-1.9335,-1.9284,-1.8941,-1.8226,-1.8088,-1.8042,-1.8042,-1.774,-1.7582,-1.7582,-1.7582,-1.7582,-1.7582,-1.7582,-1.7582,-1.7582,-1.7582,-1.7582,-1.7582,-1.7582,-1.7582,-1.7609,-1.7929,-1.8169,-1.8531,-1.8811,-1.9118,-1.943,-1.943,-1.943,-1.943,-1.943,-1.943,-1.943,-1.943,-1.943,-1.943,-1.943,-1.943,-1.943,-1.943,-1.943,-1.943,-1.943,-1.943,-1.943,-1.943,-1.9185,-1.9127,-1.9359,-1.9185,-1.9134,-1.9286,-1.9094,-1.9095,-1.9517,-1.966,-1.9763,-1.9966,-2.0055,-2.0106,-2.0106,-2.0106,-2.017,-2.0234,-2.017,-2.017,-2.0361,-2.017,-2.017,-2.0234,-2.017,-2.0106,-2.0106,-1.9839,-1.9711,-1.9711,-1.9979,-2.0106,-2.0106,-1.9839,-1.9711,-0.6847,0.0,0.0,-0.7872,0.0,0.0,-0.9579,-1.0221,-1.0929,-1.202,-1.2665,-1.332,-1.4095,-1.4469,-1.475,-1.499,-1.5773,-1.6788,-1.8025,-1.8149,-1.8334,-1.875,-1.8796,-1.8657,-1.8195,-1.7652,-1.7372,-1.7544,-1.6998,-1.7079,-1.8052,-1.79,-1.7594,-1.7192,-1.7367,-1.7514,-1.7582,-1.7582,-1.7582,-1.7582,-1.7582,-1.7582,-1.7582,-1.7582,-1.7582,-1.7582,-1.7582,-1.7582,-1.7582,-1.7582,-1.7649,-1.7796,-1.8103,-1.841,-1.8704,-1.8998,-1.9225,-1.943,-1.943,-1.943,-1.943,-1.943,-1.943,-1.943,-1.943,-1.943,-1.943,-1.943,-1.943,-1.943,-1.943,-1.943,-1.943,-1.943,-1.943,-1.9372,-1.9243,-1.9055,-1.8939,-1.9127,-1.8939,-1.8797,-1.9034,-1.8936,-1.8922,-1.9362,-1.9475,-1.9486,-1.9635,-1.966,-1.966,-1.966,-1.966,-1.9724,-1.9915,-1.9775,-1.9788,-2.0106,-1.9851,-1.9724,-1.9903,-1.9788,-1.966,-1.966,-1.952,-1.9392,-1.9392,-1.9584,-1.966,-1.966,-1.9456,-1.9392,-0.7762,0.0,0.0,-0.8964,-0.8845,0.0,-1.0077,-1.018,-1.0239,-1.1082,-1.169,-1.2251,-1.2893,-1.324,-1.3613,-1.4148,-1.4589,-1.5386,-1.6901,-1.7124,-1.7466,-1.838,-1.8473,-1.8102,-1.7232,-1.7138,-1.6763,-1.5879,-1.5784,-1.5939,-1.6206,-1.6308,-1.6576,-1.7139,-1.7179,-1.734,-1.7582,-1.7582,-1.7582,-1.7582,-1.7582,-1.7582,-1.7582,-1.7582,-1.7582,-1.7582,-1.7582,-1.7582,-1.7582,-1.7582,-1.7756,-1.805,-1.837,-1.8664,-1.8958,-1.9252,-1.943,-1.943,-1.943,-1.943,-1.943,-1.943,-1.943,-1.943,-1.943,-1.943,-1.943,-1.943,-1.943,-1.943,-1.943,-1.943,-1.9372,-1.9359,-1.9359,-1.9243,-1.8939,-1.8823,-1.8823,-1.8823,-1.8532,-1.8458,-1.8762,-1.8726,-1.8742,-1.9037,-1.9106,-1.9072,-1.9072,-1.9072,-1.9072,-1.9072,-1.9072,-1.92,-1.9507,-1.9264,-1.9328,-1.9979,-1.9456,-1.92,-1.952,-1.9264,-1.9072,-1.9072,-1.9072,-1.9072,-1.9072,-1.9072,-1.9072,-1.9072,-1.9072,-1.9072,-0.888,-0.9146,-0.9508,-0.8802,-0.9086,0.0,-0.8951,-0.9159,-0.9636,-1.0226,-1.0461,-1.0795,-1.1588,-1.2211,-1.2518,-1.2412,-1.344,-1.4636,-1.564,-1.5953,-1.615,-1.6339,-1.6386,-1.6292,-1.6103,-1.6103,-1.6021,-1.5832,-1.5784,-1.5811,-1.5912,-1.6139,-1.6433,-1.678,-1.7072,-1.734,-1.7582,-1.7582,-1.7582,-1.7582,-1.7582,-1.7582,-1.7582,-1.7582,-1.7582,-1.7582,-1.7582,-1.7582,-1.7582,-1.7582,-1.7769,-1.8009,-1.837,-1.8664,-1.8958,-1.9252,-1.943,-1.943,-1.943,-1.943,-1.943,-1.943,-1.943,-1.943,-1.943,-1.943,-1.943,-1.943,-1.943,-1.943,-1.943,-1.943,-1.9301,-1.9055,-1.8997,-1.8881,-1.859,-1.8311,-1.8194,-1.8194,-1.8135,-1.8239,-1.8665,-1.8557,-1.8506,-1.9054,-1.91,-1.9072,-1.9072,-1.9072,-1.9072,-1.9072,-1.9072,-1.9136,-1.92,-1.9136,-1.9136,-1.9264,-1.9136,-1.9136,-1.92,-1.9136,-1.9072,-1.9072,-1.9072,-1.9072,-1.9072,-1.9072,-1.9072,-1.9072,-1.9072,-1.9072,-0.9654,-0.9693,-0.9952,-0.9547,-0.9483,0.0,0.0,-0.894,-0.9066,-0.9843,-0.9768,-0.9873,-1.0989,-1.1329,-1.1511,-1.1623,-1.2639,-1.3561,-1.3814,-1.475,-1.5391,-1.5391,-1.5391,-1.5458,-1.5605,-1.5618,-1.5671,-1.5771,-1.5784,-1.5784,-1.5784,-1.5965,-1.6192,-1.6486,-1.678,-1.7125,-1.742,-1.7515,-1.7582,-1.7582,-1.7582,-1.7582,-1.7582,-1.7582,-1.7582,-1.7582,-1.7582,-1.7582,-1.7582,-1.7582,-1.7849,-1.829,-1.8437,-1.8758,-1.9158,-1.9319,-1.943,-1.943,-1.943,-1.943,-1.943,-1.943,-1.943,-1.943,-1.943,-1.943,-1.943,-1.943,-1.943,-1.9372,-1.9185,-1.9127,-1.9068,-1.8706,-1.8648,-1.859,-1.8252,-1.8077,-1.8009,-1.7956,-1.7921,-1.8056,-1.8459,-1.852,-1.8625,-1.9012,-1.9072,-1.9072,-1.9072,-1.9072,-1.9072,-1.9072,-1.9072,-1.9072,-1.9072,-1.9072,-1.9072,-1.9072,-1.9072,-1.9072,-1.9072,-1.9072,-1.9072,-1.9072,-1.9072,-1.9072,-1.9072,-1.9072,-1.9072,-1.9072,-1.9072,-1.9072,-1.0568,-1.043,-1.0594,-1.0392,-1.0059,-0.9716,0.0,0.0,0.0,-0.9538,-0.932,-0.9352,-1.0491,-1.0555,-1.0559,-1.0909,-1.1797,-1.2328,-1.1931,-1.332,-1.4459,-1.4566,-1.474,-1.4928,-1.5124,-1.5097,-1.5271,-1.5744,-1.5618,-1.5591,-1.5771,-1.5784,-1.5965,-1.6308,-1.6553,-1.6847,-1.7192,-1.7487,-1.7582,-1.7582,-1.7582,-1.7582,-1.7582,-1.7582,-1.7582,-1.7582,-1.7582,-1.7582,-1.7582,-1.7649,-1.7996,-1.849,-1.849,-1.8851,-1.943,-1.943,-1.943,-1.943,-1.943,-1.943,-1.943,-1.943,-1.943,-1.943,-1.943,-1.943,-1.9372,-1.9301,-1.9301,-1.9243,-1.8881,-1.8823,-1.8706,-1.8428,-1.8311,-1.8252,-1.796,-1.7914,-1.7929,-1.7889,-1.7913,-1.8046,-1.8324,-1.8541,-1.877,-1.9036,-1.9072,-1.9072,-1.9072,-1.9072,-1.9072,-1.9072,-1.9072,-1.9072,-1.9072,-1.9072,-1.9072,-1.9072,-1.9072,-1.9072,-1.9072,-1.9072,-1.9072,-1.9072,-1.9072,-1.9072,-1.9072,-1.9072,-1.9072,-1.9072,-1.9072,-1.9072,-1.2133,-1.2363,-1.2492,-1.0582,-1.0987,-1.1288,-0.9045,0.0,-0.9207,-0.8966,0.0,-0.9112,-0.9519,0.0,0.0,-0.9497,-1.0448,-1.0995,-1.0448,-1.1436,-1.2449,-1.2971,-1.3735,-1.4202,-1.4229,-1.4001,-1.4346,-1.5678,-1.487,-1.4736,-1.5731,-1.5784,-1.5965,-1.6308,-1.6553,-1.6847,-1.7192,-1.7487,-1.7582,-1.7582,-1.7582,-1.7582,-1.7582,-1.7582,-1.7582,-1.7582,-1.7582,-1.7582,-1.7609,-1.7862,-1.817,-1.849,-1.849,-1.8851,-1.943,-1.943,-1.943,-1.943,-1.943,-1.943,-1.943,-1.943,-1.943,-1.943,-1.943,-1.943,-1.9359,-1.9055,-1.8939,-1.8881,-1.8532,-1.8473,-1.8357,-1.8089,-1.8031,-1.7972,-1.7608,-1.755,-1.7622,-1.7877,-1.807,-1.8336,-1.8589,-1.8662,-1.877,-1.9036,-1.9072,-1.9072,-1.9072,-1.9072,-1.9072,-1.9072,-1.9072,-1.9072,-1.9072,-1.9072,-1.9072,-1.9072,-1.9072,-1.9072,-1.9072,-1.9072,-1.9072,-1.9072,-1.9072,-1.9072,-1.9072,-1.9072,-1.9072,-1.9072,-1.9072,-1.9072,-1.2583,-1.2724,-1.2772,-1.1387,-1.1162,-1.0909,-0.9342,-0.887,-0.882,-0.9099,0.0,0.0,0.0,0.0,0.0,0.0,-0.9956,-1.0221,-0.9459,-1.0367,-1.1363,-1.1904,-1.2318,-1.2746,-1.3293,-1.3507,-1.3933,-1.4763,-1.4362,-1.4456,-1.5284,-1.5645,-1.5838,-1.6005,-1.646,-1.6767,-1.6887,-1.7355,-1.7582,-1.7582,-1.7582,-1.7582,-1.7582,-1.7582,-1.7582,-1.7582,-1.7582,-1.7582,-1.7609,-1.7903,-1.821,-1.8504,-1.8677,-1.8998,-1.943,-1.943,-1.943,-1.9372,-1.9185,-1.9127,-1.9068,-1.8894,-1.8836,-1.8836,-1.8836,-1.8836,-1.8777,-1.8648,-1.859,-1.8532,-1.8252,-1.8194,-1.8077,-1.7784,-1.7726,-1.7667,-1.7537,-1.7479,-1.7612,-1.8034,-1.8215,-1.842,-1.8843,-1.8915,-1.8951,-1.906,-1.9072,-1.9072,-1.9072,-1.9072,-1.9072,-1.9072,-1.9072,-1.9072,-1.9072,-1.9072,-1.9072,-1.9072,-1.9072,-1.9072,-1.9072,-1.9072,-1.9072,-1.9072,-1.9072,-1.9072,-1.9072,-1.9072,-1.9072,-1.9072,-1.9072,-1.9072,-1.3103,-1.3082,-1.3035,-1.169,-1.1112,-1.0585,-0.95,-0.9006,-0.894,-0.9369,-0.9579,0.0,0.0,0.0,-0.9604,-0.9366,0.0,-0.9596,-0.8804,-0.9548,-1.0296,-1.0643,-1.0995,-1.1503,-1.2342,-1.2559,-1.296,-1.3788,-1.3547,-1.3828,-1.4955,-1.5364,-1.5658,-1.5784,-1.6393,-1.67,-1.67,-1.7288,-1.7582,-1.7582,-1.7582,-1.7582,-1.7582,-1.7582,-1.7582,-1.7582,-1.7582,-1.7582,-1.7609,-1.7888,-1.8125,-1.8406,-1.8665,-1.8884,-1.9127,-1.9243,-1.9185,-1.9068,-1.8823,-1.8765,-1.8706,-1.8473,-1.8415,-1.8415,-1.8415,-1.8415,-1.8357,-1.8311,-1.8311,-1.8194,-1.796,-1.7843,-1.7784,-1.755,-1.7479,-1.7479,-1.7479,-1.7539,-1.7732,-1.8203,-1.8348,-1.8541,-1.9,-1.9072,-1.9072,-1.9072,-1.9072,-1.9072,-1.9072,-1.9072,-1.9072,-1.9072,-1.9072,-1.9072,-1.9072,-1.9072,-1.9072,-1.9072,-1.9072,-1.9072,-1.9072,-1.9072,-1.9072,-1.9072,-1.9072,-1.9072,-1.9072,-1.9072,-1.9072,-1.9072,-1.9072,-1.9072,-1.4001,-1.4008,-1.3659,-1.1155,-1.0914,-1.0848,-0.9182,-0.9466,-0.9977,-0.9734,-1.0354,-1.0738,-1.0116,-0.9787,-0.9525,-0.9246,-0.9237,0.0,0.0,-0.8785,-0.8999,-0.8898,-0.993,-1.0854,-1.1375,-1.0683,-1.1062,-1.3093,-1.2171,-1.2518,-1.4888,-1.5022,-1.5244,-1.5758,-1.6393,-1.67,-1.67,-1.7288,-1.7582,-1.7582,-1.7582,-1.7582,-1.7582,-1.7582,-1.7582,-1.7582,-1.7582,-1.7582,-1.7622,-1.7882,-1.8007,-1.803,-1.8301,-1.8415,-1.8473,-1.8823,-1.8706,-1.8415,-1.8415,-1.8415,-1.8415,-1.8415,-1.8415,-1.8415,-1.8415,-1.8415,-1.8369,-1.8089,-1.8031,-1.7972,-1.7608,-1.7537,-1.7479,-1.7479,-1.7479,-1.7479,-1.7479,-1.7684,-1.795,-1.8239,-1.8505,-1.8758,-1.9024,-1.9072,-1.9072,-1.9072,-1.9072,-1.9072,-1.9072,-1.9072,-1.9072,-1.9072,-1.9072,-1.9072,-1.9072,-1.9072,-1.9072,-1.9072,-1.9072,-1.9072,-1.9072,-1.9072,-1.9072,-1.9072,-1.9072,-1.9072,-1.9072,-1.9072,-1.9072,-1.9072,-1.9072,-1.9072,-1.4678,-1.4792,-1.455,-1.2569,-1.1901,-1.1313,-0.9806,-0.9742,-0.9843,-0.9389,-1.0209,-1.0729,-0.9831,-0.9644,-0.9478,-0.9128,-0.8985,-0.8724,0.0,-0.8177,-0.8345,-0.8527,-0.9557,-1.0163,-0.9903,-1.0,-1.0504,-1.1523,-1.1695,-1.2412,-1.4001,-1.483,-1.5337,-1.5538,-1.6299,-1.67,-1.67,-1.7288,-1.7582,-1.7582,-1.7582,-1.7529,-1.7331,-1.7331,-1.7213,-1.7001,-1.7001,-1.7001,-1.704,-1.7511,-1.7755,-1.7764,-1.8256,-1.8311,-1.8194,-1.8473,-1.8473,-1.8357,-1.8194,-1.8018,-1.7772,-1.7772,-1.7772,-1.7772,-1.7772,-1.7772,-1.7772,-1.7667,-1.7667,-1.7667,-1.7537,-1.7479,-1.7479,-1.7479,-1.7479,-1.7479,-1.7479,-1.7684,-1.7962,-1.8239,-1.8505,-1.877,-1.9024,-1.9072,-1.9072,-1.9072,-1.9072,-1.9072,-1.9072,-1.9072,-1.9072,-1.9072,-1.9072,-1.9072,-1.9072,-1.9072,-1.9072,-1.9072,-1.9072,-1.9072,-1.9072,-1.9072,-1.9072,-1.9072,-1.9072,-1.9072,-1.9072,-1.9072,-1.9072,-1.9072,-1.9072,-1.9072,-1.5092,-1.5166,-1.4935,-1.342,-1.2726,-1.204,-1.0632,-1.0585,-1.0657,-1.0097,-1.0545,-1.0945,-1.0651,-0.9965,-0.9395,-0.9346,-0.8937,-0.8486,0.0,-0.7998,-0.8087,-0.8369,-0.9047,-0.9357,-0.8975,-0.9185,-0.9672,-1.0494,-1.1062,-1.1975,-1.3373,-1.4509,-1.5177,-1.5391,-1.6246,-1.67,-1.67,-1.7288,-1.7582,-1.7582,-1.7477,-1.7384,-1.7173,-1.7067,-1.6895,-1.6683,-1.6683,-1.6734,-1.6873,-1.7287,-1.7471,-1.761,-1.7948,-1.796,-1.7843,-1.8135,-1.8194,-1.8064,-1.7901,-1.7667,-1.7479,-1.7479,-1.7479,-1.7479,-1.7479,-1.7479,-1.7479,-1.7479,-1.7479,-1.7479,-1.7479,-1.7479,-1.7479,-1.7479,-1.7479,-1.7503,-1.7599,-1.7829,-1.8106,-1.8384,-1.865,-1.8879,-1.9048,-1.9072,-1.9072,-1.9072,-1.9072,-1.9072,-1.9072,-1.9072,-1.9072,-1.9072,-1.9072,-1.9072,-1.9072,-1.9072,-1.9072,-1.9072,-1.9072,-1.9072,-1.9072,-1.9072,-1.9072,-1.9072,-1.9072,-1.9072,-1.9072,-1.9072,-1.9072,-1.9072,-1.9072,-1.9072]},{"header":{"parameterUnit":"m.s-1","parameterCategory":1,"la1":30.6,"la2":29.2853,"lo1":-89.7004,"lo2":-87.6739,"dy":0.0162,"dx":0.0183,"nx":112,"ny":82,"refTime":"2024-09-18T06:00:00:Z","depth":0,"parameterNumber":3,"parameterNumberName":"V-component_of_WINDS"},"data":[0.0,0.0,0.0,0.0,0.0,0.0,0.0,0.0,0.0,0.0,0.0,0.0,0.0,0.0,0.0,0.0,0.0,0.0,0.0,0.0,0.0,0.0,0.0,0.0,0.0,0.0,0.0,0.0,0.0,0.0,0.0,0.0,0.0,0.0,0.0,0.0,0.0,0.0,0.0,0.0,0.0,0.0,0.0,0.0,0.0,0.0,0.0,0.0,0.0,0.0,0.0,0.0,0.0,0.0,0.0,0.0,0.0,0.0,0.0,0.0,0.0,0.0,0.0,0.0,0.0,0.0,0.0,0.0,0.0,0.0,0.0,0.0,0.0,0.0,0.0,0.0,0.0,0.0,0.0,0.0,0.0,0.0,0.0,0.0,0.0,0.0,0.0,0.0,0.0,0.0,1.413,1.6725,1.8419,1.9458,1.9722,1.932,1.7761,1.4734,0.0,0.0,0.0,0.0,0.0,0.0,0.0,0.0,0.0,0.0,0.0,0.0,0.0,0.0,0.0,0.0,0.0,0.0,0.0,0.0,0.0,0.0,0.0,0.0,0.0,0.0,0.0,0.0,0.0,0.0,0.0,0.0,0.0,0.0,0.0,0.0,0.0,0.0,0.0,0.0,0.0,0.0,0.0,0.0,0.0,0.0,0.0,0.0,0.0,0.0,0.0,0.0,0.0,0.0,0.0,0.0,0.0,0.0,0.0,0.0,0.0,0.0,0.0,0.0,0.0,0.0,0.0,0.0,0.0,0.0,0.0,0.0,0.0,0.0,0.0,0.0,0.0,0.0,0.0,0.0,0.0,0.0,0.0,0.0,0.0,0.0,0.0,0.0,0.0,0.0,0.0,0.0,0.0,0.0,0.0,0.0,0.0,0.0,0.0,0.0,0.0,0.0,0.0,0.0,1.4874,1.8795,2.0057,2.0438,1.9987,2.0017,1.8551,1.4985,0.0,0.0,0.0,0.0,0.0,0.0,0.0,0.0,0.0,0.0,0.0,0.0,0.0,0.0,0.0,0.0,0.0,0.0,0.0,0.0,0.0,0.0,0.0,0.0,0.0,0.0,0.0,0.0,0.0,0.0,0.0,0.0,0.0,0.0,0.0,0.0,0.0,0.0,0.0,0.0,0.0,0.0,0.0,0.0,0.0,0.0,0.0,0.0,0.0,0.0,0.0,0.0,0.0,0.0,0.0,0.0,0.0,0.0,0.0,0.0,0.0,0.0,0.0,0.0,0.0,0.0,0.0,0.0,0.0,0.0,0.0,0.0,0.0,0.0,0.0,0.0,0.0,0.0,0.0,0.0,0.0,0.0,0.0,0.0,0.0,0.0,0.0,0.0,0.0,0.0,0.0,0.0,0.0,0.0,0.0,0.0,0.0,0.0,0.0,0.0,0.0,0.0,0.0,1.5014,1.6948,1.9451,2.0717,2.102,2.0081,2.0085,1.8643,1.5128,1.3714,0.0,0.0,0.0,0.0,0.0,0.0,0.0,0.0,0.0,0.0,0.0,0.0,0.0,0.0,0.0,0.0,0.0,0.0,0.0,0.0,0.0,0.0,0.0,0.0,0.0,0.0,0.0,0.0,0.0,0.0,0.0,0.0,0.0,0.0,0.0,0.0,0.0,0.0,0.0,0.0,0.0,0.0,0.0,0.0,0.0,0.0,0.0,0.0,0.0,0.0,0.0,0.0,0.0,0.0,0.0,0.0,0.0,0.0,0.0,0.0,0.0,0.0,0.0,0.0,0.0,0.0,0.0,0.0,0.0,0.0,0.0,0.0,0.0,0.0,0.0,0.0,0.0,0.0,0.0,0.0,0.0,0.0,0.0,0.0,0.0,0.0,0.0,0.0,0.0,0.0,0.0,0.0,0.0,0.0,0.0,0.0,0.0,0.0,0.0,0.0,0.0,0.0,1.7374,1.8823,1.974,2.0849,2.1152,2.0255,1.9803,1.8293,1.5302,1.3707,0.0,0.0,0.0,0.0,0.0,0.0,0.0,0.0,0.0,0.0,0.0,0.0,0.0,0.0,0.0,0.0,0.0,0.0,0.0,0.0,0.0,0.0,0.0,0.0,0.0,0.0,0.0,0.0,0.0,0.0,0.0,0.0,0.0,0.0,0.0,0.0,0.0,0.0,0.0,0.0,0.0,0.0,0.0,0.0,0.0,0.0,0.0,0.0,0.0,0.0,0.0,0.0,0.0,0.0,0.0,0.0,0.0,0.0,0.0,0.0,0.0,0.0,0.0,0.0,0.0,0.0,0.0,0.0,0.0,0.0,0.0,0.0,0.0,0.0,0.0,0.0,0.0,0.0,0.0,0.0,0.0,0.0,0.0,0.0,0.0,0.0,0.0,0.0,0.0,0.0,0.0,0.0,0.0,0.0,0.0,0.0,0.0,0.0,0.0,0.0,0.0,0.0,1.7497,1.9572,2.0189,2.055,2.0755,2.067,1.9229,1.7505,1.5595,1.3223,0.0,0.0,0.0,0.0,0.0,0.0,0.0,0.0,0.0,0.0,0.0,0.0,0.0,0.0,0.0,0.0,0.0,0.0,0.0,0.0,0.0,0.0,0.0,0.0,0.0,0.0,0.0,0.0,0.0,0.0,0.0,0.0,0.0,0.0,0.0,0.0,0.0,0.0,0.0,0.0,0.0,0.0,0.0,0.0,0.0,0.0,0.0,0.0,0.0,0.0,0.0,0.0,0.0,0.0,0.0,0.0,0.0,0.0,0.0,0.0,0.0,0.0,0.0,0.0,0.0,0.0,0.0,0.0,0.0,0.0,0.0,0.0,0.0,0.0,0.0,0.0,0.0,0.0,0.0,0.0,0.0,0.0,0.0,0.0,0.0,0.0,0.0,0.0,0.0,0.0,0.0,0.0,0.0,0.0,0.0,0.0,0.0,0.0,0.0,0.0,0.0,0.0,1.699,1.8853,1.9641,2.0309,2.0541,2.01,1.9503,1.8094,1.5639,0.0,0.0,0.0,0.0,0.0,0.0,0.0,0.0,0.0,0.0,0.0,0.0,0.0,0.0,0.0,0.0,0.0,0.0,0.0,0.0,0.0,0.0,0.0,0.0,0.0,0.0,0.0,0.0,0.0,0.0,0.0,0.0,0.0,0.0,0.0,0.0,0.0,0.0,0.0,0.0,0.0,0.0,0.0,0.0,0.0,0.0,0.0,0.0,0.0,0.0,0.0,0.0,0.0,0.0,0.0,0.0,0.0,0.0,0.0,0.0,0.0,0.0,0.0,0.0,0.0,0.0,0.0,0.0,0.0,0.0,0.0,0.0,0.0,0.0,0.0,0.0,0.0,0.0,0.0,0.0,0.0,0.0,0.0,0.0,0.0,0.0,0.0,0.0,0.0,0.0,0.0,0.0,0.0,0.0,0.0,0.0,0.0,0.0,0.0,0.0,0.0,0.0,1.4679,1.6924,1.8682,1.9535,1.9969,2.0079,1.9858,1.9334,1.7969,1.5433,0.0,0.0,0.0,0.0,0.0,0.0,0.0,0.0,0.0,0.0,0.0,0.0,0.0,0.0,0.0,0.0,0.0,0.0,0.0,0.0,0.0,0.0,0.0,0.0,0.0,0.0,0.0,0.0,0.0,0.0,0.0,0.0,0.0,0.0,0.0,0.0,0.0,0.0,0.0,0.0,0.0,0.0,0.0,0.0,0.0,0.0,0.0,0.0,0.0,0.0,0.0,0.0,0.0,0.0,0.0,0.0,0.0,0.0,0.0,0.0,0.0,0.0,0.0,0.0,0.0,0.0,0.0,0.0,0.0,0.0,0.0,0.0,0.0,0.0,0.0,0.0,0.0,0.0,0.0,0.0,0.0,0.0,0.0,0.0,0.0,0.0,0.0,0.0,0.0,0.0,0.0,0.0,0.0,0.0,0.0,0.0,0.0,0.0,0.0,0.0,0.0,0.0,1.5153,1.7534,1.9362,2.003,1.9508,1.9391,2.003,1.8585,1.6829,0.0,0.0,0.0,0.0,0.0,0.0,0.0,0.0,0.0,0.0,0.0,0.0,0.0,0.0,0.0,0.0,0.0,0.0,0.0,0.0,0.0,0.0,0.0,0.0,0.0,0.0,0.0,0.0,0.0,0.0,0.0,0.0,0.0,0.0,0.0,0.0,0.0,0.0,0.0,0.0,0.0,0.0,0.0,0.0,0.0,0.0,0.0,0.0,0.0,0.0,0.0,0.0,0.0,0.0,0.0,0.0,0.0,0.0,0.0,0.0,0.0,0.0,0.0,0.0,0.0,0.0,0.0,0.0,0.0,0.0,0.0,0.0,0.0,0.0,0.0,0.0,0.0,0.0,0.0,0.0,0.0,0.0,0.0,0.0,0.0,0.0,0.0,0.0,0.0,0.0,0.0,0.0,0.0,0.0,0.0,0.0,0.0,0.0,0.0,0.0,0.0,0.0,0.0,1.5153,1.794,1.9885,2.0088,1.9914,1.9953,2.0342,1.949,1.8044,1.5913,0.0,0.0,0.0,0.0,0.0,0.0,0.0,0.0,0.0,0.0,0.0,0.0,0.0,0.0,0.0,0.0,0.0,0.0,0.0,0.0,0.0,0.0,0.0,0.0,0.0,0.0,0.0,0.0,0.0,0.0,0.0,0.0,0.0,0.0,0.0,0.0,0.0,0.0,0.0,0.0,0.0,0.0,0.0,0.0,0.0,0.0,0.0,0.0,0.0,0.0,0.0,0.0,0.0,0.0,0.0,0.0,0.0,0.0,0.0,0.0,0.0,0.0,0.0,0.0,0.0,0.0,0.0,0.0,0.0,0.0,0.0,0.0,0.0,0.0,0.0,0.0,0.0,0.0,0.0,0.0,0.0,0.0,0.0,0.0,0.0,0.0,0.0,0.0,0.0,0.0,0.0,0.0,0.0,0.0,0.0,0.0,0.0,0.0,0.0,0.0,0.0,0.0,1.5472,1.8259,2.0204,2.0436,2.0233,2.0206,2.0476,1.9994,1.8705,1.6345,0.0,0.0,0.0,0.0,0.0,0.0,0.0,0.0,0.0,0.0,0.0,0.0,0.0,0.0,0.0,0.0,0.0,0.0,0.0,0.0,0.0,0.0,0.0,0.0,0.0,0.0,0.0,0.0,0.0,0.0,0.0,0.0,0.0,0.0,0.0,0.0,0.0,0.0,0.0,0.0,0.0,0.0,0.0,0.0,0.0,0.0,0.0,0.0,0.0,0.0,0.0,0.0,0.0,0.0,0.0,0.0,0.0,0.0,0.0,0.0,0.0,0.0,0.0,0.0,0.0,0.0,0.0,0.0,0.0,0.0,0.0,0.0,0.0,0.0,0.0,0.0,0.0,0.0,0.0,0.0,0.0,0.0,0.0,0.0,0.0,0.0,0.0,0.0,0.0,0.0,0.0,0.0,0.0,0.0,0.0,0.0,0.0,0.0,0.0,0.0,0.0,0.0,1.61,1.8597,2.0407,2.1017,2.0611,2.0372,2.0604,2.0297,1.9026,1.6586,0.0,0.0,0.0,0.0,0.0,0.0,0.0,0.0,0.0,0.0,0.0,0.0,0.0,0.0,0.0,0.0,0.0,0.0,0.0,0.0,0.0,0.0,0.0,0.0,0.0,0.0,0.0,0.0,0.0,0.0,0.0,0.0,0.0,0.0,0.0,0.0,0.0,0.0,0.0,0.0,0.0,0.0,0.0,0.0,0.0,0.0,0.0,0.0,0.0,0.0,0.0,0.0,0.0,0.0,0.0,0.0,0.0,0.0,0.0,0.0,1.2162,1.0875,0.0,0.0,0.0,0.0,0.0,0.0,0.0,0.0,0.0,0.0,0.0,0.0,0.0,0.0,0.0,0.0,0.0,0.0,0.0,0.0,0.0,0.0,0.0,0.0,0.0,0.0,0.0,0.0,0.0,0.0,0.0,0.0,0.0,0.0,0.0,0.0,0.0,0.0,0.0,0.0,1.6906,1.933,2.1046,2.1714,2.1656,2.1595,2.1583,2.1054,1.998,1.8275,1.7006,0.0,0.0,0.0,0.0,0.0,0.0,0.0,0.0,0.0,0.0,0.0,0.0,0.0,0.0,0.0,0.0,0.0,0.0,0.0,0.0,0.0,0.0,0.0,0.0,0.0,0.0,0.0,0.0,0.0,0.0,0.0,0.0,0.0,0.0,0.0,0.0,0.0,0.0,0.0,0.0,0.0,0.0,0.0,0.0,0.0,0.0,0.0,0.0,0.0,0.0,0.0,0.0,0.0,0.0,0.0,0.0,0.0,0.0,0.0,1.5291,1.3856,0.0,0.0,0.0,0.0,0.0,0.0,0.0,0.0,0.0,0.0,0.0,0.0,0.0,0.0,0.0,0.0,0.0,0.0,0.0,0.0,0.0,0.0,0.0,0.0,0.0,0.0,0.0,0.0,0.0,0.0,0.0,0.0,0.0,0.0,0.0,0.0,0.0,0.0,0.0,0.0,1.8363,2.062,2.2209,2.2872,2.2664,2.2523,2.2603,2.1806,2.0881,1.9892,1.8359,0.0,0.0,0.0,0.0,0.0,0.0,0.0,0.0,0.0,0.0,0.0,0.0,0.0,0.0,0.0,0.0,0.0,0.0,0.0,0.0,0.0,0.0,0.0,0.0,0.0,0.0,0.0,0.0,0.0,0.0,0.0,0.0,0.0,0.0,0.0,0.0,0.0,0.0,0.0,0.0,0.0,0.0,0.0,0.0,0.0,0.0,0.0,0.0,0.0,0.0,0.0,0.0,0.0,1.9133,1.9635,2.0388,2.0865,2.1194,2.1144,1.8832,1.764,1.7371,1.7013,0.0,0.0,0.0,0.0,0.0,0.0,0.0,0.0,0.0,0.0,0.0,0.0,0.0,0.0,0.0,0.0,0.0,0.0,0.0,0.0,0.0,0.0,2.0055,2.1028,2.1839,2.1243,1.6899,0.0,0.0,0.0,0.0,0.0,0.0,0.0,0.0,0.0,0.0,0.0,1.9897,2.1843,2.3285,2.3943,2.3508,2.3254,2.3429,2.2611,2.1918,2.1536,1.9787,1.8534,0.0,0.0,0.0,0.0,0.0,0.0,0.0,0.0,0.0,0.0,0.0,0.0,0.0,0.0,0.0,0.0,0.0,0.0,0.0,0.0,0.0,0.0,0.0,0.0,0.0,0.0,0.0,0.0,0.0,0.0,0.0,0.0,0.9993,1.1123,0.0,0.0,0.0,0.0,0.0,0.0,0.0,0.0,0.0,0.0,0.0,0.0,0.0,1.8053,1.9133,2.0665,2.1543,2.1794,2.2774,2.305,2.2669,2.2744,2.3075,2.3527,2.3175,0.0,1.9308,1.8093,0.0,0.0,0.0,0.0,0.0,0.0,0.0,0.0,0.0,0.0,0.0,0.0,0.0,0.0,0.0,0.0,0.0,0.0,0.0,0.0,0.0,0.0,2.3703,2.3522,2.3123,2.2788,2.2643,2.0177,1.7466,1.576,1.495,1.439,0.0,0.0,0.0,0.0,0.0,0.0,2.0782,2.2213,2.3285,2.3943,2.3912,2.3794,2.3655,2.3512,2.3378,2.3187,2.1888,2.1131,2.1032,1.8561,0.0,0.0,0.0,0.0,0.0,0.0,0.0,0.0,0.0,0.0,0.0,0.0,0.0,0.0,0.0,0.0,0.0,0.0,0.0,0.0,0.0,0.0,0.0,0.0,0.0,0.0,0.0,0.0,0.0,1.0507,1.2077,1.2914,1.3048,1.273,0.0,0.0,0.0,0.0,0.0,0.0,0.0,0.0,0.0,1.9258,2.0087,2.1192,2.2623,2.3321,2.418,2.5109,2.5611,2.5862,2.5904,2.5904,2.6029,2.6289,2.5988,2.5134,2.3859,2.1933,2.0219,1.8858,0.0,0.0,0.0,0.0,2.0698,2.1125,2.2199,2.2338,2.1971,2.1464,0.0,0.0,0.0,0.0,0.0,0.0,0.0,2.3565,2.4583,2.5905,2.6949,2.6844,2.6578,2.6314,2.6225,2.4665,2.2486,1.9831,1.9192,1.8576,1.7086,1.6557,0.0,0.0,0.0,2.1161,2.3136,2.4245,2.4966,2.5258,2.5067,2.4867,2.4761,2.4489,2.4281,2.4237,2.3424,2.2961,2.2961,2.1007,1.9419,0.0,0.0,0.0,0.0,0.0,0.0,0.0,0.0,0.0,0.0,0.0,0.0,0.0,0.0,0.0,0.0,0.0,0.0,0.0,0.0,0.0,0.0,0.0,0.0,0.0,0.0,0.0,0.0,1.2363,1.4061,1.4632,1.5437,1.5442,0.0,0.0,0.0,0.0,0.0,0.0,1.8555,1.9685,2.0888,2.2297,2.315,2.418,2.5435,2.5586,2.6264,2.7494,2.7494,2.772,2.8097,2.8097,2.8097,2.8072,2.767,2.7494,2.7329,2.516,2.3258,2.1801,2.2959,2.2825,2.2223,2.3789,2.4471,2.4791,2.5894,2.6036,2.5612,2.4982,2.4341,2.361,2.2817,0.0,0.0,0.0,0.0,2.6677,2.8027,2.8865,2.9349,2.9514,2.9511,2.9332,2.8805,2.8418,2.7065,2.3498,2.3016,2.2605,2.0716,2.0258,0.0,2.1181,2.2632,2.4066,2.5258,2.6174,2.6703,2.6703,2.6186,2.5899,2.5937,2.5415,2.508,2.5165,2.4595,2.4282,2.4282,2.3056,2.1709,2.033,0.0,0.0,0.0,0.0,0.0,0.0,0.0,0.0,0.0,0.0,0.0,0.0,0.0,0.0,0.0,0.0,0.0,0.0,0.0,0.0,0.0,0.0,0.0,0.0,0.0,0.0,0.0,0.0,0.0,1.6321,1.7804,0.0,0.0,0.0,0.0,1.8682,1.9233,2.0288,2.1942,2.3125,2.4029,2.46,2.6189,2.7067,2.7143,2.767,2.7971,2.8072,2.8072,2.8072,2.8097,2.8097,2.8097,2.8097,2.8072,2.8072,2.7921,2.6223,2.5071,2.4434,2.4647,2.4286,2.3844,2.5178,2.6123,2.6736,2.7376,2.7688,2.7937,2.8435,2.808,2.742,2.7349,2.6738,0.0,0.0,2.7564,2.8288,2.9193,2.9956,3.0565,3.0691,3.0717,3.0685,3.0679,3.0921,3.0022,2.6078,2.534,2.528,2.4997,0.0,2.4333,2.5264,2.5496,2.5802,2.651,2.7275,2.7697,2.7697,2.7081,2.6704,2.691,2.6241,2.5921,2.6134,2.5457,2.5044,2.5044,2.4315,2.3189,2.1713,2.0531,0.0,0.0,0.0,0.0,0.0,0.0,0.0,0.0,0.0,0.0,0.0,0.0,0.0,0.0,0.0,0.0,0.0,0.0,0.0,0.0,0.0,0.0,0.0,0.0,0.0,0.0,0.0,0.0,1.9032,2.0338,0.0,1.9811,2.0087,2.069,2.1566,2.2196,2.3226,2.4915,2.5711,2.6364,2.6917,2.7494,2.7971,2.8348,2.8524,2.8825,2.9202,2.9202,2.9202,2.9202,2.9202,2.9202,2.9202,2.9202,2.9202,2.9151,2.8549,2.7727,2.6969,2.794,2.8171,2.8161,2.96,3.0337,3.0689,3.0892,3.0543,2.9924,2.9387,2.9285,2.9363,2.9363,2.9329,2.9522,3.0624,3.1094,3.1525,3.2465,3.2901,3.3101,3.2944,3.2592,3.2271,3.2271,3.2015,3.1355,2.9941,2.8936,2.8169,2.7639,2.7001,2.6503,2.6354,2.71,2.7794,2.8001,2.8384,2.8649,2.8649,2.8115,2.7641,2.7236,2.6958,2.6447,2.5556,2.5243,2.4878,2.4414,2.3686,2.3023,2.2526,2.1164,1.9114,0.0,0.0,0.0,0.0,0.0,0.0,0.0,0.0,0.0,0.0,0.0,0.0,0.0,0.0,0.0,0.0,0.0,0.0,0.0,0.0,0.0,0.0,0.0,0.0,0.0,1.7802,1.971,2.0842,2.2422,2.3125,2.2397,2.2879,2.3552,2.4456,2.4883,2.5661,2.6977,2.7544,2.7996,2.8373,2.8574,2.885,2.9227,2.9189,2.9402,2.9804,2.9804,2.9804,2.9804,2.9804,2.9804,2.9804,2.9804,2.9804,2.9804,2.9804,2.9352,2.8798,3.006,3.0465,3.0481,3.2033,3.2701,3.2828,3.2954,3.2458,3.1753,3.1008,3.105,3.1381,3.1381,3.1578,3.1987,3.2901,3.3099,3.3255,3.4145,3.4374,3.4374,3.4374,3.4039,3.3704,3.3704,3.3321,3.2961,3.2961,3.1704,3.0476,3.0076,2.9447,2.8848,2.8441,2.8943,2.938,2.938,2.9473,2.9556,2.9556,2.9072,2.8442,2.7713,2.7216,2.6501,2.5541,2.5011,2.4613,2.4381,2.3653,2.3156,2.2891,2.1649,2.0031,1.8128,0.0,0.0,0.0,0.0,0.0,0.0,0.0,0.0,0.0,0.0,0.0,0.0,0.0,0.0,0.0,0.0,0.0,0.0,0.0,0.0,0.0,0.0,0.0,1.7599,1.9887,2.1619,2.1644,2.4029,2.5259,2.423,2.5619,2.6776,2.7329,2.7344,2.757,2.8122,2.8674,2.8913,2.8913,2.9503,2.9804,2.9804,2.9804,2.9804,2.9804,2.9804,2.9804,2.9804,2.9804,2.9804,2.9804,2.9804,2.9804,2.9804,2.9804,2.9804,2.9883,3.0794,3.081,3.0569,3.222,3.2855,3.2918,3.3234,3.3358,3.3359,3.3453,3.3484,3.3484,3.3484,3.3455,3.34,3.3429,3.3353,3.3382,3.3982,3.4165,3.4258,3.4796,3.4916,3.4883,3.4883,3.4883,3.4883,3.4883,3.3374,3.2169,3.24,3.1833,3.1407,3.1626,3.1019,0.0,3.0522,3.0522,3.0522,3.0489,2.986,2.9152,2.8475,2.7098,2.6219,2.6152,2.4812,2.4315,2.5011,2.4348,2.3653,2.2957,2.201,2.131,2.0888,0.0,0.0,0.0,0.0,0.0,0.0,0.0,0.0,0.0,0.0,0.0,0.0,0.0,0.0,0.0,0.0,0.0,0.0,0.0,0.0,0.0,2.0704,2.2036,2.0704,2.2455,2.4205,2.5041,2.6465,2.7293,2.7017,2.7394,2.7871,2.8423,2.8473,2.8725,2.9302,2.9478,2.9553,2.9553,2.9704,2.9804,2.9804,2.9804,2.9804,2.9804,2.9804,2.9804,2.9804,2.9804,2.9856,3.0011,2.9856,2.9856,3.0011,2.9856,2.9895,3.0139,3.1366,3.1792,3.1948,3.3581,3.4335,3.4475,3.4256,3.4171,3.4111,3.3664,3.3484,3.3484,3.3484,3.3487,3.3547,3.396,3.4039,3.4254,3.53,3.515,3.489,3.5555,3.528,3.4883,3.4883,3.4883,3.4883,3.4883,3.449,3.3957,3.3499,3.2805,3.2332,3.2398,3.2232,3.1901,3.1383,3.1317,3.1085,3.0555,3.0323,2.9893,2.9185,2.829,2.7098,2.5508,2.4514,2.3851,2.352,2.3321,2.3354,2.3686,2.2627,2.2269,0.0,0.0,0.0,0.0,0.0,0.0,0.0,0.0,0.0,0.0,0.0,0.0,0.0,0.0,0.0,0.0,0.0,0.0,0.0,0.0,0.0,0.0,2.3987,2.5149,2.4494,2.5228,2.6163,2.7042,2.7921,2.8448,2.8448,2.8674,2.895,2.9277,2.9302,2.9428,2.9779,2.9804,2.9804,2.9804,2.9804,2.9804,2.9804,2.9804,2.9804,2.9804,2.9804,2.9818,2.9934,2.9934,3.0049,3.0216,3.0011,3.0216,3.0646,3.0457,3.0696,3.1193,0.0,0.0,0.0,0.0,3.5096,3.5267,3.5008,3.4921,3.4831,3.4472,3.4352,3.4352,3.4352,3.4299,3.4334,3.4635,3.4889,3.5212,3.5932,3.5987,3.5978,3.6365,3.6141,3.5744,3.5446,3.5346,3.528,3.4949,3.4883,0.0,3.4319,3.3647,3.3183,3.3183,3.2917,3.2531,3.2133,3.178,3.1449,3.1019,3.0688,3.0191,2.9463,2.8787,0.0,0.0,0.0,2.4116,2.3388,2.3701,0.0,0.0,0.0,0.0,0.0,2.6174,0.0,0.0,2.4837,2.515,0.0,0.0,0.0,0.0,0.0,0.0,0.0,0.0,0.0,0.0,0.0,0.0,0.0,0.0,0.0,0.0,2.6881,2.7813,2.8343,2.7946,2.7756,2.8184,2.8674,2.8988,2.8988,2.9503,2.9804,2.9804,2.9804,2.9804,2.9804,2.9804,0.0,0.0,0.0,2.9818,2.9818,2.9856,2.9856,2.9856,2.9856,2.9972,3.0126,3.0126,3.0216,3.0444,3.0292,3.0722,3.1516,3.1415,3.1938,3.2735,3.2558,3.272,3.3164,3.4702,3.5359,3.5519,3.5519,0.0,0.0,3.5519,3.5519,3.5519,3.5519,3.5422,3.5309,3.5309,3.5649,3.6075,3.6211,3.6639,3.7023,3.7184,3.7168,3.6936,3.6274,3.6075,3.581,3.5148,3.4949,3.4883,3.4883,3.4352,3.3922,3.3922,3.3381,3.2917,3.2829,3.2266,3.1813,3.1714,3.1052,0.0,2.9694,2.8953,2.821,2.7448,2.6122,2.5061,2.4398,2.5229,2.5883,2.6229,2.8103,2.9422,3.0239,3.1331,3.2091,3.2546,2.9132,2.8743,0.0,0.0,0.0,0.0,0.0,0.0,0.0,0.0,0.0,0.0,0.0,0.0,0.0,0.0,0.0,2.7846,2.9248,3.0248,3.0351,2.9906,2.9416,2.9024,2.9391,2.9628,2.9628,2.9729,2.9804,2.9804,2.9804,2.9804,2.9804,2.9804,2.9804,2.9804,2.9972,3.0049,3.0049,3.0177,3.0292,3.0292,3.0292,0.0,3.033,3.033,3.0444,3.066,3.106,3.1405,3.1746,3.2155,3.2876,3.3739,3.3705,3.4075,3.4769,3.5261,3.5457,3.5519,3.5519,3.5519,3.5519,3.5519,3.5519,3.5519,3.5519,3.5464,0.0,3.5441,3.5542,3.5829,3.6886,3.6794,3.6689,3.7729,3.7507,3.7069,3.6936,3.6439,3.5976,3.581,3.5313,3.4883,3.4883,3.4783,3.4684,3.4684,3.4551,3.4253,3.3657,3.3458,3.316,3.2531,3.1835,3.1317,3.1184,2.998,2.892,2.821,2.7404,2.6875,2.6742,2.8137,2.8953,2.9028,3.004,3.0949,3.1783,3.2386,3.3164,3.4055,3.2842,3.2679,0.0,0.0,0.0,0.0,0.0,0.0,0.0,0.0,0.0,0.0,0.0,2.4657,2.6303,0.0,2.943,3.0801,3.1314,3.1523,3.1522,3.1182,3.0655,2.9883,2.9795,2.9856,3.0088,2.9934,2.9856,3.0088,3.0011,2.9972,3.0088,3.0126,3.0126,3.0126,3.0177,3.0254,3.0254,3.0368,3.057,3.0947,3.0947,3.1182,3.1673,3.1673,3.1746,3.1955,3.2146,3.2514,3.308,3.3768,3.4341,3.4773,3.4773,3.5001,3.5359,3.5457,3.5519,3.5519,3.5519,3.5519,3.5519,3.5519,3.5519,3.5519,3.5519,3.5519,3.5519,3.5519,3.5973,3.66,3.7205,3.7598,3.7963,3.8593,3.846,3.8096,3.7731,3.7367,3.7003,3.6638,3.5943,3.5446,3.5446,3.5148,3.4883,3.4883,3.4883,3.4783,3.4386,3.4021,3.3657,3.3292,3.2597,3.2166,3.2166,3.1118,3.0357,3.0013,2.9417,2.9043,2.9043,3.0288,3.0992,3.0992,3.2001,3.2909,3.37,3.4466,3.5327,3.6236,3.6337,3.6031,0.0,0.0,0.0,0.0,0.0,0.0,0.0,0.0,2.293,2.5442,2.6877,2.8397,3.0492,3.1043,3.1707,3.3346,3.3068,3.2548,3.2343,3.2001,3.1479,3.0634,3.0164,3.0049,3.0368,3.0126,3.0049,3.0368,3.0254,3.0216,3.0406,3.0406,3.0406,3.0406,3.0674,3.0839,3.0839,3.1171,3.1638,3.2206,3.2206,3.2618,3.3345,3.3345,3.3444,3.3578,3.341,3.3876,3.4785,3.5291,3.5519,3.5519,3.5519,3.5519,3.5519,3.5519,3.5519,3.5519,3.5519,3.5519,3.5519,3.5519,3.5519,3.5519,3.5519,3.5519,3.5519,3.5519,3.6321,3.7266,3.7354,3.8254,3.9148,3.9255,3.9315,3.9149,3.856,3.8328,3.8004,3.7433,3.6738,3.6208,3.6208,3.5711,3.5214,3.4949,3.4883,3.4883,3.4883,3.4386,3.3988,3.3988,3.3404,3.2896,3.2785,3.2232,3.19,3.19,3.1441,3.1224,3.1224,3.2135,3.2643,3.2643,3.3884,3.4864,3.5511,3.6541,3.7346,3.8014,3.8759,3.8419,1.7156,1.7343,1.8372,2.0584,2.1695,2.3301,0.0,0.0,2.8308,3.0315,3.1301,3.1958,3.2228,3.3244,3.4109,3.4347,3.4178,3.3819,3.3178,3.2326,3.1589,3.1011,3.0558,3.0368,3.0406,3.0368,3.0368,3.0406,3.0368,3.0368,3.0406,3.0406,3.0406,3.0406,3.1796,3.2525,3.2525,3.3937,3.4696,3.4769,3.4769,3.4843,3.4953,3.4953,3.4953,3.4961,3.5002,3.5492,3.6197,3.5696,3.5519,3.5519,3.5519,3.5519,3.5519,3.5519,3.5519,3.5519,3.5519,3.5519,3.5519,3.5519,3.5519,3.5519,3.5519,3.5519,3.5519,3.5519,3.6005,3.6662,3.7266,3.7908,3.8562,3.9148,3.9315,3.9282,3.9183,3.8659,3.8195,3.8096,3.75,3.697,3.697,3.6903,3.6406,3.5114,3.4883,3.4883,3.4883,3.4816,3.4783,3.4783,3.4236,3.3651,3.3093,3.2981,3.2947,3.2947,3.2966,3.303,3.303,3.3777,3.4235,3.4235,3.5701,3.6525,3.6627,3.7396,3.7827,3.7953,3.8666,3.894,2.0344,2.1131,2.2195,2.3664,2.5388,2.721,2.9119,2.9939,3.0733,3.2347,3.3215,3.3784,3.4173,3.4332,3.4558,3.5006,3.4633,3.4211,3.3905,3.3498,3.2863,3.1826,3.1884,3.17,3.0823,3.052,3.0482,3.071,3.0634,3.0823,3.1368,3.1787,3.2171,3.2589,3.3643,3.4196,3.4196,3.4854,3.5435,3.5834,3.5834,3.605,3.6476,3.6476,3.6476,3.6476,3.6527,3.6713,3.7015,3.6716,3.6417,3.6088,3.6088,3.5848,3.5519,3.5519,3.5519,3.5519,3.5519,3.5519,3.5519,3.5519,3.5519,3.5519,3.5519,3.5748,3.6006,3.6006,3.6753,3.756,3.7851,3.8395,3.8952,3.9228,3.9315,3.9315,3.9315,3.9083,3.8825,3.8825,3.8228,3.7765,3.7765,3.74,3.6928,3.6397,3.5859,3.5545,3.5545,3.5181,3.4939,3.5011,3.4851,3.4643,3.441,3.4376,3.4376,3.4376,3.4522,3.4566,3.4566,3.5408,3.5982,3.6255,3.7035,3.7579,3.7843,3.8326,3.8531,3.8565,3.93,3.9666,2.2529,2.3885,2.5219,2.6261,2.8476,3.0464,3.0653,3.1543,3.2677,3.3814,3.4442,3.4921,3.54,3.5004,3.4839,3.5392,3.5004,3.4543,3.4346,3.4312,3.3869,3.2595,3.2897,3.2755,3.1726,3.1357,3.1294,3.1579,3.1468,3.178,3.2645,3.3157,3.3716,3.4466,3.5313,3.5801,3.5801,3.6155,3.6635,3.7168,3.7168,3.7452,3.7973,3.7973,3.7973,3.7943,3.7764,3.7674,3.7674,3.7494,3.7135,3.6746,3.6746,3.6357,3.5789,3.5789,3.5669,3.5519,3.5519,3.5519,3.5519,3.5519,3.5519,3.5519,3.5519,3.5782,3.6196,3.6352,3.7175,3.808,3.825,3.8816,3.9315,3.9315,3.9315,3.9315,3.9315,3.9315,3.9315,3.9315,3.8858,3.8526,3.8546,3.8114,3.7801,3.792,3.7245,3.6638,3.6381,3.5916,3.5632,3.5799,3.5726,3.5662,3.5709,3.5709,3.5709,3.5709,3.598,3.6161,3.6161,3.676,3.7262,3.759,3.801,3.8421,3.8915,3.917,3.9374,3.9496,3.9892,4.0113,2.2566,2.4256,2.6287,2.8071,3.0483,3.2556,3.3232,3.3908,3.4623,3.531,3.5459,3.5489,3.5519,3.5457,3.5457,3.5519,3.5457,3.5198,3.4413,3.4312,3.4041,3.3255,3.3178,3.3178,3.3143,3.3108,3.3108,3.3108,3.3108,3.3395,3.412,3.4176,3.4466,3.5159,3.6482,3.7259,3.7259,3.8588,3.9277,3.9313,3.9313,3.9313,3.9313,3.9313,3.9313,3.9284,3.8661,3.8362,3.8302,3.7674,3.7404,3.7375,3.7375,3.7015,3.6447,3.6447,3.6058,3.5519,3.5519,3.5519,3.5519,3.5519,3.5519,3.5519,3.5519,3.5489,3.5651,3.6227,3.6906,3.756,3.8137,3.8816,3.9315,3.9315,3.9315,3.9315,3.9315,3.9315,3.9315,3.9315,3.9282,3.9309,3.9441,3.9435,3.9487,3.961,3.9008,3.8221,3.7361,3.7261,3.7327,3.7605,3.6989,3.6622,3.6738,3.6738,3.6738,3.6738,3.7449,3.7831,3.7831,3.7855,3.7889,3.7912,3.8599,3.9204,3.9664,3.9954,4.0294,4.072,4.0303,4.0113,2.4805,2.6864,2.8823,3.0777,3.2549,3.3991,3.4693,3.4999,3.51,3.4861,3.4472,3.4053,3.3604,3.3514,3.3664,3.4113,3.4532,3.4916,3.5073,3.51,3.4824,3.4123,3.4442,3.453,3.409,3.3539,3.3178,3.3178,3.3607,3.4165,3.4893,3.5762,3.6563,3.7298,3.8227,3.869,3.869,3.9145,3.9373,3.9373,3.9373,3.9373,3.9373,3.9373,3.9373,3.9373,3.917,3.908,3.905,3.8841,3.8482,3.8063,3.8063,3.7674,3.7105,3.7105,3.6686,3.6088,3.5639,3.5519,3.5519,3.5519,3.5519,3.5519,3.5519,3.578,3.6227,3.6875,3.7501,3.8137,3.8816,3.9121,3.9342,3.9422,3.9448,3.9475,3.9547,3.9573,3.9573,3.9573,3.9573,3.9573,3.9625,3.9625,3.9677,3.9807,3.9126,3.8338,3.7519,3.7492,3.7599,3.7696,3.7566,3.7469,3.7516,3.7516,3.7516,3.7516,3.7753,3.7922,3.7922,3.8362,3.8802,3.9099,3.9506,3.9954,4.0422,4.0226,4.0353,4.0802,4.0635,4.0538,2.7035,2.9016,3.0766,3.2786,3.407,3.4951,3.54,3.531,3.4951,3.4294,3.3425,3.2647,3.2198,3.1929,3.2168,3.3305,3.3844,3.4442,3.537,3.5519,3.534,3.4891,3.5429,3.5669,3.5282,3.4693,3.4266,3.4065,3.4612,3.5317,3.6035,3.7099,3.802,3.8751,3.92,3.9373,3.9373,3.9373,3.9373,3.9373,3.9373,3.9373,3.9373,3.9373,3.9373,3.9373,3.9373,3.9373,3.9373,3.9373,3.917,3.8751,3.8751,3.8362,3.7764,3.7764,3.7375,3.6716,3.6088,3.5699,3.5519,3.5519,3.5519,3.5519,3.5519,3.575,3.6258,3.7145,3.7677,3.8165,3.9121,3.9395,3.9422,3.9554,3.958,3.9606,3.9677,3.9703,3.9703,3.9703,3.9703,3.9703,3.9755,3.9807,3.9884,3.9961,3.948,3.8959,3.8513,3.8446,3.8495,3.8544,3.8415,3.8294,3.8294,3.8294,3.8294,3.8294,3.8531,3.87,3.87,3.914,3.9549,3.9829,4.0188,4.0524,4.0802,4.0659,4.0659,4.0802,4.0955,4.0966,2.9202,3.0702,3.2108,3.4053,3.5011,3.5489,3.5459,3.4921,3.4234,3.3455,3.2228,3.1271,3.1182,3.0703,3.1001,3.2976,3.3395,3.3963,3.531,3.5519,3.5549,3.5549,3.6118,3.6537,3.6537,3.6537,3.6267,3.5639,3.6178,3.6806,3.7434,3.8093,3.8751,3.9409,3.9373,3.9373,3.9373,3.9373,3.9373,3.9373,3.9373,3.9373,3.9373,3.9373,3.9373,3.9373,3.9373,3.9373,3.9373,3.9373,3.9373,3.9373,3.9373,3.902,3.8452,3.8452,3.8033,3.7375,3.6776,3.6118,3.5549,3.5549,3.5552,3.5554,3.5554,3.5554,3.5846,3.7117,3.7442,3.7764,3.9148,3.9501,3.9554,3.9677,3.9703,3.9703,3.9729,3.9729,3.9729,3.9729,3.9729,3.9755,3.9884,4.0011,4.0113,4.0113,4.0113,4.0113,4.0113,3.9986,3.9961,4.0087,3.9445,3.9039,3.9039,3.9039,3.9039,3.9039,3.9706,4.0113,4.0104,4.0138,4.0138,4.0138,4.0587,4.0825,4.0802,4.1276,4.1276,4.0896,4.1343,4.1298,3.124,3.2736,3.3963,3.4981,3.537,3.537,3.4861,3.4233,3.3155,3.1031,2.9532,2.8128,2.6637,2.744,2.8843,3.037,3.2228,3.3963,3.531,3.5938,3.6237,3.6237,0.0,3.7165,3.7165,3.7165,3.7105,3.6926,3.7075,3.7464,3.8093,3.8781,3.923,3.9373,3.9373,3.9373,3.9373,3.9373,3.9373,3.9373,3.9373,3.9373,3.9373,3.9373,3.9373,3.9373,3.9373,3.9373,3.9373,3.9373,3.9373,3.9373,3.9373,3.932,3.917,3.917,3.8721,3.8123,3.7973,3.7165,3.6237,3.6237,3.6205,3.6164,3.6164,3.6508,3.7087,3.7851,3.8137,3.8418,3.9282,3.9547,3.9677,3.9807,3.9833,3.9884,3.9986,4.0011,4.0011,4.0011,4.0011,4.0011,4.0037,4.0087,4.0113,4.0113,4.0113,4.0113,4.0113,4.0087,4.0062,4.0113,3.9943,3.9842,3.9842,3.9842,3.9842,3.9842,4.0011,4.0254,4.0587,4.0611,4.0611,4.0611,4.1071,4.1139,4.0802,4.1276,4.163,4.1846,4.1952,4.1952,3.2916,3.4143,3.5011,3.54,3.528,3.4711,3.3455,3.2467,3.1031,2.8397,2.6782,2.5495,2.4388,2.5555,2.735,0.0,0.0,0.0,3.528,3.6058,3.6477,0.0,3.7285,0.0,3.7853,3.7853,3.7973,3.8272,3.8003,3.8003,3.8362,3.905,3.9373,3.9373,3.9373,3.9373,3.9373,3.9373,3.9373,3.9373,3.9373,3.9373,3.9373,3.9373,3.9373,3.9373,3.9373,3.9373,3.9373,3.9373,3.9445,3.9517,3.9517,3.9589,3.9625,3.9553,3.9531,3.9516,3.9447,3.8984,3.8294,3.7355,3.6977,3.694,3.7033,3.7306,3.7706,3.8306,3.8557,3.875,3.9494,3.9729,3.9807,3.9961,3.9986,4.0011,4.0087,4.0113,4.0113,4.0113,4.0113,4.0113,4.0113,4.0113,4.0113,4.0113,4.0113,4.0113,4.0113,4.0113,4.0113,4.0113,4.0113,4.0113,4.0113,4.0113,4.0113,4.0113,4.0113,4.0204,4.05,4.0466,4.0466,4.0466,4.0932,4.1047,4.0802,4.1477,4.1846,4.1909,4.2318,4.2398,3.4294,3.504,3.5519,3.5519,3.4921,3.3814,3.1809,3.0313,2.8547,2.5794,2.4238,2.3281,2.3101,2.4328,2.6213,2.8903,0.0,3.3125,3.522,3.6148,3.6596,3.6596,3.7734,3.8512,3.8512,3.8512,3.8781,3.9379,3.8871,3.8512,3.8512,3.908,3.9373,3.9373,3.9373,3.9373,3.9373,3.9373,3.9373,3.9373,3.9373,3.9373,3.9373,3.9373,3.9373,3.9373,3.9409,3.9445,3.9445,3.9445,3.9625,3.9879,3.9879,4.0021,4.0231,4.0056,4.0478,4.1127,4.0927,4.0985,4.08,3.8785,3.8108,3.806,3.8246,3.8259,3.8294,3.8826,3.8925,3.9022,3.9729,3.991,3.9961,4.0087,4.0113,4.0113,4.0113,4.0113,4.0113,4.0113,4.0113,4.0113,4.0113,4.0113,4.0113,4.0113,4.0113,4.0113,4.0113,4.0113,4.0113,4.0113,4.0113,4.0113,4.0113,4.0113,4.0113,4.0113,4.0113,4.0138,4.0179,4.0179,4.0179,4.0179,4.0707,4.0966,4.0896,4.1825,4.2077,4.1717,4.2518,4.2691,3.51,3.54,3.5519,3.5519,3.4592,3.3155,3.115,2.9235,0.0,0.0,2.2583,2.1695,2.0557,2.2323,2.4807,2.7525,3.0043,3.2557,3.516,3.6507,3.7255,0.0,3.8422,3.923,3.923,3.923,3.9254,3.9373,3.932,3.923,3.923,3.9349,3.9373,3.9373,3.9373,3.9373,3.9373,3.9373,3.9373,3.9373,3.9373,3.9373,3.9373,3.9373,3.9373,3.9409,3.9589,3.9661,3.9661,3.9803,4.0231,4.0755,4.0755,4.1127,4.1657,4.1625,4.1723,4.182,4.1788,4.1789,4.1662,4.0737,4.0408,4.0427,4.0456,4.0372,4.0313,4.0421,4.0093,3.9696,3.9858,3.9986,4.0087,4.0113,4.0113,4.0113,4.0113,4.0113,4.0113,4.0113,4.0113,4.0113,4.0113,4.0113,4.0113,4.0113,4.0113,4.0113,4.0113,4.0113,4.0113,4.0113,4.0113,4.0113,4.0113,4.0113,4.0113,4.0113,4.0113,4.0279,4.0659,4.0683,4.0683,4.0683,4.1521,4.176,4.1388,4.2302,4.2749,4.2655,4.2825,4.2863,3.531,3.5519,3.5519,3.5519,3.4233,3.2287,2.9594,0.0,0.0,0.0,2.0876,2.0438,1.9828,2.1595,0.0,2.5704,2.7979,3.0522,3.3514,3.507,3.6267,3.7285,3.8566,3.9373,3.9373,3.9373,3.9373,3.9373,3.9373,3.9373,3.9373,3.9373,3.9373,3.9373,3.9373,3.9373,3.9373,3.9373,3.9373,3.9373,3.9373,3.9373,3.9373,3.9517,3.9553,3.9553,3.9768,3.9839,3.9839,3.9975,4.0439,4.116,4.116,4.1592,4.2269,4.2205,4.2394,4.2769,4.2707,4.2953,4.3284,4.2983,4.2331,4.1617,4.1737,4.1666,4.1492,4.1122,4.0778,4.0492,4.0087,4.0062,4.0113,4.0113,4.0113,4.0113,4.0113,4.0113,4.0113,4.0113,4.0113,4.0113,4.0113,4.0113,4.0113,4.0113,4.0113,4.0113,4.0113,4.0113,4.0113,4.0113,4.0113,4.0113,4.0113,4.0113,4.0113,4.0113,4.0328,4.0597,4.0778,4.1024,4.1162,4.1162,4.1609,4.1846,4.1867,4.2318,4.2635,4.2901,4.3317,4.3498,3.513,3.5467,3.5683,3.5683,3.4181,3.1821,2.8535,2.6173,0.0,2.0404,1.9833,1.9922,1.9803,2.1201,2.2887,0.0,2.6201,2.8603,3.2018,3.3784,3.537,3.7195,3.8566,0.0,3.9373,3.9373,3.9433,3.9619,3.9768,3.9768,3.9649,3.9768,3.9768,3.9649,3.9619,3.9559,3.9373,3.9373,3.9373,3.9373,3.9445,3.9553,3.9702,3.9879,4.0056,4.02,4.0405,4.0474,4.0474,4.0509,4.1024,4.1755,4.1755,4.2237,4.2923,4.2831,4.3166,4.3706,4.3621,4.4035,4.4615,4.4615,4.3719,4.273,4.2845,4.2713,4.2422,4.1847,4.1576,4.1305,4.0722,4.0587,4.0553,4.0383,4.035,4.0282,4.0146,4.0113,4.0113,4.0113,4.0113,4.0113,4.0113,4.0113,4.0113,4.0113,4.0113,4.0113,4.0113,4.0113,4.0113,4.0113,4.0113,4.0113,4.0113,4.0113,4.0113,4.0113,4.0514,4.0802,4.0802,4.1253,4.1521,4.1521,4.1609,4.1917,4.2465,4.2568,4.2897,4.3425,4.4041,4.4367,3.4593,3.5425,3.6321,3.6321,3.4705,3.2316,2.9124,0.0,2.3897,2.0412,2.0224,2.0595,2.0224,2.0799,2.216,2.4722,2.6022,2.8038,3.1929,3.4203,3.5908,3.7255,0.0,0.0,3.9373,3.9373,3.9679,4.0277,4.0876,4.0935,4.0337,4.0876,4.0935,4.0337,4.0307,4.0038,3.9439,3.9373,3.9373,3.9373,3.9589,3.999,4.0588,4.0789,4.1227,4.182,4.2013,4.2078,4.2109,4.2205,4.2676,4.3287,4.3287,4.3768,4.4412,4.4384,4.444,4.4497,4.4468,4.4525,4.4615,4.4615,4.4491,4.4367,4.4395,4.3855,4.3274,4.3206,4.2726,4.2185,4.2117,4.2083,4.1914,4.1271,4.1102,4.0933,4.0248,4.0113,4.0113,4.0113,4.0113,4.0113,4.0113,4.0113,4.0113,4.0113,4.0113,4.0113,4.0113,4.0113,4.0113,4.0113,4.0113,4.0113,4.0113,4.0113,4.0113,4.0113,4.0514,4.0802,4.0802,4.1253,4.1521,4.1521,4.1909,4.2531,4.3286,4.3732,4.4328,4.5091,4.5164,4.52,3.524,3.6285,3.6903,3.6466,3.4419,3.1779,2.8904,0.0,2.3557,2.1016,2.0697,2.0795,2.0663,2.0612,2.1293,2.3421,2.3691,0.0,2.8788,3.0839,3.2856,3.534,3.7165,3.8506,3.9313,3.9768,4.0277,4.0935,4.1632,4.1901,4.1632,4.1444,4.1265,4.0995,4.0995,4.0876,4.0606,4.0724,4.1019,4.1464,4.1643,4.214,4.2796,4.3029,4.3004,4.2848,4.3041,4.2878,4.2426,4.2489,4.2892,4.3495,4.3495,4.3943,4.4615,4.4615,4.4615,4.4615,4.4615,4.4615,4.4615,4.4615,4.4615,4.4615,4.4615,4.4378,4.4012,4.3511,4.3172,4.2861,4.2422,4.2286,4.2219,4.1914,4.1847,4.1779,4.15,4.1433,4.1271,4.0832,4.0764,4.0595,4.018,4.0113,4.0113,4.0113,4.0113,4.0113,4.0113,4.0113,4.0113,4.0113,4.0113,4.0113,4.0113,4.0113,4.0113,4.0113,4.1263,4.1951,4.1951,4.3144,4.3811,4.3811,4.3976,4.4237,4.4561,4.4722,4.4983,4.5309,4.5816,4.6074,3.4613,3.6045,3.6886,3.6409,3.4287,3.1654,2.9014,2.6281,2.3694,2.1471,2.1086,2.1182,2.1103,2.0779,2.1007,2.2434,2.2512,2.3641,2.7219,2.9245,3.1478,3.4393,3.629,3.785,3.899,4.0247,4.1175,4.1662,4.2321,4.2641,4.2641,4.2299,4.194,4.1722,4.176,4.1708,4.1498,4.1886,4.237,4.2914,4.3305,4.389,4.4593,4.4789,4.4723,4.4392,4.455,4.4317,4.3729,4.3532,4.374,4.4127,4.3894,4.415,4.4615,4.4615,4.4615,4.4615,4.4615,4.4615,4.4615,4.4615,4.4615,4.4615,4.4615,4.4615,4.4479,4.391,4.3775,4.3639,4.3098,4.299,4.2895,4.2692,4.2625,4.2557,4.2354,4.2286,4.2151,4.1644,4.1542,4.1339,4.0857,4.0756,4.0756,4.0756,4.0756,4.0756,4.0756,4.0756,4.0756,4.0756,4.0909,4.0832,4.0451,4.0654,4.0756,4.0756,4.2181,4.3031,4.3031,4.4498,4.5309,4.5309,4.5309,4.5417,4.5635,4.5635,4.578,4.6033,4.6613,4.6928,3.2019,3.4148,3.612,3.6253,3.4586,3.2254,2.9758,2.7149,2.4448,2.1585,2.146,2.1809,2.1539,2.137,2.152,2.2281,2.3298,2.5132,2.8509,3.0826,3.2949,3.5061,3.6474,3.7593,3.8342,4.0823,4.2381,4.2381,4.294,4.329,4.329,4.3527,4.3265,4.241,4.2565,4.2349,4.1693,4.2623,4.3091,4.3126,4.4026,4.4821,4.5461,4.5684,4.6118,4.6786,4.6786,4.6786,4.6718,4.5978,4.5674,4.5602,4.4857,4.4615,4.4615,4.4615,4.4615,4.4615,4.4615,4.4615,4.4615,4.4615,4.4615,4.4615,4.4615,4.4615,4.4615,4.4581,4.4581,4.4581,4.4581,4.4581,4.4378,4.3606,4.3375,4.3172,4.2455,4.2286,4.2286,4.2286,4.2286,4.2286,4.2286,4.2286,4.2286,4.2286,4.2286,4.2286,4.2286,4.2286,4.2286,4.2286,4.274,4.2558,4.1323,4.1847,4.2286,4.2286,4.3242,4.3793,4.3793,4.4764,4.5309,4.5309,4.5309,4.5707,4.6504,4.6504,4.6902,4.7699,4.7699,4.7741,3.0281,3.1836,3.2993,3.2023,3.0493,2.8748,2.6981,2.5213,2.3536,2.2149,2.1988,2.208,2.2007,2.1693,2.2424,2.5443,2.5784,2.6776,3.0041,3.1695,3.3049,3.4446,3.7461,3.9869,4.1112,4.2395,4.356,4.4583,4.4837,4.4774,4.4358,4.4856,4.4837,4.4051,4.424,4.4489,4.4755,4.5214,4.5672,4.6184,4.6618,4.7206,4.7872,4.7967,4.7821,4.7564,4.7564,4.7259,4.6786,4.6549,4.6447,4.638,4.5635,4.5365,4.5297,4.4818,4.4615,4.4615,4.4615,4.4615,4.4615,4.4615,4.4615,4.4615,4.4615,4.4615,4.4615,4.4615,4.4615,4.4615,4.4615,4.4615,4.4547,4.4282,4.4215,4.4147,4.3938,4.387,4.3707,4.3166,4.3064,4.2895,4.2388,4.2286,4.2286,4.2286,4.2286,4.2286,4.2286,4.262,4.2851,4.2851,4.3801,4.3899,4.2593,4.2714,4.2994,4.3364,4.4165,4.4753,4.5156,4.632,4.6939,4.6939,4.6939,4.7104,4.7441,4.7441,4.7586,4.784,4.7968,4.8028,2.7657,2.9326,3.0463,2.9599,2.8226,2.6837,2.5731,2.4365,2.3148,2.2448,2.2257,2.2214,2.2242,2.1945,2.2557,2.5129,2.5821,2.7131,3.0157,3.2163,3.4058,3.6064,3.8782,4.1015,4.2377,4.363,4.4716,4.5706,4.5773,4.5629,4.5337,4.5814,4.6028,4.585,4.5701,4.5845,4.6311,4.6795,4.7272,4.7737,4.8129,4.8545,4.9018,4.9018,4.8748,4.8342,4.8342,4.8071,0.0,4.7327,4.7225,4.7158,4.6413,4.6109,4.6075,4.5602,4.5427,4.5427,4.5427,4.5427,4.5365,4.5122,4.4852,4.4615,4.4615,4.4615,4.4615,4.4615,4.4615,4.4615,4.4615,4.4615,4.4615,4.4615,4.4615,4.4615,4.4615,4.4615,4.4479,4.3944,4.3842,4.3707,4.3234,4.3193,4.3193,4.3193,4.3193,4.3193,4.3193,4.3631,4.3931,4.3931,4.4994,4.5411,4.4609,4.4356,4.4345,4.4718,4.5364,4.5881,4.6199,4.7176,4.7699,4.7699,4.7699,4.7777,4.7881,4.7943,4.7927,4.7963,4.8437,4.8587,0.0,2.6469,2.8092,2.8169,2.7144,2.5983,2.5407,2.4255,0.0,2.2448,2.2257,2.2262,2.2502,2.2315,2.2243,2.2752,2.4619,2.6941,2.9629,3.2713,3.5937,3.9369,4.0419,4.1395,4.2734,4.4636,4.5881,4.6064,4.6064,4.6134,4.6279,4.6521,4.6967,4.7572,4.7035,4.6692,4.6692,4.7539,4.7999,4.7999,4.8639,4.9018,4.9018,4.9018,4.9018,4.9018,4.9018,4.9018,4.8951,4.8244,4.7973,4.7906,4.7158,4.6887,4.6853,4.6819,4.6786,4.6786,4.6786,4.6786,4.6684,4.6007,4.5263,4.4682,4.4682,4.4649,4.4615,4.4615,4.4615,4.4615,4.4615,4.4615,4.4615,4.4615,4.4615,4.4615,4.4615,4.4615,4.4615,4.4615,4.4615,4.4615,4.4615,4.4615,4.4615,4.4615,4.4637,4.4665,4.4665,4.5142,4.5442,4.5442,4.6341,4.6959,4.6959,4.646,4.6172,4.622,4.666,4.6913,4.6994,4.745,4.772,4.772,4.772,4.7819,4.8031,4.8081,4.8121,4.8194,4.9098,4.9504,2.0238,0.0,2.2811,2.2203,2.2251,2.24,0.0,2.2395,2.253,2.2347,0.0,2.2806,2.4511,2.3853,2.4378,2.8414,2.9987,3.1503,3.3794,3.6589,3.9219,4.1266,4.2555,4.3868,4.5374,4.635,4.7172,4.7836,4.7869,4.7704,4.7305,4.7869,4.8129,4.7836,4.8193,4.8418,4.8418,4.8608,4.8736,4.8767,4.8923,4.9018,4.9018,4.9018,4.9018,4.9018,4.9018,4.9018,4.8984,4.8815,4.8748,4.868,4.7936,4.7635,4.7597,4.6989,4.6786,4.6786,4.6786,4.6786,4.6752,4.6583,4.6041,4.5432,4.5432,4.5026,4.4615,4.4615,4.4615,4.4615,4.4615,4.4615,4.4615,4.4615,4.4615,4.4615,4.4615,4.4615,4.4615,4.4615,4.4615,4.4615,4.4615,4.4615,4.4643,4.472,4.5035,4.532,4.5425,4.6209,4.6774,4.6774,4.7356,4.7731,4.7731,4.7115,4.6949,4.7428,4.7196,4.7262,4.771,4.787,4.7911,4.7911,4.8028,4.8417,4.9058,4.9179,4.9492,4.9996,5.0318,5.0428,1.8403,2.0264,2.2104,2.1671,2.2124,2.2714,2.2714,0.0,0.0,0.0,0.0,2.2753,2.4323,2.4492,2.5575,2.9093,3.1123,3.3537,3.7118,3.909,4.1049,4.3336,4.4203,4.5212,4.6711,4.7471,4.8064,4.8578,4.8644,4.8515,4.8258,4.8642,4.8736,4.8418,4.8798,4.9018,4.9018,4.9018,4.9018,4.9018,4.9018,4.9018,4.9018,4.9018,4.9018,4.9018,4.9018,4.9018,4.9018,4.9018,4.9018,4.8951,4.8578,4.8379,4.8376,4.797,4.78,4.78,4.78,4.7597,4.7293,4.7293,4.6819,4.6143,4.5805,4.5432,4.5026,4.4716,4.4615,4.4615,4.4615,4.4615,4.4615,4.4615,4.4615,4.4615,4.4615,4.4615,4.4615,4.4615,4.4615,4.4615,4.4615,4.4671,4.4692,4.4776,4.5069,4.5372,4.5648,4.6412,4.6968,4.7154,4.7674,4.8138,4.8502,4.817,4.794,4.7963,4.7684,4.7648,4.7992,4.7992,4.8174,4.8539,4.9042,4.9504,4.9944,5.0101,5.0342,5.0721,5.1149,5.1332,1.8268,2.0899,2.3424,2.2883,2.3526,2.4271,2.4034,0.0,0.0,0.0,0.0,0.0,2.3883,2.5203,2.6691,2.8365,3.119,3.4878,3.9893,4.0939,4.2307,4.5244,4.5504,4.6015,4.751,4.8209,4.8642,4.8801,4.8832,4.8894,4.8984,4.9018,4.9018,4.9018,4.9018,4.9018,4.9018,4.9018,4.9018,4.9018,4.9018,4.9018,4.9018,4.9018,4.9018,4.9018,4.9018,4.9018,4.9018,4.9018,4.9018,4.9018,4.9018,4.9018,4.9018,4.9018,4.9018,4.9018,4.9018,4.8612,4.8041,4.8041,4.7564,4.6853,4.6244,4.5974,4.5737,4.5122,4.4784,4.4615,4.4615,4.4615,4.4615,4.4615,4.4637,4.4692,4.4692,4.4776,4.4831,4.4831,4.4858,4.4886,4.4886,4.5063,4.524,4.5267,4.5524,4.5875,4.63,4.6814,4.7303,4.7702,4.8156,4.8709,4.9382,4.9419,4.9127,4.849,4.8397,4.8397,4.8417,4.8417,4.8746,4.9419,5.0216,5.0696,5.0826,5.0945,5.1059,5.1169,5.1867,5.216,2.0365,2.2582,2.356,2.0378,2.1597,2.3255,2.2003,0.0,0.0,0.0,0.0,0.0,0.0,2.7875,2.9364,3.2104,3.5081,3.843,4.2327,4.2962,4.3912,4.6287,4.657,4.7113,4.8622,4.8858,4.8956,4.8987,4.8987,4.8987,4.9018,4.9018,4.9018,4.9018,4.9018,4.9018,4.9018,4.9018,4.9018,4.9018,4.9018,4.9018,4.9018,4.9018,4.9018,4.9018,4.9018,4.9018,4.9018,4.9018,4.9018,4.9018,4.9018,4.9018,4.9018,4.9018,4.9018,4.9018,4.9018,4.8951,4.8849,4.8849,4.8342,4.7733,4.7601,4.7124,4.6616,4.6481,4.5563,4.4615,4.4615,4.4615,4.4615,4.4615,4.4906,4.5188,4.5188,4.5554,4.5885,4.5885,4.5985,4.6059,4.6059,4.6734,4.7304,4.7402,4.8342,4.9121,4.9339,4.9828,5.0175,5.0257,5.0318,5.0411,5.0521,5.0558,5.0485,5.0395,5.0257,5.0257,5.0375,5.0395,5.0431,5.0558,5.0688,5.1112,5.1773,5.1793,5.216,5.2858,5.2968,5.3041,1.9831,2.1757,2.3004,2.1651,2.3898,2.6369,2.6048,2.5642,0.0,0.0,0.0,0.0,0.0,3.0311,3.2611,3.64,3.8531,4.0561,4.3037,4.3375,4.4113,4.5974,4.6549,4.7225,4.8308,4.8781,4.9018,4.9018,4.9018,4.9018,4.9018,4.9018,4.9018,4.9018,4.9018,4.9018,4.9018,4.9018,4.9018,4.9018,4.9018,4.9018,4.9018,4.9018,4.9018,4.9018,4.9018,4.9018,4.9018,4.9018,4.9018,4.9018,4.9018,4.9018,4.9018,4.9018,4.9018,4.9018,4.9018,4.9018,4.9018,4.9018,4.8781,4.8409,4.8094,4.7982,4.786,4.7595,4.6865,4.6206,4.6206,4.6453,4.6696,4.6696,4.6882,4.703,4.703,4.721,4.7412,4.7512,4.7562,4.7636,4.7674,4.8139,4.8508,4.8556,4.9138,4.9631,4.9981,5.0235,5.0483,5.0782,5.0802,5.0986,5.1389,5.1463,5.1242,5.0839,5.0762,5.0741,5.0802,5.1206,5.1463,5.1463,5.1867,5.227,5.2637,5.2637,5.2858,5.3203,5.3203,5.3203,1.9586,2.1112,2.2649,2.3701,2.5962,2.8265,2.9533,2.8653,2.7925,0.0,0.0,0.0,0.0,3.2848,3.5825,3.9943,4.1068,4.1982,4.347,4.3673,4.4181,4.5534,4.621,4.6819,4.7597,4.8139,4.8477,4.8477,4.8477,4.8477,4.8477,4.8646,4.8748,4.8748,4.8917,4.9018,4.9018,4.9018,4.9018,4.9018,4.9018,4.9018,4.9018,4.9018,4.9018,4.9018,4.9018,4.9018,4.9018,4.9018,4.9018,4.9018,4.9018,4.9018,4.9018,4.9018,4.9018,4.9018,4.9018,4.9018,4.9018,4.9049,4.908,4.8975,4.8549,4.8776,4.9139,4.8719,4.8599,4.8494,4.8039,4.826,4.8594,4.8594,4.867,4.877,4.877,4.887,4.8968,4.909,4.9138,4.9186,4.9269,4.9566,4.9803,4.9803,5.0029,5.0357,5.0715,5.0758,5.0924,5.1312,5.1353,5.161,5.2234,5.227,5.2013,5.1389,5.1353,5.1353,5.1353,5.194,5.227,5.227,5.2894,5.3203,5.3203,5.3203,5.3203,5.3203,5.3203,5.3203,2.1334,2.2279,2.3069,2.5202,2.5273,2.5557,2.8434,2.7893,0.0,3.0446,0.0,0.0,3.3051,3.5588,3.8599,4.1644,4.2185,4.276,4.431,4.4513,4.479,4.5602,4.5771,4.6075,4.6819,4.6921,4.6955,4.6955,4.6955,4.6955,4.6955,4.7631,4.7973,4.7973,4.8646,4.9018,4.9018,4.9018,4.9018,4.9018,4.9018,4.9018,4.9018,4.9018,4.9018,4.9018,4.9018,4.9018,4.9018,4.9018,4.9018,4.9018,4.9018,4.9018,4.9018,4.9018,4.9018,4.9018,4.9018,4.9018,4.9049,4.9138,4.9199,4.9229,4.9342,4.9775,5.0189,5.0154,5.0875,5.1213,4.9323,4.8834,4.8859,4.8859,4.9258,4.9621,4.9621,4.9973,5.0256,5.0277,5.0399,5.0462,5.0462,5.1224,5.1784,5.1784,5.2422,5.292,5.2978,5.2978,5.2999,5.302,5.302,5.3078,5.3115,5.3115,5.3093,5.302,5.302,5.302,5.302,5.3078,5.3115,5.3115,5.3167,5.3203,5.3203,5.3203,5.3203,5.3203,5.3203,5.3203,2.0467,2.2048,2.3777,2.5502,2.6634,0.0,0.0,3.1312,3.2273,3.4844,3.5588,3.5994,3.6738,3.7821,3.9411,4.188,4.2286,4.2855,4.4378,4.4615,4.4716,4.4959,4.5432,4.5805,4.6075,4.6515,4.6786,4.6786,4.6786,4.6786,4.6786,4.7056,4.7225,4.7225,4.7936,4.8342,4.8342,4.8781,4.9018,4.9018,4.9018,4.9018,4.9018,4.9018,4.9018,4.9018,4.9018,4.9018,4.9018,4.9018,4.9018,4.9018,4.9018,4.9018,4.9018,4.9077,4.9107,4.9138,4.926,4.929,4.932,4.935,4.9381,4.95,4.9959,5.0515,5.1017,5.149,5.2161,5.2459,5.1167,5.1095,5.1329,5.1329,5.1502,5.1615,5.1615,5.1784,5.1916,5.2002,5.2044,5.2123,5.2187,5.2485,5.2747,5.2747,5.3004,5.3203,5.3203,5.3203,5.3203,5.3203,5.3203,5.3203,5.3203,5.3203,5.3203,5.3203,5.3203,5.3203,5.3203,5.3203,5.3203,5.3203,5.3203,5.3203,5.3203,5.3203,5.3203,5.3203,5.3203,5.3203,2.0204,2.2072,2.4192,2.562,0.0,0.0,3.2429,3.3783,3.5284,3.8024,3.8599,3.8734,3.9242,3.9546,4.0257,4.2016,4.2489,4.3098,4.4412,4.4615,4.4615,4.4615,4.5026,4.5365,4.5365,4.5805,4.6109,4.6109,4.6109,4.6109,4.6109,4.6312,4.6447,4.6447,4.7192,4.7665,4.7906,4.8409,4.8781,4.9018,4.9018,4.9018,4.9018,4.9018,4.9018,4.9018,4.9018,4.9018,4.9018,4.9018,4.9015,4.9046,4.9107,4.9172,4.9168,4.926,4.929,4.932,4.9441,4.95,4.953,4.9732,4.982,4.993,5.0624,5.1199,5.1728,5.2255,5.2783,5.306,5.2499,5.2672,5.2952,5.2952,5.2952,5.2952,5.2952,5.2952,5.2974,5.306,5.3082,5.3082,5.3167,5.3203,5.3203,5.3203,5.3203,5.3203,5.3203,5.3203,5.3203,5.3203,5.3203,5.3203,5.3203,5.3203,5.3203,5.3203,5.3203,5.3203,5.3203,5.3203,5.3203,5.3203,5.3203,5.3203,5.3203,5.3203,5.3203,5.3203,5.3203,5.3314,2.1115,2.2541,2.4358,2.5605,0.0,0.0,3.3884,3.4539,3.5611,3.9334,4.0113,4.0113,4.0113,4.0696,4.1441,4.2185,4.2929,4.3673,4.4513,4.4615,4.4615,4.4615,4.4615,4.4615,4.4615,4.4615,4.4615,4.4615,4.4615,4.4615,4.4615,4.5297,4.5703,4.5703,4.638,4.7158,4.7872,4.7872,4.8274,4.8984,4.9018,4.9018,4.9018,4.9018,4.9018,4.9018,4.9018,4.9018,4.9018,4.8984,4.9077,4.9229,4.9411,4.95,4.95,4.95,4.95,4.95,4.95,4.95,4.9619,5.0265,5.0515,5.0651,5.1398,5.197,5.2408,5.2408,5.2783,5.3203,5.3203,5.3203,5.3203,5.3203,5.3203,5.3203,5.3203,5.3203,5.3203,5.3203,5.3203,5.3203,5.3203,5.3203,5.3203,5.3203,5.3203,5.3203,5.3203,5.3203,5.3203,5.3203,5.3203,5.3203,5.3203,5.3203,5.3203,5.3203,5.3203,5.3203,5.3203,5.3203,5.3203,5.3203,5.3203,5.3203,5.3203,5.3203,5.3203,5.3203,5.3203,5.3665,2.1015,2.3599,2.6801,2.7646,0.0,0.0,0.0,3.6907,0.0,0.0,4.0493,4.0865,4.0865,4.1474,4.2219,4.2963,4.324,4.3673,4.4513,4.4615,4.4615,4.4615,4.4615,4.4615,4.4615,4.4615,4.4615,4.4615,4.4615,4.4615,4.4615,4.4818,4.4925,4.4925,4.5635,4.6143,4.6346,4.7365,4.8064,4.8388,4.8809,4.9018,4.9018,4.9018,4.9018,4.9018,4.9077,4.9138,4.9138,4.929,4.935,4.9411,4.9471,4.95,4.95,4.959,4.9649,4.9649,4.9801,5.0086,5.0446,5.0667,5.0982,5.1363,5.197,5.2291,5.2477,5.285,5.3082,5.3203,5.3203,5.3203,5.3203,5.3203,5.3203,5.3203,5.3203,5.3203,5.3203,5.3203,5.3203,5.3203,5.3203,5.3203,5.3203,5.3203,5.3203,5.3203,5.3203,5.3203,5.3203,5.3203,5.3203,5.3203,5.3203,5.3203,5.3203,5.3203,5.3203,5.3203,5.3203,5.3203,5.3203,5.3203,5.3203,5.3203,5.3203,5.3203,5.3203,5.3203,5.3775,5.4179,2.2765,2.5557,2.8812,3.0352,3.3319,3.6445,3.8391,3.8817,3.9005,3.991,4.0426,4.0832,4.117,4.1813,4.2523,4.3274,4.3673,4.4045,4.4547,4.4615,4.4615,4.4615,4.4615,4.4615,4.4615,4.4615,4.4615,4.4615,4.4615,4.4615,4.4615,4.4615,4.4615,4.4615,4.5083,4.5484,4.5789,4.6729,4.7364,4.7753,4.8447,4.8761,4.8761,4.8972,4.9077,4.9077,4.9229,4.932,4.932,4.95,4.956,4.959,4.9683,4.9713,4.9713,4.9801,4.9942,5.0137,5.0257,5.0667,5.1175,5.1347,5.1651,5.203,5.2581,5.2717,5.2783,5.3103,5.3203,5.3203,5.3203,5.3203,5.3203,5.3203,5.3203,5.3203,5.3203,5.3203,5.3203,5.3203,5.3203,5.3203,5.3203,5.3203,5.3203,5.3203,5.3203,5.3203,5.3203,5.3203,5.3203,5.3203,5.3203,5.3203,5.3203,5.3203,5.3203,5.3203,5.3203,5.3203,5.3203,5.3203,5.3203,5.3203,5.3203,5.3203,5.3203,5.3518,5.3702,5.3702,5.4509,5.506,2.552,2.7924,3.0334,3.3205,3.5206,3.717,3.9749,4.0238,4.0138,4.0113,4.0146,4.0417,4.1068,4.1847,4.2625,4.3274,4.4079,4.4615,4.4615,4.4615,4.4615,4.4615,4.4615,4.4615,4.4615,4.4615,4.4615,4.4615,4.4615,4.4643,4.4643,4.4643,4.4643,4.4643,4.4748,4.5143,4.5796,4.6004,4.6464,4.7113,4.7899,4.8304,4.8338,4.8946,4.9229,4.926,4.9441,4.95,4.953,4.9679,4.9737,4.9737,4.9976,5.0097,5.0097,5.012,5.0453,5.0857,5.0857,5.1218,5.175,5.2244,5.2431,5.2545,5.306,5.3203,5.3203,5.3203,5.3203,5.3203,5.3203,5.3203,5.3203,5.3203,5.3203,5.3203,5.3203,5.3203,5.3203,5.3203,5.3203,5.3203,5.3203,5.3203,5.3203,5.3203,5.3203,5.3203,5.3203,5.3203,5.3203,5.3203,5.3203,5.3203,5.3203,5.3203,5.3203,5.3203,5.3203,5.3203,5.3203,5.3203,5.3203,5.3314,5.3314,5.3371,5.3445,5.4142,5.4509,5.4509,5.5317,5.6088,2.5564,2.8311,3.1394,3.4317,3.7313,3.9689,4.0324,4.0436,4.0362,4.0163,4.0561,4.1001,4.117,4.2286,4.3234,4.3375,4.4079,4.4615,4.4615,4.4615,4.4615,4.4615,4.4615,4.4615,4.4615,4.4615,4.4615,4.4615,4.4692,4.4748,4.4748,4.4858,4.4913,4.4913,4.494,4.5036,4.5207,4.5787,4.6246,4.6522,4.717,4.7546,4.7729,4.8919,4.95,4.959,4.9649,4.9772,4.9889,4.9918,4.9952,4.9976,5.0453,5.0647,5.0667,5.1123,5.1322,5.1424,5.1424,5.1775,5.2268,5.2361,5.2694,5.3039,5.3182,5.3203,5.3203,5.3203,5.3203,5.3203,5.3203,5.3203,5.3203,5.3203,5.3203,5.3203,5.3203,5.3203,5.3203,5.3203,5.3203,5.3203,5.3203,5.3203,5.3203,5.3203,5.3203,5.3203,5.3203,5.3203,5.3203,5.3203,5.3203,5.3203,5.3203,5.3203,5.3203,5.3203,5.3203,5.3203,5.3203,5.3203,5.3518,5.4142,5.4142,5.4436,5.506,5.5244,5.5317,5.5354,5.6161,5.6638,2.5854,2.8815,3.1952,3.5931,3.8848,4.068,4.0607,4.0583,4.0534,4.0337,4.0544,4.09,4.1316,4.1925,4.2482,4.2988,4.3315,4.3633,4.4088,4.4067,4.4147,4.4547,4.4671,4.4726,4.4726,4.4748,4.4776,4.4776,4.4858,4.4913,4.4913,4.4968,4.5022,4.5022,4.5042,4.5096,4.5096,4.5534,4.5795,4.5903,4.6577,4.7161,4.7629,4.862,4.8958,4.8764,4.9108,4.9338,4.9424,4.9701,5.0022,5.0425,5.0991,5.1166,5.1228,5.15,5.175,5.197,5.197,5.2338,5.2783,5.2783,5.2974,5.3203,5.3203,5.3203,5.3203,5.3203,5.3203,5.3203,5.3203,5.3203,5.3203,5.3203,5.3203,5.3203,5.3203,5.3203,5.3203,5.3203,5.3203,5.3203,5.3203,5.3203,5.3203,5.3203,5.3203,5.3203,5.3203,5.3203,5.3203,5.3203,5.3203,5.3371,5.3739,5.3775,5.3959,5.4326,5.4363,5.4363,5.4363,5.4363,5.4363,5.4399,5.4766,5.517,5.5596,5.5978,5.6161,5.6198,5.7005,5.7373,2.5402,2.8856,3.2352,3.7348,3.9652,4.0675,4.0752,4.0704,4.068,4.0583,4.0436,4.0567,4.128,4.1308,4.1537,4.2381,4.243,4.2596,4.3348,4.3369,4.3525,4.4196,4.4476,4.4627,4.4627,4.4872,4.5022,4.5022,4.5022,4.5015,4.5015,4.5076,4.5076,4.5076,4.5177,4.523,4.523,4.5344,4.5397,4.5397,4.6052,4.6761,4.7457,4.8079,4.8176,4.7872,4.8495,4.8765,4.8903,4.9354,5.0022,5.0779,5.1312,5.1618,5.175,5.1824,5.2173,5.2522,5.2522,5.2828,5.3203,5.3203,5.3203,5.3203,5.3203,5.3203,5.3203,5.3203,5.3203,5.3203,5.3203,5.3203,5.3203,5.3203,5.3203,5.3203,5.3203,5.3203,5.3203,5.3203,5.3203,5.3203,5.3203,5.3203,5.3203,5.3203,5.3203,5.3203,5.3203,5.3203,5.3203,5.3203,5.3314,5.3702,5.4326,5.4509,5.4876,5.5537,5.5596,5.5596,5.5596,5.5721,5.55,5.484,5.5464,5.5868,5.6014,5.6675,5.7005,5.7042,5.7703,5.7997,2.2336,0.0,3.2956,3.7487,3.9215,4.0043,4.0733,4.0871,4.0847,4.0847,4.0655,4.0519,4.0646,4.1144,4.1596,4.1724,4.2245,4.2688,4.2791,4.2791,4.2833,4.2935,4.3602,4.4038,4.4038,4.4619,4.5022,4.5022,4.5096,4.5177,4.5177,4.5291,4.5344,4.5344,4.5371,4.5371,4.5371,4.5397,4.5397,4.5397,4.55,4.5866,4.642,4.7165,4.777,4.8295,4.84,4.8729,4.9157,4.923,4.9742,5.0528,5.1058,5.1677,5.2361,5.2806,5.3039,5.3082,5.3082,5.3124,5.3203,5.3203,5.3203,5.3203,5.3203,5.3203,5.3203,5.3203,5.3203,5.3203,5.3203,5.3203,5.3203,5.3203,5.3203,5.3203,5.3203,5.3203,5.3203,5.3203,5.3203,5.3203,5.3203,5.3203,5.3203,5.3203,5.3203,5.3203,5.3203,5.3203,5.3203,5.3203,5.3812,5.4289,5.4399,5.5023,5.5486,5.5574,5.5596,5.5596,5.5596,5.6271,5.6602,5.6492,5.6602,5.6969,5.7666,5.7776,5.785,5.785,5.796,5.7997,2.3529,2.8012,3.2332,3.6312,3.818,3.9284,4.0043,4.0584,4.0894,4.0894,4.0799,4.0728,4.0728,4.0881,4.1013,4.1194,4.1336,4.1638,4.2124,4.2116,4.2236,4.2672,4.3091,4.3348,4.3348,4.4112,4.4611,4.4611,4.505,4.5318,4.5318,4.5371,4.5397,4.5397,4.5397,4.5397,4.5397,4.5397,4.5554,4.5854,4.6119,4.6363,4.6602,4.6956,4.7251,4.757,4.8006,4.8305,4.8544,4.886,4.9441,5.0266,5.1268,5.1864,5.2251,5.2956,5.3203,5.3203,5.3203,5.3203,5.3203,5.3203,5.3203,5.3203,5.3203,5.3203,5.3203,5.3203,5.3203,5.3203,5.3203,5.3203,5.3203,5.3203,5.3203,5.3203,5.3203,5.3203,5.3203,5.3203,5.3203,5.3203,5.3203,5.3203,5.3203,5.3203,5.3203,5.3203,5.3203,5.3203,5.335,5.3812,5.4179,5.4766,5.5684,5.6088,5.6455,5.6895,5.6932,5.6932,5.6932,5.7262,5.7483,5.7483,5.7483,5.7666,5.7997,5.7997,5.7997,5.7997,5.7997,5.7997,2.3649,0.0,2.9731,3.3921,3.625,3.7897,3.9292,4.0101,4.0676,4.0966,4.0965,4.0894,4.0894,4.0728,4.068,4.0847,4.0728,4.0837,4.1484,4.1488,4.1644,4.2192,4.2474,4.2687,4.2687,4.3476,4.4035,4.4035,4.4699,4.5147,4.5147,4.5294,4.5397,4.5397,4.5397,4.5476,4.5572,4.5727,4.597,4.6387,4.6707,4.6959,4.7071,4.7071,4.7138,4.7284,4.7702,4.7976,4.8111,4.8517,4.9174,4.9995,5.1009,5.1667,5.205,5.2674,5.3041,5.3203,5.3203,5.3203,5.3203,5.3203,5.3203,5.3203,5.3203,5.3203,5.3203,5.3203,5.3203,5.3203,5.3203,5.3203,5.3203,5.3203,5.3203,5.3203,5.3203,5.3203,5.3203,5.3203,5.3203,5.3203,5.3203,5.3203,5.3203,5.3203,5.335,5.3518,5.3518,5.3702,5.4032,5.462,5.4876,5.55,5.6712,5.7005,5.7373,5.796,5.7997,5.7997,5.7997,5.7997,5.7997,5.7997,5.7997,5.7997,5.7997,5.7997,5.7997,5.7997,5.7997,5.7997,2.0253,2.2138,2.4207,2.9852,3.2945,3.5444,3.8614,3.9551,4.0078,4.1238,4.1163,4.0894,4.0894,4.0871,4.0871,4.0894,4.0871,4.0905,4.094,4.094,4.094,4.1009,4.163,4.2043,4.2043,4.2792,4.3241,4.3241,4.3931,4.438,4.438,4.5044,4.5397,4.5397,4.5397,4.5624,4.6144,4.6602,4.6858,4.6845,4.6903,4.7138,4.7569,4.7569,4.7834,4.8209,4.7809,4.787,4.8302,4.8285,4.8818,4.9608,4.9701,5.0675,5.2013,5.205,5.2564,5.3203,5.3203,5.3203,5.3203,5.3203,5.3203,5.3203,5.3203,5.3203,5.3203,5.3203,5.3203,5.3203,5.3203,5.3203,5.3203,5.3203,5.3203,5.3203,5.3203,5.3203,5.3203,5.3203,5.3203,5.3203,5.3203,5.3203,5.3203,5.3203,5.3849,5.4326,5.4326,5.4987,5.5486,5.5537,5.6235,5.6712,5.6785,5.7483,5.796,5.7997,5.7997,5.7997,5.7997,5.7997,5.7997,5.7997,5.7997,5.7997,5.7997,5.7997,5.7997,5.7997,5.7997,5.7997,1.8994,0.0,2.3406,2.7254,3.043,3.3088,3.5278,3.7835,3.9897,4.0324,4.111,4.1731,4.1731,4.149,4.1209,4.0942,4.1117,4.1209,4.0942,4.0894,4.0894,4.0894,4.1136,4.1309,4.1309,4.2252,4.2751,4.2472,4.3374,4.4083,4.4302,4.4823,4.5406,4.5895,4.6217,4.6459,4.6649,4.7115,4.7356,4.7356,4.7632,4.7895,4.8055,4.8055,4.8134,4.8287,4.8114,4.8134,4.8306,4.8306,4.8489,4.882,4.939,5.0271,5.1279,5.1793,5.2527,5.3203,5.3203,5.3203,5.3203,5.3203,5.3203,5.3203,5.3203,5.3203,5.3203,5.3203,5.3203,5.3203,5.3203,5.3203,5.3203,5.3203,5.3203,5.3203,5.3203,5.3203,5.3203,5.3203,5.3203,5.3203,5.3203,5.3203,5.3408,5.3885,5.4216,5.4583,5.5097,5.5427,5.5794,5.6308,5.6638,5.7005,5.7519,5.7813,5.7997,5.7997,5.7997,5.7997,5.7997,5.7997,5.7997,5.7997,5.8065,5.8088,5.7997,5.7997,5.7997,5.7997,5.7997,5.8042,1.7876,1.9776,0.0,2.5645,2.8101,3.0481,3.3716,3.6399,3.8448,3.9384,4.0776,4.1823,4.1823,4.1878,4.1839,4.1413,4.1556,4.16,4.1163,4.1094,4.1059,4.0918,4.0894,4.0942,4.1071,4.1822,4.2216,4.2079,4.3031,4.3745,4.394,4.4765,4.5588,4.64,4.689,4.7138,4.7138,4.7591,4.7818,4.7818,4.8134,4.8306,4.8306,4.8306,4.8306,4.8306,4.8306,4.8306,4.8306,4.8306,4.8306,4.8379,4.926,5.0088,5.0912,5.1683,5.2527,5.3203,5.3203,5.3203,5.3203,5.3203,5.3203,5.3203,5.3203,5.3203,5.3203,5.3203,5.3203,5.3203,5.3203,5.3203,5.3203,5.3203,5.3203,5.3203,5.3203,5.3203,5.3203,5.3203,5.3203,5.3203,5.3203,5.3466,5.3876,5.439,5.4963,5.5521,5.6073,5.6367,5.6735,5.7265,5.7338,5.7559,5.8029,5.8088,5.8088,5.7997,5.8065,5.8111,5.8065,5.8111,5.8133,5.8133,5.8238,5.8201,5.8133,5.8133,5.8133,5.8133,5.8133,5.8179,0.0,0.0,0.0,2.4787,2.5924,2.7583,3.3951,3.5117,3.565,3.8488,4.0055,4.0915,4.0987,4.202,4.2751,4.2282,4.22,4.2071,4.16,4.1534,4.1378,4.0989,4.0942,4.1071,4.149,4.1534,4.1696,4.2175,4.2873,4.328,4.3315,4.4835,4.607,4.69,4.7378,4.7611,4.7611,4.8075,4.8306,4.8306,4.8306,4.8306,4.8306,4.8306,4.8306,4.8306,4.8306,4.8306,4.8306,4.8306,4.8306,4.8379,4.926,5.0088,5.0912,5.1683,5.2527,5.3203,5.3203,5.3203,5.3203,5.3203,5.3203,5.3203,5.3203,5.3203,5.3203,5.3203,5.3203,5.3203,5.3203,5.3203,5.3203,5.3203,5.3203,5.3203,5.3203,5.3225,5.3225,5.3203,5.3225,5.3225,5.3261,5.3992,5.4628,5.4665,5.6113,5.7211,5.7248,5.7913,5.8393,5.8393,5.8393,5.8349,5.8238,5.8327,5.8305,5.802,5.826,5.8349,5.8201,5.8327,5.8393,5.8393,5.8393,5.8393,5.8393,5.8393,5.8393,5.8393,5.8393,5.8459,1.7165,0.0,0.0,0.0,0.0,0.0,2.7565,2.9964,3.2388,3.5528,3.738,3.9008,4.0756,4.1844,4.2427,4.2285,4.2502,4.2537,4.2056,4.2029,4.1987,4.186,4.1839,4.1903,4.2008,4.2318,4.2418,4.2216,4.2713,4.3093,4.3301,4.5156,4.6442,4.7021,4.7743,4.8094,4.8094,4.8248,4.8306,4.8306,4.8306,4.8306,4.8306,4.8306,4.8306,4.8306,4.8306,4.8306,4.8306,4.8306,4.8306,4.8379,4.926,5.0088,5.0912,5.1683,5.2527,5.3203,5.3203,5.3203,5.3203,5.3203,5.3203,5.3203,5.3203,5.3203,5.3203,5.3203,5.3203,5.3203,5.3203,5.3203,5.3203,5.3203,5.3203,5.3203,5.3203,5.3251,5.3272,5.3188,5.3251,5.3477,5.4086,5.4485,5.5064,5.6282,5.6894,5.7396,5.7987,5.8245,5.8393,5.8393,5.8393,5.8371,5.8349,5.8371,5.8371,5.8305,5.8371,5.8371,5.8349,5.8371,5.8393,5.8393,5.8443,5.8486,5.8486,5.8437,5.8393,5.8393,5.8443,5.8486,1.875,0.0,0.0,2.1702,0.0,0.0,2.6319,2.8081,3.0026,3.2913,3.4798,3.6597,3.8726,3.9753,4.0524,4.1185,4.1769,4.2214,4.2465,4.2498,4.2418,4.2236,4.2216,4.2277,4.2478,4.2749,4.2863,4.2751,4.3013,4.3359,4.3851,4.5009,4.6134,4.7076,4.7553,4.7957,4.8306,4.8306,4.8306,4.8306,4.8306,4.8306,4.8306,4.8306,4.8306,4.8306,4.8306,4.8306,4.8306,4.8306,4.8489,4.8893,4.9738,5.0582,5.1389,5.2197,5.2821,5.3203,5.3203,5.3203,5.3203,5.3203,5.3203,5.3203,5.3203,5.3203,5.3203,5.3203,5.3203,5.3203,5.3203,5.3203,5.3203,5.3203,5.3203,5.3225,5.323,5.3256,5.3297,5.3272,5.3297,5.3638,5.4506,5.4995,5.5743,5.7038,5.7577,5.8026,5.8471,5.8545,5.8545,5.8545,5.8545,5.8523,5.8459,5.8465,5.8502,5.8393,5.848,5.8523,5.8422,5.8502,5.8545,5.8545,5.8551,5.8593,5.8593,5.8529,5.8545,5.8545,5.8572,5.8593,2.1327,0.0,0.0,2.4797,2.4383,0.0,2.7592,2.797,2.8323,3.0552,3.2118,3.366,3.5422,3.6501,3.7529,3.8872,4.0084,4.1289,4.2631,4.2921,4.2825,4.2398,4.2358,4.2518,4.292,4.2957,4.3105,4.348,4.3515,4.3791,4.4525,4.4654,4.5388,4.6929,4.7039,4.748,4.8306,4.8306,4.8306,4.8306,4.8306,4.8306,4.8306,4.8306,4.8306,4.8306,4.8306,4.8306,4.8306,4.8306,4.8783,4.9591,5.0472,5.1279,5.2087,5.2894,5.3203,5.3203,5.3203,5.3203,5.3203,5.3203,5.3203,5.3203,5.3203,5.3203,5.3203,5.3203,5.3203,5.3203,5.3203,5.3203,5.3225,5.3188,5.3188,5.323,5.3297,5.3339,5.3339,5.3339,5.344,5.3796,5.4683,5.5562,5.6422,5.7311,5.8153,5.8698,5.8698,5.8698,5.8698,5.8698,5.8698,5.8656,5.8513,5.8635,5.8614,5.8437,5.8572,5.8656,5.8551,5.8635,5.8698,5.8698,5.8698,5.8698,5.8698,5.8698,5.8698,5.8698,5.8698,5.8698,2.5076,2.5561,2.6303,2.4855,2.5748,0.0,2.4593,2.5598,2.7211,2.8287,2.8741,2.9659,3.1947,3.355,3.4394,3.41,3.6927,3.9942,4.2111,4.2953,4.3339,4.3268,4.325,4.3286,4.3356,4.3356,4.3428,4.3497,4.3515,4.3588,4.3718,4.4342,4.5149,4.6104,4.6746,4.748,4.8306,4.8306,4.8306,4.8306,4.8306,4.8306,4.8306,4.8306,4.8306,4.8306,4.8306,4.8306,4.8306,4.8306,4.882,4.9647,5.0472,5.1279,5.2087,5.2894,5.3203,5.3203,5.3203,5.3203,5.3203,5.3203,5.3203,5.3203,5.3203,5.3203,5.3203,5.3203,5.3203,5.3203,5.3203,5.3203,5.3209,5.3256,5.3277,5.3318,5.342,5.3558,5.3598,5.3598,5.3617,5.4118,5.5582,5.6071,5.6746,5.8211,5.8566,5.8698,5.8698,5.8698,5.8698,5.8698,5.8698,5.8677,5.8656,5.8677,5.8677,5.8635,5.8677,5.8677,5.8656,5.8677,5.8698,5.8698,5.8698,5.8698,5.8698,5.8698,5.8698,5.8698,5.8698,5.8698,2.7453,2.7564,2.8301,2.7532,2.7348,0.0,0.0,2.551,2.5962,2.7511,2.7206,2.75,3.0295,3.1127,3.1518,3.1935,3.4724,3.7132,3.7955,4.0524,4.2286,4.2286,4.2286,4.247,4.2873,4.291,4.3057,4.3478,4.3515,4.3515,4.3515,4.3864,4.4488,4.5296,4.6104,4.6892,4.77,4.8122,4.8306,4.8306,4.8306,4.8306,4.8306,4.8306,4.8306,4.8306,4.8306,4.8306,4.8306,4.8306,4.904,5.0251,5.0655,5.1536,5.2637,5.3078,5.3203,5.3203,5.3203,5.3203,5.3203,5.3203,5.3203,5.3203,5.3203,5.3203,5.3203,5.3203,5.3203,5.3225,5.3251,5.3272,5.3293,5.338,5.34,5.342,5.3578,5.3637,5.3825,5.4254,5.4348,5.4756,5.598,5.6577,5.7323,5.8512,5.8698,5.8698,5.8698,5.8698,5.8698,5.8698,5.8698,5.8698,5.8698,5.8698,5.8698,5.8698,5.8698,5.8698,5.8698,5.8698,5.8698,5.8698,5.8698,5.8698,5.8698,5.8698,5.8698,5.8698,5.8698,5.8698,3.0155,3.0079,3.0766,3.0505,2.9422,2.8218,0.0,0.0,0.0,2.7122,2.6411,2.6317,2.9021,2.8998,2.8913,3.0075,3.2412,3.3757,3.2779,3.6597,3.9591,3.9884,4.0361,4.0875,4.1552,4.1479,4.1956,4.3404,4.291,4.2837,4.3478,4.3515,4.3864,4.4654,4.548,4.6287,4.7076,4.7883,4.8306,4.8306,4.8306,4.8306,4.8306,4.8306,4.8306,4.8306,4.8306,4.8306,4.8306,4.8489,4.9444,5.0802,5.0802,5.1793,5.3203,5.3203,5.3203,5.3203,5.3203,5.3203,5.3203,5.3203,5.3203,5.3203,5.3203,5.3203,5.3225,5.3209,5.3209,5.323,5.3318,5.3339,5.338,5.3518,5.3558,5.3578,5.3676,5.3733,5.3975,5.4852,5.5131,5.554,5.6395,5.7063,5.7769,5.8586,5.8698,5.8698,5.8698,5.8698,5.8698,5.8698,5.8698,5.8698,5.8698,5.8698,5.8698,5.8698,5.8698,5.8698,5.8698,5.8698,5.8698,5.8698,5.8698,5.8698,5.8698,5.8698,5.8698,5.8698,5.8698,5.8698,3.5111,3.5527,3.5648,3.1513,3.2366,3.2551,2.6177,0.0,2.7318,2.6039,0.0,2.5822,2.688,0.0,0.0,2.6182,2.8705,3.021,2.8705,3.1421,3.4087,3.5518,3.7609,3.9019,3.9093,3.8469,3.9549,4.3221,4.0855,4.0487,4.3368,4.3515,4.3864,4.4654,4.548,4.6287,4.7076,4.7883,4.8306,4.8306,4.8306,4.8306,4.8306,4.8306,4.8306,4.8306,4.8306,4.8306,4.8379,4.9077,4.9921,5.0802,5.0802,5.1793,5.3203,5.3203,5.3203,5.3203,5.3203,5.3203,5.3203,5.3203,5.3203,5.3203,5.3203,5.3203,5.3188,5.3256,5.3297,5.3318,5.344,5.3461,5.3501,5.3674,5.3694,5.3714,5.3793,5.3812,5.4035,5.4815,5.5614,5.6432,5.7212,5.7435,5.7769,5.8586,5.8698,5.8698,5.8698,5.8698,5.8698,5.8698,5.8698,5.8698,5.8698,5.8698,5.8698,5.8698,5.8698,5.8698,5.8698,5.8698,5.8698,5.8698,5.8698,5.8698,5.8698,5.8698,5.8698,5.8698,5.8698,5.8698,3.5906,3.6436,3.6833,3.3426,3.2884,3.2021,2.752,2.6607,2.6747,2.6901,0.0,0.0,0.0,0.0,0.0,0.0,2.7636,2.8081,2.5988,2.8484,3.1115,3.2706,3.3844,3.5018,3.6399,3.711,3.841,4.0561,3.946,3.9717,4.1992,4.2983,4.3662,4.3975,4.5223,4.6067,4.6397,4.7682,4.8306,4.8306,4.8306,4.8306,4.8306,4.8306,4.8306,4.8306,4.8306,4.8306,4.8379,4.9187,5.0031,5.0839,5.1316,5.2197,5.3203,5.3203,5.3203,5.3225,5.3251,5.3272,5.3293,5.3355,5.3375,5.3375,5.3375,5.3375,5.3396,5.34,5.342,5.344,5.3578,5.3598,5.3637,5.3735,5.3754,5.3774,5.3775,5.3794,5.4203,5.5503,5.606,5.6692,5.7992,5.8215,5.8326,5.8661,5.8698,5.8698,5.8698,5.8698,5.8698,5.8698,5.8698,5.8698,5.8698,5.8698,5.8698,5.8698,5.8698,5.8698,5.8698,5.8698,5.8698,5.8698,5.8698,5.8698,5.8698,5.8698,5.8698,5.8698,5.8698,5.8698,3.7131,3.7593,3.7858,3.4313,3.2736,3.1182,2.8085,2.7015,2.6913,2.78,2.8017,0.0,0.0,0.0,2.6933,2.6727,0.0,2.6728,2.4522,2.6413,2.8385,2.934,3.021,3.1604,3.3793,3.4504,3.573,3.7881,3.7221,3.7991,4.0948,4.2213,4.302,4.3515,4.5039,4.5883,4.5883,4.7498,4.8306,4.8306,4.8306,4.8306,4.8306,4.8306,4.8306,4.8306,4.8306,4.8306,4.8379,4.9483,5.0311,5.0916,5.1985,5.2778,5.3272,5.323,5.3251,5.3293,5.3339,5.3359,5.338,5.3461,5.3481,5.3481,5.3481,5.3481,5.3501,5.3558,5.3558,5.3598,5.3676,5.3716,5.3735,5.3812,5.3794,5.3794,5.3794,5.398,5.4574,5.6023,5.6469,5.7063,5.8475,5.8698,5.8698,5.8698,5.8698,5.8698,5.8698,5.8698,5.8698,5.8698,5.8698,5.8698,5.8698,5.8698,5.8698,5.8698,5.8698,5.8698,5.8698,5.8698,5.8698,5.8698,5.8698,5.8698,5.8698,5.8698,5.8698,5.8698,5.8698,5.8698,4.0376,4.0539,3.9667,3.3339,3.2267,3.1505,2.6667,2.7395,2.8872,2.817,2.9857,3.0964,2.9485,2.8524,2.7664,2.6851,2.673,0.0,0.0,2.5068,2.5324,2.453,2.7189,2.9721,3.136,2.945,3.0393,3.5973,3.344,3.4394,4.0765,4.1132,4.1882,4.3441,4.5039,4.5883,4.5883,4.7498,4.8306,4.8306,4.8306,4.8306,4.8306,4.8306,4.8306,4.8306,4.8306,4.8306,4.8416,5.0149,5.0851,5.1092,5.2776,5.3481,5.3461,5.3339,5.338,5.3481,5.3481,5.3481,5.3481,5.3481,5.3481,5.3481,5.3481,5.3481,5.3538,5.3674,5.3694,5.3714,5.3793,5.3775,5.3794,5.3794,5.3794,5.3794,5.3794,5.4426,5.5243,5.6134,5.6952,5.7732,5.8549,5.8698,5.8698,5.8698,5.8698,5.8698,5.8698,5.8698,5.8698,5.8698,5.8698,5.8698,5.8698,5.8698,5.8698,5.8698,5.8698,5.8698,5.8698,5.8698,5.8698,5.8698,5.8698,5.8698,5.8698,5.8698,5.8698,5.8698,5.8698,5.8698,4.0882,4.134,4.0804,3.5993,3.4199,3.2625,2.8889,2.9116,2.9742,2.8369,3.0402,3.1834,2.9704,2.8614,2.7721,2.6891,2.628,2.5337,0.0,2.3749,2.398,2.4247,2.6618,2.8018,2.7489,2.7662,2.9058,3.2095,3.2241,3.41,3.8469,4.0744,4.2139,4.269,4.4782,4.5883,4.5883,4.7498,4.8306,4.8306,4.8306,4.8325,4.8438,4.8438,4.8439,4.8513,4.8513,4.8513,4.8624,5.0321,5.1022,5.1226,5.2833,5.3558,5.3598,5.3461,5.3461,5.3501,5.3598,5.3657,5.3698,5.3698,5.3698,5.3698,5.3698,5.3698,5.3698,5.3774,5.3774,5.3774,5.3775,5.3794,5.3794,5.3794,5.3794,5.3794,5.3794,5.4426,5.528,5.6134,5.6952,5.7769,5.8549,5.8698,5.8698,5.8698,5.8698,5.8698,5.8698,5.8698,5.8698,5.8698,5.8698,5.8698,5.8698,5.8698,5.8698,5.8698,5.8698,5.8698,5.8698,5.8698,5.8698,5.8698,5.8698,5.8698,5.8698,5.8698,5.8698,5.8698,5.8698,5.8698,4.1605,4.1952,4.1454,3.7765,3.6062,3.4358,3.0877,3.1182,3.1735,3.0069,3.1402,3.271,3.2066,2.9783,2.8079,2.8137,2.6709,2.5088,0.0,2.3562,2.3738,2.422,2.5638,2.615,2.5083,2.5672,2.7033,2.9228,3.0601,3.3012,3.6868,3.9863,4.1699,4.2286,4.4635,4.5883,4.5883,4.7498,4.8306,4.8306,4.8344,4.8419,4.8494,4.8532,4.855,4.8624,4.8624,4.8771,4.9178,5.0564,5.1285,5.1692,5.3062,5.3676,5.3716,5.3617,5.3598,5.36,5.3696,5.3774,5.3794,5.3794,5.3794,5.3794,5.3794,5.3794,5.3794,5.3794,5.3794,5.3794,5.3794,5.3794,5.3794,5.3794,5.3794,5.3868,5.4166,5.4871,5.5726,5.658,5.7398,5.8103,5.8624,5.8698,5.8698,5.8698,5.8698,5.8698,5.8698,5.8698,5.8698,5.8698,5.8698,5.8698,5.8698,5.8698,5.8698,5.8698,5.8698,5.8698,5.8698,5.8698,5.8698,5.8698,5.8698,5.8698,5.8698,5.8698,5.8698,5.8698,5.8698,5.8698]}]]